GFSWCAN_sfc_dewp_048.txt.gz
Dewpoint
45 45 46 46 47 49 49 49 48 48 48 47 47 47 48 49 50 56 56 57 53 50 49 49 46 44 43 44 44 42 41 42 43 43 40 39 42 32 29 27 32 33 36 36 33 35 31 26 32 31 34 35 35 38
46 45 46 47 48 48 48 48 47 47 47 47 47 47 48 50 50 53 55 56 56 51 49 50 50 50 49 45 44 44 43 42 42 43 42 41 38 36 37 34 33 31 33 34 32 31 32 32 35 37 36 35 37 38
47 47 47 47 47 47 47 47 47 48 48 48 48 48 48 50 51 53 55 56 54 53 48 49 48 49 50 51 52 44 46 43 41 43 43 43 37 39 37 35 33 33 33 34 32 28 30 33 33 35 35 38 38 40
47 47 47 47 47 47 47 48 48 48 48 49 48 48 49 49 51 53 54 54 55 50 42 47 48 48 49 50 50 48 46 44 43 44 46 42 42 36 37 34 35 33 34 32 33 32 32 33 37 39 39 40 40 40
46 46 47 47 47 48 48 48 48 48 49 49 49 49 49 50 50 53 52 52 53 52 43 47 48 47 48 47 46 46 45 44 46 45 40 43 39 40 40 38 37 33 32 35 36 34 34 36 41 42 41 40 40 37
47 47 48 48 47 47 47 48 48 49 49 49 49 50 49 49 49 53 46 49 49 51 48 43 46 46 47 48 47 46 47 47 47 45 41 41 40 42 38 37 36 36 37 38 35 40 40 41 41 40 40 38 35 33
47 48 48 47 47 47 47 48 49 49 49 49 49 49 49 48 52 44 42 48 46 48 46 40 45 44 46 46 46 47 47 46 47 43 41 42 42 42 37 39 38 40 40 40 40 40 40 39 37 35 33 30 32 33
48 48 48 47 47 47 47 47 48 48 48 48 48 48 48 47 48 48 47 45 46 43 46 37 41 45 44 44 42 43 43 45 43 41 41 41 41 42 39 38 37 38 39 39 38 38 36 32 29 29 32 35 37 35
47 47 47 48 47 47 46 46 47 47 48 48 48 48 52 50 51 49 46 46 47 44 39 35 39 38 42 39 40 43 43 37 41 39 40 41 36 36 36 35 36 37 38 35 33 32 30 31 32 34 35 36 34 34
47 47 47 48 47 47 46 46 46 47 46 47 49 47 47 48 45 45 45 46 44 42 40 34 39 37 41 41 39 41 40 37 34 38 39 39 38 33 32 34 36 38 37 35 32 32 34 35 35 34 32 31 30 30
47 47 47 47 47 47 47 46 46 47 48 50 47 43 48 45 46 43 38 38 40 36 39 38 39 37 40 38 36 38 35 36 34 35 37 35 34 33 35 36 36 35 34 34 34 34 35 33 30 30 27 27 26 24
46 46 46 46 46 46 46 45 46 49 48 48 47 46 45 44 42 37 34 37 37 35 38 38 38 39 38 41 38 37 33 36 33 35 36 30 33 34 35 36 37 37 36 34 34 34 33 29 25 24 23 24 26 27
44 45 45 45 45 45 45 44 44 44 45 48 45 38 43 37 35 37 32 35 34 37 36 37 35 39 38 40 35 37 35 33 36 34 30 32 32 35 36 35 34 34 34 33 26 23 24 25 27 28 29 28 33 30
43 44 44 44 44 44 44 44 44 44 46 38 36 34 35 35 34 35 36 37 34 35 37 38 35 37 37 37 36 35 34 34 31 29 30 31 35 35 33 30 26 25 32 27 25 27 28 28 28 32 32 32 31 28
42 42 43 43 43 43 43 43 42 43 40 36 37 32 32 32 33 33 34 35 35 36 38 39 37 39 35 33 34 34 31 30 30 30 32 34 35 34 30 27 25 27 32 31 27 30 31 32 31 30 29 25 25 27
42 41 40 42 41 42 42 42 42 41 37 35 34 32 33 33 32 33 33 33 35 36 37 38 34 34 32 34 33 32 31 29 31 32 34 35 35 32 29 28 28 27 28 29 30 30 29 29 27 23 24 23 25 24
40 39 40 41 40 39 41 40 38 33 33 34 32 33 34 33 32 32 33 33 35 35 33 35 33 30 33 31 29 31 31 32 33 33 33 36 34 29 28 29 31 31 30 30 28 26 25 23 23 20 17 15 15 17
38 38 39 39 39 38 36 37 33 34 31 34 32 32 33 33 33 32 33 33 34 34 35 33 33 31 31 28 29 31 31 34 34 34 33 34 30 31 30 30 30 29 27 25 23 22 21 20 17 14 12 11 11 13
38 38 38 37 38 37 34 34 35 30 32 33 34 34 33 32 33 33 34 34 34 34 34 32 32 30 31 31 33 32 34 34 32 31 31 33 34 33 31 28 27 24 21 19 19 18 17 14 13 10 10 10 12 14
37 38 37 36 38 35 33 32 35 31 30 31 34 32 32 32 33 33 33 33 32 35 33 32 29 29 31 30 32 34 35 34 31 29 28 28 29 29 27 24 21 19 17 16 15 14 13 12 10 10 12 11 14 14
38 37 36 37 35 34 31 30 30 31 30 29 32 32 31 33 33 33 33 32 32 28 27 26 27 28 28 28 30 31 32 32 29 30 28 25 24 22 20 18 16 15 16 15 14 12 13 12 10 11 14 15 14 15
36 35 36 34 34 33 32 31 30 31 30 30 30 30 31 31 31 31 31 30 26 26 27 28 26 26 26 25 25 27 28 28 27 26 26 24 22 20 18 16 16 16 13 13 11 13 12 9 10 12 13 13 12 14
34 34 33 33 30 31 29 31 30 29 27 28 29 26 28 28 29 29 26 27 26 28 28 26 25 25 23 22 22 22 23 23 23 23 23 22 19 18 16 13 12 13 12 9 9 10 11 6 9 10 12 12 12 12
31 28 26 26 28 25 28 27 28 28 29 27 24 23 24 26 28 26 23 25 26 27 25 25 24 22 21 19 19 19 19 20 19 19 18 17 16 14 13 11 10 9 8 7 9 10 9 10 7 10 9 9 10 9
26 24 25 22 25 23 23 23 24 24 22 25 23 23 25 27 23 21 21 21 23 24 26 28 28 25 21 20 19 18 18 16 15 13 13 14 13 11 8 8 8 8 9 11 9 8 8 8 8 8 7 8 6 6
20 24 23 23 24 22 22 21 21 22 22 22 24 23 26 24 17 16 17 20 21 21 23 25 24 21 20 20 18 16 15 16 14 12 10 9 9 11 10 9 9 9 8 9 8 6 6 5 5 4 5 6 4 5
21 22 24 26 25 23 25 25 24 25 21 21 24 23 23 16 15 15 18 18 19 19 19 21 21 19 16 14 13 14 15 15 15 12 10 8 8 8 9 8 6 6 6 6 5 5 4 3 4 4 5 6 6 5
24 25 22 24 25 25 22 22 22 22 24 24 25 19 17 15 13 16 17 19 19 17 16 14 14 13 12 12 14 14 13 12 12 11 10 9 9 10 7 8 6 4 5 4 4 3 4 4 4 5 5 4 3 3
24 26 26 19 22 24 23 23 23 23 23 26 22 16 12 11 12 14 16 18 19 18 15 13 13 14 12 10 10 10 12 12 8 3 1 7 8 9 9 8 7 6 5 4 2 3 4 5 5 3 1 1 2 2
24 26 24 21 19 20 23 25 24 23 21 20 16 13 11 11 12 14 15 14 13 11 11 11 12 13 10 11 9 8 8 9 8 7 6 5 6 7 7 6 6 6 4 3 2 2 1 2 2 2 -0 -0 0 -1
24 26 23 23 21 23 24 26 26 23 19 16 16 13 10 11 12 11 10 10 11 12 11 9 8 8 8 8 8 8 7 7 3 4 4 5 6 6 6 6 6 5 4 2 1 0 -1 -1 0 -2 -2 -4 -5 -6
21 19 20 19 20 21 19 22 22 21 18 16 12 12 11 10 6 9 8 10 10 8 2 7 8 8 7 8 6 7 -2 5 5 4 3 4 6 6 6 5 4 3 2 1 0 -1 -2 -3 -3 -3 -4 -5 -6 -8
18 19 18 19 19 18 15 15 15 14 14 12 9 9 8 8 3 8 8 8 8 8 7 7 8 8 4 3 5 6 1 5 1 1 0 0 -1 1 3 5 4 2 0 -0 -0 -1 -4 -4 -4 -5 -6 -8 -9 -10

GFSWCAN_sfc_dewp_051.txt.gz
Dewpoint
43 43 43 43 44 44 45 46 46 47 48 48 48 48 48 49 49 51 55 58 56 48 44 47 41 37 37 40 44 43 42 43 44 43 42 43 43 36 32 28 35 35 39 36 39 34 31 26 29 28 35 32 33 33
43 43 43 43 44 45 46 46 47 47 48 48 47 48 48 48 49 51 54 57 57 50 49 52 52 51 49 47 41 45 39 42 43 42 47 47 41 40 39 33 30 32 34 36 33 33 33 30 30 37 36 35 36 37
43 44 45 45 46 46 45 45 48 48 48 48 48 48 48 48 49 51 57 56 54 53 49 49 48 51 50 52 53 44 48 44 44 48 46 48 41 43 39 39 33 32 33 34 32 25 27 29 31 33 34 36 36 38
44 45 45 45 45 46 47 48 47 47 48 47 47 47 48 49 50 53 57 57 55 52 48 48 50 48 49 50 50 51 49 49 47 47 49 43 43 39 42 36 35 33 34 30 31 28 27 33 38 40 40 41 40 40
46 45 45 46 47 47 47 47 47 47 47 47 47 47 48 49 51 56 57 55 56 51 46 48 48 48 48 48 48 48 48 46 46 48 43 46 42 43 42 39 38 33 30 36 36 37 36 39 41 42 40 40 40 38
47 46 46 47 47 47 47 47 47 47 47 47 48 48 49 50 52 54 52 55 54 54 50 45 48 47 48 48 47 46 47 48 49 46 46 43 40 45 41 39 37 35 37 38 36 39 41 42 40 41 40 37 36 35
47 47 47 47 47 48 48 47 48 48 48 48 48 49 49 50 55 52 44 49 51 53 48 41 45 48 48 48 47 47 49 49 49 47 44 45 43 43 41 39 37 39 39 40 40 40 40 39 37 35 33 33 35 32
47 47 47 47 47 48 48 48 48 48 48 48 48 48 48 48 48 50 46 46 48 48 49 39 42 46 47 47 46 47 48 49 45 43 44 43 43 44 42 39 38 39 39 38 37 37 36 34 34 35 36 36 36 33
47 46 46 46 47 47 48 49 49 48 48 48 48 49 53 53 51 48 46 46 51 48 39 37 40 39 44 43 44 45 46 39 44 41 42 43 40 39 38 37 37 37 39 36 34 33 33 34 34 35 35 33 31 29
47 47 46 46 46 46 46 47 48 48 48 48 50 46 49 50 46 47 46 48 47 46 44 39 42 41 43 43 40 42 42 39 36 39 40 41 38 34 35 36 37 39 38 36 35 34 35 34 33 32 29 29 29 27
47 47 47 46 45 45 46 47 47 47 47 51 49 46 49 45 48 46 40 43 45 39 41 40 41 40 42 40 37 40 36 38 34 37 38 36 35 34 36 37 37 37 36 35 35 35 34 33 30 28 25 24 25 26
46 46 46 46 44 44 44 45 47 49 48 49 49 48 48 46 44 40 35 39 39 37 39 39 39 40 40 42 39 38 35 37 33 37 38 32 34 35 36 36 37 36 35 35 34 32 30 25 23 24 26 27 29 30
44 44 44 44 45 45 44 44 44 44 46 50 47 41 45 38 36 35 33 36 34 38 38 39 36 40 40 41 37 38 34 34 37 35 32 33 35 35 36 35 34 33 33 32 26 24 25 27 29 30 30 31 36 30
43 43 43 44 44 44 44 44 44 46 47 40 37 35 36 34 35 36 38 37 36 37 39 40 37 39 40 37 39 33 35 35 32 31 31 34 35 36 34 33 31 28 33 28 26 28 29 30 31 33 33 32 30 25
42 42 42 42 43 44 44 43 43 44 42 37 37 33 33 33 34 34 35 36 36 39 40 39 39 40 37 35 37 34 32 31 31 33 34 35 36 33 30 28 26 28 33 30 29 32 33 35 30 27 25 23 25 26
42 41 40 42 42 43 44 43 43 42 38 35 35 33 33 33 32 33 33 33 37 40 42 41 37 36 34 36 35 34 32 30 33 34 35 35 35 33 29 29 28 27 28 30 31 30 29 27 27 22 22 20 25 24
41 39 40 41 41 41 41 40 39 34 33 33 32 33 34 33 32 32 34 34 37 38 34 38 35 32 34 32 31 32 33 33 34 34 35 36 34 30 29 30 32 32 31 30 28 26 25 23 22 19 16 13 12 13
40 38 39 40 40 40 38 37 35 36 32 33 32 32 32 33 33 32 33 34 36 36 37 34 34 33 33 31 30 31 33 33 33 33 35 36 33 31 30 30 31 31 28 26 24 22 20 20 16 14 11 10 11 13
38 38 38 39 39 39 34 35 37 32 33 35 35 35 35 33 34 35 35 37 36 37 37 36 34 32 32 33 33 33 32 33 31 33 33 34 35 34 32 30 28 26 23 22 21 20 17 13 12 11 12 12 14 16
38 38 38 38 39 36 34 34 36 33 31 33 36 35 34 34 35 34 36 37 35 38 34 32 29 29 31 31 34 35 34 33 31 30 30 32 33 33 32 31 28 23 19 17 15 15 15 14 12 12 14 15 17 16
38 37 38 38 37 35 32 31 31 33 33 31 34 33 33 35 35 35 35 35 33 29 26 28 28 29 30 31 34 35 35 34 31 31 30 27 28 26 23 21 20 20 19 19 18 15 16 15 13 14 18 19 17 18
36 37 38 38 37 35 32 33 31 32 31 32 32 32 32 32 32 32 33 31 27 27 28 29 28 27 28 29 30 31 31 30 30 28 26 26 24 23 22 21 20 19 18 18 15 18 17 13 13 15 17 17 15 17
36 36 37 37 33 33 30 33 32 29 30 30 31 28 30 30 29 29 27 27 27 29 29 27 26 26 25 25 25 26 27 27 26 26 25 24 23 21 18 16 17 19 17 12 12 14 15 10 13 14 15 15 16 16
33 32 30 30 31 28 33 30 28 27 29 28 26 24 25 28 29 27 24 26 27 28 26 26 26 25 25 23 21 21 22 23 22 22 22 21 19 16 14 12 12 12 12 12 14 15 14 14 11 14 13 13 13 12
28 26 30 26 30 28 26 26 27 25 24 27 25 24 26 27 24 23 23 23 25 26 29 30 27 26 24 23 22 21 20 20 18 17 17 17 15 14 12 11 11 11 12 15 14 13 13 12 12 11 10 11 9 8
23 26 25 26 26 26 25 23 24 24 25 24 24 25 28 26 21 19 17 21 22 21 23 26 27 24 21 23 21 19 19 19 17 15 12 12 13 15 14 13 13 13 12 13 12 11 10 9 9 7 8 8 7 8
22 25 26 26 24 25 26 26 26 25 23 23 25 24 25 19 17 16 20 19 19 20 20 21 22 20 18 17 18 18 16 16 16 12 11 11 11 11 13 12 9 10 9 10 9 9 8 7 8 7 8 9 9 8
24 25 23 26 25 25 23 24 24 24 24 24 26 20 19 17 14 16 17 19 20 19 17 17 16 16 16 17 18 17 16 15 14 14 13 12 12 12 11 12 10 3 8 8 7 7 7 7 7 7 8 7 6 7
24 26 27 22 23 23 23 25 24 22 22 26 24 18 15 13 15 16 17 20 22 21 18 16 17 18 16 14 14 14 15 15 12 7 7 10 12 13 12 10 10 10 10 9 6 6 5 5 6 6 5 5 6 6
23 27 25 23 21 21 24 27 23 22 22 22 18 13 12 13 15 17 17 17 16 15 15 16 16 16 14 14 12 12 12 11 10 9 8 7 8 10 10 9 9 9 8 8 7 6 5 5 5 6 5 5 4 4
25 27 24 23 22 24 25 27 26 24 21 19 20 17 13 13 15 15 14 15 15 15 15 13 12 13 12 10 11 10 10 11 7 6 6 7 8 9 9 8 9 9 7 6 5 5 4 3 3 3 3 2 0 -0
25 22 22 19 22 24 27 27 26 23 21 19 16 16 15 15 10 11 12 16 13 12 10 12 11 10 10 11 10 10 3 8 8 6 5 6 7 8 8 8 8 8 6 5 4 4 3 2 1 1 1 -0 -1 -3
23 23 22 21 20 20 21 22 19 17 17 14 13 13 13 12 6 10 12 13 12 11 10 11 12 11 8 7 8 9 6 8 5 5 4 3 2 3 5 6 7 6 4 4 4 3 2 1 0 -1 -1 -3 -4 -5

GFSWCAN_sfc_dewp_054.txt.gz
Dewpoint
41 42 41 42 43 44 45 45 45 46 46 46 46 46 47 47 47 49 50 52 52 53 44 44 41 39 39 44 45 45 43 44 49 42 39 46 44 39 34 31 37 37 39 36 40 34 32 28 26 28 37 38 35 34
42 42 42 43 44 44 45 45 45 46 46 46 46 46 47 48 48 49 49 53 55 54 52 53 52 51 50 51 46 47 43 43 46 46 47 50 40 41 43 38 29 34 36 39 38 37 38 30 35 39 37 36 36 39
42 43 44 44 44 44 44 45 45 46 46 46 46 46 47 48 48 49 50 54 57 55 49 48 48 51 50 51 55 47 50 46 47 52 50 50 40 46 39 43 35 32 34 39 36 28 30 31 33 37 37 39 39 40
43 43 43 44 44 44 44 45 46 46 46 46 46 47 48 48 49 49 50 54 57 55 46 48 50 48 49 51 52 53 51 54 53 53 51 42 42 43 46 39 39 35 35 32 32 30 29 38 40 41 41 42 40 40
43 43 43 44 44 45 45 45 45 46 46 47 47 48 48 48 49 50 52 54 58 54 45 48 48 48 48 49 50 49 52 51 51 47 39 48 46 47 46 43 42 34 32 40 41 39 39 41 41 41 41 40 38 36
44 45 45 45 44 43 42 42 43 46 47 47 48 48 48 48 49 52 50 54 56 56 51 44 48 47 47 48 49 48 49 51 50 48 48 46 43 48 41 43 35 37 37 39 38 40 42 41 39 39 37 36 34 33
44 44 44 45 44 44 46 46 46 47 47 47 47 48 48 49 52 51 48 50 49 54 49 40 44 48 48 47 49 48 50 50 49 47 47 46 44 44 40 43 38 38 39 40 40 41 39 39 34 34 34 32 34 34
46 45 46 46 47 46 46 46 46 47 47 47 47 48 48 48 49 50 50 48 49 50 49 37 38 44 47 47 46 48 48 48 46 43 45 44 43 47 43 39 39 39 39 37 37 38 36 35 36 36 36 35 33 32
47 47 47 47 47 47 47 47 47 47 47 48 48 49 51 52 50 50 46 48 54 49 39 36 36 37 45 44 45 46 46 38 45 40 42 44 39 38 39 38 37 38 38 35 34 34 35 35 35 35 32 32 31 29
45 46 46 47 47 47 47 47 47 48 48 48 51 50 42 48 46 47 48 50 46 46 45 40 44 40 43 43 41 42 42 39 36 40 42 41 38 36 36 37 38 38 38 36 35 35 35 34 33 31 30 29 28 26
46 45 45 46 47 47 47 47 47 48 48 52 49 42 47 47 50 46 40 39 42 37 42 42 42 41 43 40 37 40 37 38 35 37 39 36 36 35 37 37 38 37 37 36 36 36 35 34 31 27 25 27 29 30
46 46 46 45 45 46 47 47 47 50 51 50 49 49 49 48 43 38 35 38 39 37 39 40 41 41 41 44 39 37 35 37 34 39 36 33 34 36 37 36 36 36 36 35 35 33 31 26 25 27 28 30 32 32
44 44 45 45 44 45 45 45 46 46 48 50 46 39 44 37 35 34 32 36 34 37 38 39 36 40 41 41 37 36 34 35 39 35 32 34 35 36 36 35 35 35 35 33 27 26 27 29 30 32 30 30 30 27
43 43 44 44 44 44 44 45 46 47 46 40 37 34 35 34 35 35 35 36 35 36 39 39 38 39 39 35 36 33 36 35 32 31 32 35 35 35 34 34 33 29 30 28 28 29 31 30 28 28 28 27 26 23
42 42 42 43 44 44 44 44 44 44 42 36 37 32 32 33 34 34 34 35 35 39 40 39 39 39 36 34 36 34 32 31 32 33 35 36 36 35 34 32 28 31 30 30 30 32 32 30 27 25 24 23 25 24
42 41 39 42 42 43 43 44 44 43 37 35 34 33 33 33 33 33 33 33 36 37 42 42 36 33 34 36 34 32 32 31 34 34 35 36 34 32 30 30 30 29 30 31 31 30 27 26 25 23 21 19 24 23
40 38 40 41 42 41 41 41 40 35 33 33 32 33 33 33 32 32 33 34 37 38 34 38 34 32 36 33 31 33 32 33 34 34 35 35 34 31 30 32 32 32 32 31 29 28 25 24 24 21 17 13 14 17
39 38 40 41 42 40 38 38 37 35 32 34 31 32 32 32 32 32 33 35 37 37 37 34 37 34 33 30 30 32 32 32 33 35 36 36 32 32 30 30 31 31 29 28 26 24 22 23 18 15 13 12 14 16
37 38 40 41 41 38 35 36 38 31 33 34 33 33 33 33 33 34 34 35 37 39 39 38 34 31 31 33 32 31 32 32 31 31 33 35 35 34 34 32 30 28 26 25 25 21 17 15 14 13 14 14 16 17
39 38 40 39 40 37 34 35 38 33 32 34 35 34 34 34 34 34 35 37 35 35 30 28 26 27 30 31 35 34 33 32 31 30 30 32 33 33 33 32 29 26 21 17 17 20 17 16 13 14 16 16 17 16
38 37 39 38 37 36 35 35 34 35 35 33 34 35 33 35 33 33 33 35 31 28 26 28 29 32 34 34 35 35 34 34 33 31 30 30 33 31 29 27 25 24 23 22 21 17 18 16 14 16 19 20 18 18
35 38 40 40 37 35 33 35 35 34 34 34 34 34 33 32 32 32 35 29 26 28 30 30 32 30 30 31 32 32 32 32 31 30 29 28 26 25 24 23 23 22 20 20 18 19 17 14 14 16 17 18 16 18
37 37 37 37 33 33 30 35 32 30 30 31 31 29 30 30 30 31 27 27 28 29 30 30 28 28 29 29 30 30 30 28 28 29 28 27 25 23 22 21 22 21 18 13 14 16 16 11 14 14 16 16 16 17
35 33 31 30 32 27 34 30 29 27 29 28 26 24 26 27 30 28 23 24 28 30 27 28 28 28 26 24 23 24 25 25 24 25 24 22 19 16 15 14 14 14 14 14 16 16 16 16 12 14 15 13 13 13
28 26 30 26 32 28 25 24 26 24 24 26 25 25 26 28 25 23 21 23 23 23 25 28 27 27 24 23 22 22 25 24 21 20 20 18 17 15 13 12 12 12 14 16 14 14 14 14 14 12 10 11 9 9
23 25 24 24 25 24 24 21 22 24 24 24 23 24 29 26 20 17 17 21 20 19 21 23 26 21 19 20 19 18 19 24 20 16 14 14 17 17 16 15 15 13 12 14 12 10 10 10 10 8 9 8 8 10
21 23 25 27 26 26 25 26 26 25 23 24 24 25 25 19 15 17 18 19 18 19 19 20 20 19 17 17 17 18 19 17 16 12 12 12 12 12 13 12 10 8 9 10 9 8 7 7 7 8 8 9 10 10
24 25 21 26 25 26 23 24 24 23 24 24 27 19 17 16 13 17 18 20 20 18 17 17 17 17 17 18 19 20 19 17 16 15 14 13 13 14 13 13 10 8 10 10 8 8 7 6 6 6 7 7 6 8
24 27 27 22 23 23 24 25 23 22 22 24 23 17 14 13 17 18 19 20 22 21 18 18 18 19 17 15 16 16 15 14 13 10 9 11 13 12 12 11 11 11 11 10 10 10 8 7 7 6 5 5 5 7
25 29 24 22 22 21 24 24 21 23 24 20 15 12 11 13 16 19 18 17 17 16 16 17 17 16 17 14 12 11 11 10 9 8 7 7 7 10 10 11 10 10 10 9 7 7 8 7 7 6 7 7 7 6
27 29 25 24 22 25 26 25 25 23 21 19 21 15 11 12 15 15 14 18 16 18 17 13 12 13 11 10 10 10 10 10 8 6 5 7 9 10 11 10 10 10 9 8 6 6 5 5 4 3 3 3 3 3
23 23 24 22 22 25 29 28 26 22 22 18 17 17 18 16 10 10 13 17 14 12 11 12 10 9 10 12 12 12 4 9 9 7 6 5 6 6 7 7 8 9 8 7 5 5 5 4 3 3 2 1 1 0
21 21 21 22 22 20 21 22 18 17 17 15 14 14 12 11 6 11 14 14 12 11 11 12 13 13 11 9 8 9 7 9 8 9 9 5 1 4 3 5 5 5 3 4 3 3 3 2 2 1 0 -0 -1 -1

GFSWCAN_sfc_dewp_057.txt.gz
Dewpoint
42 41 41 40 41 41 42 43 43 45 46 45 46 47 47 48 48 48 44 49 49 47 48 48 39 40 42 44 42 45 43 47 45 35 35 32 30 32 31 37 34 31 30 28 31 31 25 36 28 25 35 36 36 38
41 41 41 42 42 44 45 44 45 45 45 46 47 47 47 48 49 46 44 51 52 48 49 54 51 51 49 47 47 44 42 43 45 40 38 38 35 35 32 28 37 33 38 34 33 33 39 39 37 37 36 37 39 38
42 42 42 44 43 44 44 44 45 45 45 46 46 46 46 47 47 46 45 51 51 47 50 53 49 50 50 52 54 46 46 45 46 49 45 41 35 38 32 33 34 35 36 35 34 34 32 40 40 41 41 40 41 41
42 42 43 43 43 44 45 45 45 46 46 46 46 45 46 47 47 47 45 49 51 49 40 48 52 48 50 53 54 56 54 52 51 49 40 37 35 42 36 37 36 36 35 33 33 38 40 41 41 42 42 42 35 32
43 43 44 44 44 44 45 45 45 45 46 46 46 45 46 47 48 48 48 49 51 49 42 45 49 49 48 51 53 54 53 52 47 38 36 38 42 40 40 38 34 36 35 32 31 40 40 40 41 41 37 35 32 31
43 44 44 44 44 44 44 45 45 45 46 46 46 46 47 48 48 48 44 49 51 52 47 38 47 47 48 49 50 51 52 52 48 43 38 42 43 40 34 31 36 40 40 41 40 41 39 36 35 36 34 33 33 33
44 44 44 44 44 45 45 45 45 45 46 46 46 47 48 48 49 46 46 50 50 52 45 37 40 46 48 48 48 49 49 47 47 43 39 40 42 42 36 33 38 40 40 41 41 39 36 35 33 33 34 35 36 35
45 45 45 44 43 43 42 43 44 44 45 46 47 47 47 48 49 48 50 48 49 50 45 35 36 42 47 43 41 46 44 43 43 42 41 36 40 36 33 38 39 38 37 36 37 37 36 36 36 35 34 33 33 33
44 44 44 43 43 43 41 42 43 44 47 47 47 48 48 47 47 49 49 47 51 45 35 33 36 35 45 42 43 41 42 35 42 35 38 39 36 33 38 38 38 38 36 35 36 36 36 35 35 33 32 32 32 31
43 43 44 44 45 46 45 45 45 46 47 47 48 48 42 47 48 48 46 41 38 39 39 36 39 37 43 38 36 36 36 34 33 36 41 35 34 37 37 38 39 39 36 36 35 34 34 34 32 32 30 29 29 28
46 46 46 46 46 46 46 46 47 47 48 49 45 40 46 48 48 41 35 35 36 33 35 40 39 38 43 36 34 35 34 34 32 33 34 34 32 37 40 38 38 38 37 37 36 36 35 34 27 28 29 30 30 29
46 46 47 47 47 47 47 47 47 49 50 49 46 48 47 44 37 36 33 34 35 32 35 37 37 40 37 42 36 34 33 33 30 36 34 28 34 37 37 36 36 37 36 35 35 34 31 27 28 30 30 29 26 25
45 45 46 46 47 47 47 47 48 48 47 47 42 37 38 34 33 32 29 32 32 34 36 35 34 35 36 38 34 34 33 32 35 32 27 31 36 36 36 36 36 35 34 31 29 30 31 31 31 30 28 27 25 23
44 44 44 44 45 45 45 46 47 46 44 37 35 33 33 32 32 32 33 34 33 34 35 35 35 34 34 33 33 31 33 34 30 26 27 34 36 36 35 35 33 29 29 30 31 29 27 26 25 25 24 23 23 22
42 43 43 43 44 45 44 44 44 43 38 33 33 30 30 31 33 33 33 33 34 36 36 35 35 35 33 33 33 32 30 28 28 28 33 36 35 34 33 29 28 29 29 30 30 28 26 25 23 23 24 22 22 19
42 41 40 42 43 44 44 43 42 40 35 33 32 32 32 33 32 33 33 33 34 34 36 35 33 32 33 32 31 30 27 25 30 32 35 36 34 33 29 29 30 31 31 31 30 29 26 24 22 19 22 21 18 16
40 38 41 42 42 41 42 40 37 33 32 32 30 32 32 32 31 31 32 32 35 35 33 33 30 30 33 30 28 30 28 30 32 33 34 33 32 30 30 31 30 31 30 28 26 25 23 23 22 20 16 18 19 17
38 39 42 42 42 40 39 38 35 33 30 31 29 30 31 32 32 32 32 33 34 33 32 30 33 31 30 28 28 30 30 32 34 34 34 32 31 31 31 31 31 30 28 27 25 24 23 21 18 17 16 17 19 18
39 39 41 41 40 37 34 35 36 30 31 32 32 32 32 32 33 33 34 35 35 36 34 33 29 27 27 30 29 30 31 32 31 32 34 34 33 34 33 29 27 26 25 24 21 18 17 17 17 16 17 19 18 18
39 39 40 40 40 34 32 33 37 32 30 31 32 31 32 31 32 33 33 33 32 31 26 25 25 27 28 30 33 32 32 32 32 30 29 31 32 31 31 29 25 24 22 20 21 20 17 16 17 17 17 16 12 12
39 37 40 40 37 35 34 32 32 33 33 31 32 32 31 33 32 30 29 31 26 26 25 28 28 30 32 33 34 34 34 34 32 30 29 29 31 30 29 29 29 27 24 21 20 18 17 16 16 17 10 8 6 7
35 39 35 36 32 32 31 34 32 33 33 32 32 32 31 29 29 30 29 25 25 26 28 28 29 29 29 30 31 32 31 31 31 31 30 29 26 26 26 25 22 20 20 20 19 16 15 15 14 12 5 3 8 8
37 37 33 31 24 24 24 33 28 30 28 30 31 29 29 28 30 31 25 27 26 29 29 30 29 29 27 27 27 29 29 27 26 26 25 24 23 22 20 21 21 17 16 16 17 16 14 12 11 4 6 5 0 1
35 31 25 25 24 23 28 23 28 28 28 26 24 22 24 27 29 23 20 22 23 23 24 28 30 24 24 22 22 23 27 25 24 25 23 20 18 18 18 17 16 16 17 17 16 14 13 7 6 4 1 -4 -5 -1
19 20 23 16 23 18 16 23 25 24 22 25 23 23 23 27 21 18 18 19 18 17 19 24 21 23 20 20 19 19 24 23 20 18 20 21 18 17 15 13 13 14 15 12 11 8 6 4 1 -3 -1 -5 1 -2
20 25 22 24 24 22 22 21 23 22 21 16 23 25 27 21 11 12 15 17 16 16 16 18 20 16 15 17 15 14 17 21 18 14 15 16 16 18 16 13 11 9 12 11 7 4 3 3 0 -1 -3 0 -0 -1
21 23 27 29 28 28 25 24 24 20 17 19 22 20 21 9 9 15 17 17 16 17 18 18 18 16 15 15 16 17 17 17 16 15 14 13 13 12 11 7 4 6 10 6 2 -2 -3 -4 -6 -7 -7 -3 -0 -3
25 26 23 25 21 24 19 16 15 18 17 21 21 11 7 8 8 16 18 20 18 18 17 17 16 16 15 14 14 15 16 16 15 15 14 14 13 12 10 9 7 10 7 2 -3 -2 -5 -4 -9 -10 -9 -8 -9 -10
25 27 22 21 20 19 20 18 18 19 21 22 11 10 8 13 16 17 18 18 18 16 16 15 13 14 13 12 10 9 8 8 7 3 1 3 2 3 2 0 1 -0 -1 -1 6 7 4 2 1 -3 -8 -3 1 -6
22 28 20 14 13 15 17 19 16 20 18 13 12 11 10 11 13 15 15 16 14 13 14 13 12 10 10 10 6 3 2 0 1 -5 -10 -10 -5 -2 -1 5 -2 -2 -1 -5 -7 -4 3 -3 -3 -8 -9 -10 -5 -3
24 25 20 18 19 20 20 20 18 16 12 11 11 6 6 8 10 13 12 14 13 15 9 6 6 6 3 2 -2 -5 -4 -2 -2 -5 -5 -6 -5 2 2 -1 3 -1 -4 3 -3 -9 -11 -11 -10 -6 -10 -11 -10 -6
24 20 21 16 19 24 24 22 22 17 16 12 8 6 8 8 1 5 10 11 6 5 3 3 -1 -4 -4 -2 1 -4 -5 1 -3 -6 -2 -7 -9 -11 -9 -6 -3 0 -3 -10 -9 -0 -3 -7 -8 -3 -6 -7 -13 -14
16 17 19 19 19 14 13 17 12 11 10 7 10 3 -0 -2 -3 4 9 4 0 -1 2 4 3 5 3 -3 -4 1 2 -3 -2 8 5 -0 -7 -4 -11 -12 -13 -14 -14 -14 -12 -14 -11 -5 -4 -4 -5 -7 -12 -12

GFSWCAN_sfc_dewp_063.txt.gz
Dewpoint
43 43 43 43 43 46 45 44 44 42 42 43 43 43 44 44 45 44 43 48 44 42 42 47 44 41 39 38 36 41 43 43 39 35 34 32 28 33 31 32 29 30 29 26 24 18 24 32 30 22 28 37 38 38
45 45 45 45 44 44 44 44 42 42 42 43 43 44 44 44 44 44 41 48 47 42 42 46 45 46 47 41 38 45 39 43 42 39 36 36 33 32 31 29 34 27 31 31 30 30 34 35 30 35 38 39 39 39
43 43 43 43 43 43 43 42 42 42 42 43 43 44 43 43 44 43 43 45 44 40 40 44 45 48 51 50 44 42 45 47 45 46 42 40 34 35 33 31 35 35 37 32 32 35 36 38 40 40 39 39 40 41
43 43 43 43 43 42 42 42 42 42 42 43 43 43 43 43 44 44 44 45 42 42 38 44 52 49 51 53 48 47 47 49 48 46 40 37 34 40 35 35 34 36 37 36 36 38 39 39 40 36 35 35 35 36
42 41 42 42 42 42 42 42 42 42 42 43 43 44 43 43 45 46 46 46 45 41 38 41 47 51 52 53 51 51 49 47 43 39 35 37 40 39 37 37 35 36 36 34 33 38 36 38 39 36 35 34 34 32
41 42 41 41 42 42 42 43 42 41 44 43 44 44 46 47 45 43 40 44 47 47 41 35 46 48 51 51 50 49 49 48 46 42 39 41 43 37 31 31 35 38 39 36 36 40 39 38 35 34 34 33 33 33
43 41 40 42 42 43 43 43 44 45 44 44 45 46 47 45 44 41 37 42 46 47 40 35 38 47 49 49 46 46 47 46 46 44 40 41 41 38 31 29 37 40 38 37 36 35 33 34 33 34 33 33 34 33
44 44 44 44 45 44 44 43 44 45 45 46 46 46 46 45 43 41 49 45 46 43 44 34 36 41 46 42 42 43 41 41 42 41 40 38 40 35 35 37 40 37 36 36 35 36 35 35 34 32 32 31 29 29
44 44 43 44 44 45 45 45 45 45 46 45 45 45 44 43 39 42 47 47 49 45 35 33 35 35 44 41 41 38 40 35 39 35 35 38 34 35 39 40 38 37 37 35 35 34 33 33 32 31 30 27 27 26
43 44 44 44 44 45 45 45 44 45 45 45 43 40 37 43 47 47 46 41 40 39 37 34 39 37 41 36 35 35 35 34 33 35 38 29 33 37 37 39 39 38 36 35 33 33 33 32 31 31 27 26 26 26
44 44 44 44 43 44 45 44 44 46 44 40 39 37 46 47 45 40 34 32 34 33 36 38 39 38 41 35 34 34 33 33 33 35 35 33 32 34 38 38 38 38 37 37 37 35 33 33 31 28 27 27 26 23
44 44 43 43 44 44 44 45 45 42 41 42 44 47 46 42 37 34 31 32 32 31 35 36 36 39 37 38 35 33 32 31 31 35 33 31 32 35 37 37 38 38 36 35 35 33 32 31 30 28 27 25 23 21
43 43 42 42 43 44 43 43 43 44 45 47 42 37 37 33 32 32 29 30 31 33 35 35 34 34 35 33 33 33 31 29 33 33 31 32 37 37 37 37 37 37 35 33 32 32 30 28 27 26 23 22 21 18
44 44 44 44 44 44 44 44 44 43 41 37 35 32 32 31 31 31 32 33 33 33 35 35 33 33 31 33 32 30 32 33 27 24 24 33 36 36 33 33 32 31 31 32 31 28 25 23 23 23 23 21 19 16
44 45 45 44 45 45 44 44 44 43 37 33 34 28 29 31 32 32 33 33 33 35 34 33 33 32 33 32 30 31 30 28 26 21 30 35 35 32 32 31 30 30 29 28 27 26 24 22 20 21 22 19 18 18
43 42 42 45 46 45 44 44 41 39 34 32 30 31 32 32 32 32 33 33 34 34 33 31 31 31 31 31 28 23 26 25 26 31 34 35 32 31 31 30 29 28 27 26 26 26 23 21 20 20 20 18 18 17
41 39 43 43 44 44 44 39 35 31 32 30 29 31 31 31 30 31 32 32 34 33 31 25 28 30 32 29 28 29 27 29 31 33 33 31 30 30 30 29 29 29 28 27 26 22 21 20 18 17 16 16 15 16
39 41 42 43 42 41 39 37 30 31 29 30 28 29 30 30 31 31 32 33 33 31 29 31 31 28 26 26 26 29 30 31 32 31 31 32 32 32 31 29 29 28 26 22 20 21 20 19 18 17 17 17 17 17
40 40 42 41 40 37 34 34 33 28 30 31 32 32 32 30 30 31 31 32 30 30 28 26 20 21 23 28 29 29 30 31 29 29 30 32 32 31 30 29 25 24 23 20 20 19 19 19 19 19 19 19 18 16
39 39 39 40 39 34 31 32 33 30 29 31 31 27 28 28 29 29 29 29 29 28 24 22 22 24 26 29 31 31 31 32 29 27 26 27 28 28 28 27 25 24 23 21 19 19 19 19 19 17 16 16 15 14
35 36 36 37 35 35 33 31 31 32 32 30 32 29 26 26 24 23 23 25 23 24 21 22 22 25 27 29 31 31 30 30 28 27 26 24 27 26 25 25 25 24 21 20 18 17 17 16 17 15 12 7 8 10
32 35 29 30 30 30 31 33 32 33 32 31 31 30 27 24 23 23 23 18 18 19 23 22 22 23 23 24 25 27 27 25 24 23 24 24 21 20 20 21 20 18 17 17 16 14 14 14 14 14 11 8 11 11
31 30 26 25 23 25 27 32 29 31 27 28 29 27 26 25 25 25 17 18 17 20 23 24 24 24 22 24 24 24 24 21 20 19 19 18 18 18 17 18 18 16 15 16 16 15 13 13 11 8 7 7 4 3
28 20 17 15 19 17 21 25 30 29 28 25 24 22 24 23 24 18 13 14 16 18 19 20 22 19 19 17 17 18 20 19 18 18 19 16 13 13 14 13 13 13 13 13 11 9 9 7 6 5 2 -3 -3 -5
16 16 13 10 15 14 13 15 21 24 21 22 21 22 22 23 15 12 10 11 13 13 15 17 16 17 15 15 15 16 18 16 13 12 16 15 14 12 10 10 9 8 10 6 4 2 1 0 -1 -3 -3 -8 -1 -7
13 19 19 18 16 16 14 9 15 14 17 19 20 21 18 13 8 7 9 13 12 13 13 15 14 12 11 13 11 11 14 14 11 8 10 10 13 13 10 8 6 5 7 2 -1 -5 -7 -10 -14 -14 -17 -12 -12 -17
14 17 22 25 23 22 15 13 14 10 10 11 13 8 5 -0 2 10 14 14 13 14 15 14 13 11 10 11 11 13 13 12 10 9 10 9 8 7 4 0 0 5 6 -3 -11 -12 -12 -14 -16 -16 -18 -22 -20 -20
22 21 12 11 10 14 6 3 6 8 10 15 3 -5 -8 -7 3 11 14 15 15 13 11 10 8 7 6 6 7 8 9 8 8 7 6 3 4 4 4 4 2 7 1 -3 -10 -14 -14 -9 -10 -11 -15 -16 -14 -19
17 20 12 4 4 6 10 8 6 9 10 8 -6 -4 0 6 7 11 13 14 13 11 8 6 4 2 3 2 1 0 1 -1 -5 -9 -14 -16 -14 -7 -4 -7 -7 -8 -10 -10 -3 2 1 -6 -11 -14 -14 -17 -16 -15
11 12 7 -0 0 4 7 9 3 3 9 6 8 6 5 6 9 13 10 9 6 3 2 2 -1 -7 -14 -9 -12 -4 -7 -13 -12 -13 -16 -18 -14 -12 -20 -21 -19 -18 -19 -20 -19 -14 -5 -14 -10 -16 -18 -17 -21 -23
11 9 6 5 7 6 5 7 7 3 -1 2 -0 1 -1 3 4 8 6 4 2 -2 -0 -5 -8 -17 -9 -15 -19 -18 -13 -8 -14 -14 -15 -19 -23 -23 -23 -23 -23 -25 -26 -25 -26 -24 -23 -24 -24 -24 -22 -20 -17 -16
5 -4 4 3 6 11 9 -3 -4 -2 -4 -5 -4 -5 -6 -9 -11 -1 3 -2 -1 -6 -10 -16 -12 -8 -14 -14 -16 -15 -12 -16 -15 -13 -11 -14 -17 -21 -21 -20 -24 -25 -24 -26 -28 -26 -26 -25 -27 -28 -29 -26 -25 -24
1 -3 -5 0 5 5 10 6 -1 -2 -2 -4 -4 -7 -16 -14 -10 -4 -1 -10 -12 -14 -13 -14 -14 -13 -12 -15 -16 -18 -17 -21 -18 -6 -5 -6 -13 -13 -20 -24 -25 -25 -23 -25 -25 -26 -25 -25 -28 -30 -30 -32 -31 -31

GFSWCAN_sfc_dewp_066.txt.gz
Dewpoint
44 45 44 44 44 44 44 44 47 46 45 44 44 43 43 43 43 42 40 42 41 39 40 45 42 37 36 35 32 36 38 40 36 32 30 30 28 33 31 33 32 32 30 25 24 21 24 31 29 22 27 34 34 33
44 44 44 44 44 43 43 46 46 45 44 44 43 43 43 43 43 43 40 43 48 42 41 44 42 43 39 37 35 41 36 40 40 37 34 34 31 32 32 30 33 31 33 32 31 31 35 33 30 30 33 35 37 37
43 43 43 43 43 44 46 45 44 44 44 43 43 43 43 43 43 43 42 43 44 40 40 42 41 44 47 47 45 41 42 44 43 44 40 39 33 35 31 31 35 33 35 31 31 33 34 36 38 37 38 38 39 39
43 44 44 44 45 45 44 44 44 44 43 42 43 43 43 43 44 43 41 45 43 41 35 41 50 49 50 50 49 44 46 47 45 44 38 37 35 38 34 35 34 35 36 34 33 38 38 39 39 37 37 39 38 34
43 43 43 43 43 43 44 43 43 43 43 43 43 43 44 44 44 43 44 46 45 42 36 38 43 49 50 51 50 45 47 44 41 38 34 36 40 39 37 36 34 37 35 34 32 35 35 35 38 37 37 36 35 31
42 42 42 43 43 43 42 42 42 43 43 43 43 43 43 44 44 43 40 45 46 46 38 33 44 48 51 51 50 46 45 46 44 40 37 41 43 39 33 31 34 36 38 38 34 40 38 37 35 35 34 34 33 32
42 42 42 42 42 42 42 43 43 43 43 43 43 43 43 44 44 41 38 42 47 46 38 33 36 46 48 49 46 45 44 44 43 41 37 40 41 37 30 30 35 39 38 38 37 37 35 34 34 34 33 33 34 33
41 42 42 42 42 42 42 42 43 43 43 43 43 43 43 44 44 41 47 46 45 43 41 32 35 40 46 43 41 43 40 41 41 41 39 35 40 36 34 36 39 36 36 35 35 35 35 34 33 33 33 32 32 31
43 43 43 43 43 43 43 41 43 43 43 44 44 45 44 42 38 41 46 46 47 43 34 33 34 34 44 41 41 39 40 35 40 36 36 39 34 34 38 38 37 37 37 35 35 34 33 32 31 30 30 30 28 28
44 44 44 43 43 44 43 43 44 44 44 45 43 39 34 38 46 46 45 40 40 40 37 34 39 36 41 36 35 36 35 34 34 36 40 34 35 37 37 39 39 38 36 35 33 32 32 31 30 29 28 29 28 28
44 44 44 44 44 43 43 44 44 45 44 39 37 37 42 47 44 39 32 33 34 33 35 36 39 37 41 35 33 34 33 32 32 33 35 33 33 35 37 38 38 36 35 36 35 34 33 32 29 27 27 28 27 26
44 44 43 42 43 43 43 43 44 41 39 40 41 45 44 41 35 32 32 31 31 31 35 36 37 39 36 39 34 33 33 32 31 35 34 31 32 35 36 37 37 36 36 35 34 33 32 29 28 28 28 28 26 22
44 42 43 44 44 44 45 44 44 44 44 44 41 39 36 33 31 29 28 27 31 33 35 35 34 35 35 36 33 34 31 30 33 32 31 30 36 37 37 36 35 35 34 33 32 31 30 30 29 28 26 22 20 19
43 43 43 44 44 44 44 44 44 43 40 35 34 31 31 31 31 32 32 33 33 33 34 34 33 34 33 33 33 31 32 32 28 26 27 30 35 35 35 34 33 32 31 31 30 29 28 27 26 25 22 21 21 18
43 43 44 44 44 44 44 44 44 42 36 32 32 27 28 31 32 32 32 33 33 34 34 33 32 33 32 31 31 31 30 26 23 21 29 33 33 32 32 32 31 31 30 29 28 26 25 24 22 21 21 20 19 19
43 43 43 44 44 44 43 43 41 40 33 32 29 31 32 32 31 32 32 32 34 33 33 33 31 30 30 30 24 24 19 18 27 31 33 33 32 31 30 30 30 29 28 27 26 26 25 24 23 19 18 18 18 17
42 40 45 44 44 43 43 39 36 32 31 30 28 31 31 31 30 31 32 31 34 33 30 27 28 29 31 28 27 29 26 29 30 31 31 31 30 28 28 28 28 28 27 26 25 25 23 21 19 18 15 14 15 17
40 43 44 44 42 41 39 36 32 32 29 30 28 29 28 28 28 29 30 31 32 32 31 29 30 26 25 25 25 29 29 30 31 31 31 31 30 30 30 28 28 27 26 25 23 20 20 19 18 17 16 16 17 17
40 42 44 43 42 37 33 33 33 28 29 31 30 30 29 28 29 30 30 31 30 30 27 24 20 21 22 27 28 29 30 29 27 28 28 30 29 28 27 27 26 25 25 25 24 23 23 22 19 19 19 20 18 17
40 39 41 43 41 34 31 32 34 31 28 28 28 25 26 25 27 27 26 28 26 25 20 19 18 20 22 26 30 30 30 30 27 24 24 25 27 26 25 24 23 23 22 22 22 22 20 19 18 17 17 17 15 14
35 35 35 38 36 34 32 32 31 32 31 27 29 28 26 25 22 21 21 23 19 20 18 20 20 23 25 26 27 27 27 27 26 25 23 22 24 24 23 23 22 21 19 18 16 16 16 15 15 14 12 10 11 12
31 33 30 32 31 31 31 32 32 32 31 30 29 28 25 22 20 20 19 15 15 16 21 21 20 22 21 21 23 24 24 24 23 22 22 21 19 18 18 19 17 16 15 15 14 13 13 14 13 11 10 9 12 10
30 29 25 25 25 25 26 33 29 30 26 26 28 25 22 21 22 20 14 15 15 18 20 22 22 22 20 22 21 22 22 19 18 18 17 16 16 16 15 15 16 14 13 13 14 12 10 10 8 7 6 5 3 2
26 18 14 14 18 15 21 25 30 28 27 25 24 21 21 21 21 15 10 12 15 17 17 18 20 18 18 16 15 16 19 18 16 16 16 13 10 10 10 10 10 10 11 10 8 6 5 2 0 0 -2 -7 -6 -7
16 17 12 9 13 12 11 15 21 22 20 22 21 19 19 21 13 10 9 10 12 12 14 16 15 15 14 13 14 14 15 14 12 11 14 12 10 8 6 5 5 5 6 2 -1 -4 -7 -6 -8 -10 -10 -18 -8 -14
13 18 18 16 20 14 12 8 12 15 17 18 17 18 17 12 7 5 8 12 11 12 12 13 13 11 9 11 10 10 11 11 9 6 7 7 9 8 5 3 2 4 3 -3 -6 -11 -12 -15 -17 -15 -18 -14 -16 -21
11 14 20 19 19 19 10 11 13 10 8 7 9 8 8 2 3 9 13 13 11 11 11 12 11 10 9 9 9 10 9 8 7 6 6 5 5 5 3 -0 -2 2 4 -3 -12 -14 -13 -16 -18 -19 -21 -24 -24 -20
20 17 6 6 6 10 -1 1 3 5 7 10 2 -4 -7 -8 2 11 12 13 11 10 8 7 6 6 5 5 5 5 5 4 4 3 2 0 -0 -1 -2 -3 -4 2 -10 -14 -14 -16 -13 -11 -13 -15 -19 -19 -20 -22
10 12 8 -1 -0 2 4 2 1 4 8 4 -10 -7 -2 4 7 9 11 11 10 7 3 1 -1 -0 1 0 -2 -3 -5 -10 -10 -12 -17 -20 -17 -11 -12 -17 -17 -16 -18 -15 -6 -1 0 -7 -8 -15 -16 -20 -21 -28
10 8 3 -5 -4 -2 1 3 -2 3 8 4 6 4 3 5 7 10 8 7 4 0 -3 -11 -16 -13 -17 -11 -14 -5 -9 -14 -16 -15 -19 -20 -17 -17 -24 -24 -23 -24 -28 -28 -26 -19 -8 -18 -15 -22 -21 -23 -24 -26
5 5 1 0 0 0 5 2 5 2 -1 -0 -1 -2 -4 -1 2 5 3 -1 -1 -2 -3 -10 -11 -21 -14 -19 -21 -18 -13 -12 -19 -17 -16 -19 -23 -24 -25 -25 -26 -29 -29 -29 -29 -28 -27 -28 -31 -32 -29 -26 -26 -29
1 -3 -1 -1 0 2 -1 -10 -8 -4 -4 -7 -6 -9 -11 -11 -13 -5 -2 -6 -8 -11 -16 -20 -15 -12 -18 -20 -23 -23 -17 -20 -20 -17 -14 -20 -21 -23 -24 -23 -27 -28 -28 -28 -29 -29 -29 -30 -31 -32 -33 -32 -32 -33
-7 -8 -7 -2 2 2 3 1 -6 -4 -5 -7 -7 -15 -20 -16 -13 -8 -6 -17 -14 -15 -15 -16 -15 -15 -15 -18 -20 -23 -21 -24 -21 -6 -8 -11 -15 -15 -23 -28 -29 -29 -26 -28 -31 -31 -29 -28 -30 -31 -33 -35 -34 -35

GFSWCAN_sfc_dewp_069.txt.gz
Dewpoint
45 45 44 44 44 44 44 44 44 44 44 46 46 45 44 44 44 39 38 43 39 37 38 40 42 38 34 34 32 37 37 39 39 34 34 33 33 35 35 34 34 33 32 32 30 32 28 33 26 28 34 33 32 35
44 44 44 44 44 45 44 44 44 42 46 46 45 45 44 44 44 41 37 43 43 39 39 44 44 43 39 37 36 38 36 37 39 37 36 36 35 34 34 29 34 34 35 34 33 34 39 34 35 34 35 36 37 36
44 44 44 44 43 43 43 43 41 46 46 45 45 45 44 43 44 41 40 42 40 37 35 38 39 44 45 44 41 39 42 43 42 44 41 40 35 37 34 34 35 35 37 36 35 35 35 37 36 38 36 38 39 39
43 43 43 43 44 43 42 43 44 45 45 45 45 44 44 43 44 41 40 42 41 40 33 37 47 41 48 46 44 45 44 47 46 46 40 37 38 39 37 37 37 36 37 35 35 35 39 39 41 39 39 41 38 35
44 44 44 44 45 45 46 45 45 45 45 45 44 44 44 44 43 42 43 43 43 41 35 36 42 45 51 48 47 46 48 46 45 41 36 40 41 40 39 38 37 38 36 35 35 37 36 34 40 41 39 40 35 33
42 43 44 44 44 44 44 44 44 44 44 44 44 44 43 43 43 41 37 43 43 44 38 33 43 43 50 50 49 46 45 46 46 42 40 42 43 41 37 37 36 38 39 39 37 41 39 37 37 37 38 37 33 33
43 43 43 43 43 43 43 43 44 44 43 43 43 43 43 44 42 39 37 42 44 46 38 33 34 45 49 48 47 46 45 45 45 43 41 42 43 40 35 36 35 39 39 39 38 38 36 35 36 35 35 34 34 32
42 42 42 42 43 43 43 42 42 42 43 43 43 44 44 43 44 42 46 45 44 42 41 32 34 39 47 43 41 44 42 43 42 42 41 41 41 37 37 36 38 37 37 37 36 36 37 34 34 33 33 33 32 31
42 43 42 43 43 43 43 43 43 43 43 43 43 43 43 42 39 41 46 46 47 42 34 33 32 35 44 41 41 39 41 36 41 37 39 41 37 37 39 39 37 37 37 36 35 34 34 34 33 32 32 31 31 30
42 43 43 42 42 42 43 43 43 43 43 43 40 38 34 40 46 46 44 39 39 41 38 34 38 36 41 38 36 37 35 34 34 37 41 37 36 38 39 40 41 40 37 35 33 32 32 32 32 32 31 31 30 29
42 44 44 44 43 42 43 43 43 43 43 42 39 36 42 46 42 38 33 32 34 32 36 37 39 37 40 35 34 35 33 33 34 36 37 35 35 36 38 39 39 37 36 36 35 34 33 33 31 30 30 30 30 27
43 44 44 43 44 44 43 43 43 42 40 40 41 45 44 40 35 33 31 32 33 32 35 36 37 39 36 39 35 34 33 33 32 36 35 33 34 36 37 36 36 36 35 34 34 32 30 29 29 29 28 27 27 26
43 44 43 44 44 45 44 43 43 43 43 43 38 35 34 33 30 28 26 29 31 33 35 35 34 36 35 36 33 33 32 32 35 33 33 32 36 37 36 35 34 34 33 32 30 30 30 29 29 28 26 27 27 26
44 43 44 44 44 44 43 43 42 42 39 34 33 31 32 30 32 32 29 32 33 34 34 35 33 34 33 33 32 32 32 32 30 29 28 33 34 34 34 33 32 31 31 30 29 28 27 25 25 25 25 25 25 23
44 44 44 44 44 43 43 43 42 41 35 31 32 28 29 31 32 32 33 34 33 34 34 33 34 34 32 31 32 32 30 28 28 27 30 32 32 32 32 31 30 29 28 27 26 25 24 24 23 23 24 24 22 21
43 42 42 44 43 43 42 41 41 39 33 32 29 30 31 32 31 31 32 32 33 33 33 34 32 31 30 29 28 27 25 25 28 30 32 32 30 29 28 28 28 28 27 26 26 25 24 23 22 21 20 19 20 19
42 40 44 43 43 42 42 38 36 33 31 30 28 29 28 29 28 29 30 30 33 33 31 32 30 30 32 28 26 28 25 27 30 30 30 30 28 28 28 27 27 26 25 25 25 24 22 20 18 17 16 15 16 17
40 43 43 43 41 40 39 36 33 32 28 30 26 27 27 27 26 27 29 30 32 32 30 27 29 25 23 23 23 28 28 29 29 29 29 29 28 28 27 26 26 25 25 24 23 23 23 23 21 20 18 16 16 17
43 43 43 42 41 37 33 33 34 27 26 28 28 27 28 26 26 26 26 28 29 28 27 23 19 18 20 24 26 28 27 27 25 25 26 27 27 27 26 26 26 25 25 24 23 23 22 22 21 19 19 19 18 18
41 43 43 41 40 33 31 32 35 29 25 26 27 23 24 23 24 24 21 22 23 22 18 16 16 18 20 23 27 29 29 28 26 23 23 24 25 25 25 23 23 23 21 21 21 20 18 17 17 17 18 18 17 15
38 37 40 39 37 34 32 32 31 31 29 26 27 26 24 24 20 19 18 20 16 17 16 18 19 21 24 25 26 26 26 25 25 23 21 20 23 22 21 21 20 19 18 17 16 15 15 14 13 14 15 15 15 15
32 34 33 35 32 32 31 32 32 32 30 28 28 27 23 19 19 18 17 13 13 15 18 19 19 20 20 20 22 23 23 22 22 20 21 20 18 17 17 17 15 15 14 15 13 13 12 12 12 11 11 12 11 10
29 29 26 26 26 27 27 33 28 30 24 25 27 21 20 19 20 17 13 14 14 17 19 20 20 20 19 21 20 20 21 18 16 16 15 15 14 14 13 14 14 13 11 11 10 9 8 7 6 6 6 6 6 5
25 17 14 15 19 18 23 25 29 27 27 25 23 19 19 19 20 14 9 11 14 16 16 17 19 17 16 14 13 16 18 16 14 14 14 11 8 8 7 8 8 8 8 6 5 3 3 2 1 2 1 0 -1 -0
16 17 13 13 13 11 9 13 17 21 21 22 19 16 17 19 12 9 7 9 11 11 13 15 13 14 12 12 12 12 15 12 10 10 11 8 7 6 5 4 4 4 5 3 1 1 -1 -1 -2 -2 -2 -2 -2 -2
12 17 10 13 16 10 12 7 11 13 15 13 14 16 16 11 6 4 7 10 10 10 10 12 12 10 8 10 9 8 9 9 7 5 5 6 7 5 4 3 3 3 4 3 3 1 -1 -2 -2 -2 -1 -2 -10 -4
7 11 16 14 15 14 9 10 12 8 5 6 8 8 8 2 2 7 11 11 9 9 10 11 11 9 8 7 6 7 6 6 5 4 4 3 3 3 3 1 0 2 3 1 0 1 0 -1 -2 -3 -4 -3 -4 -6
16 12 2 3 4 6 0 1 1 2 5 7 3 -3 -3 -2 2 9 10 11 10 9 7 7 6 5 4 4 4 5 5 4 3 2 1 -1 -2 -3 -5 -4 -4 -1 -6 -4 -2 -3 -2 -2 -2 -4 -5 -5 -6 -8
9 8 5 -6 -4 -2 -0 -1 -1 2 6 3 -4 -3 -1 3 5 8 9 9 10 8 5 2 -1 1 1 0 -2 -4 -5 -1 -4 -8 -9 -8 -8 -4 -8 -8 -7 -9 -9 -4 -3 3 0 -0 -4 -7 -9 -9 -11 -13
5 5 -2 -9 -9 -5 -2 1 -2 2 7 5 5 2 1 2 5 8 7 5 2 -2 -6 -5 -6 -5 -8 -4 -5 -4 -7 -9 -8 -7 -8 -8 -6 -5 -10 -9 -8 -10 -12 -9 -8 -7 -6 -10 -8 -12 -13 -13 -13 -13
2 2 -2 -3 -3 1 2 -3 3 2 -3 -2 -3 -4 -4 -0 3 3 1 0 1 -1 -1 -5 -9 -13 -7 -8 -8 -8 -8 -7 -12 -9 -7 -8 -9 -8 -8 -10 -12 -14 -14 -12 -12 -11 -11 -13 -15 -15 -14 -15 -18 -18
-2 -8 -4 -6 -3 0 2 -5 -5 -1 -2 -1 -2 -5 -6 -4 -5 -1 -1 -1 -2 -4 -13 -12 -6 -5 -11 -12 -16 -15 -17 -11 -9 -10 -9 -8 -6 -9 -10 -12 -16 -15 -13 -13 -14 -14 -15 -15 -15 -16 -16 -17 -19 -20
-9 -8 -8 -3 -1 -1 -2 -4 -6 -5 -4 -3 -4 -10 -12 -11 -11 -3 -3 -10 -6 -6 -6 -6 -9 -11 -14 -16 -12 -12 -15 -13 -15 -5 -8 -8 -13 -11 -11 -12 -14 -14 -12 -13 -14 -15 -15 -16 -15 -17 -18 -20 -21 -21

GFSWCAN_sfc_dewp_072.txt.gz
Dewpoint
44 45 45 45 44 44 44 44 46 46 44 44 45 46 47 46 45 43 41 45 39 37 37 37 35 35 35 33 34 35 37 39 40 38 38 37 37 33 28 25 32 34 35 37 36 37 34 32 28 28 32 36 33 34
44 44 44 44 44 44 45 46 46 45 44 44 45 46 46 46 45 43 39 44 41 40 38 42 41 44 44 37 37 40 35 35 37 36 41 37 41 41 33 30 34 34 36 35 34 33 38 34 33 34 36 33 35 35
43 44 44 44 44 43 45 46 45 45 44 44 45 46 46 45 44 43 41 43 42 38 35 37 36 36 40 45 46 38 39 34 39 40 42 42 42 39 39 34 32 35 38 38 36 32 35 38 35 37 34 35 35 37
44 44 44 44 44 43 44 44 43 42 45 45 46 46 46 45 45 42 41 42 39 35 34 32 37 41 42 43 45 45 38 46 42 45 45 43 43 37 37 31 34 33 35 35 35 35 37 38 40 38 37 39 40 39
45 44 42 43 44 43 42 42 43 46 45 46 45 46 45 45 43 42 44 41 37 33 34 32 33 39 43 41 43 44 44 44 46 44 40 40 39 42 43 40 37 36 35 37 37 37 39 34 40 42 40 40 39 38
44 45 45 43 42 42 44 46 46 45 45 45 46 45 45 44 42 40 38 42 39 42 38 35 41 39 40 44 44 43 42 43 44 42 45 40 44 43 43 39 34 35 37 38 37 40 39 40 39 39 41 40 39 37
44 44 44 45 45 45 45 45 45 45 45 45 45 45 44 42 40 35 34 40 42 44 37 34 36 41 42 43 45 44 44 44 44 45 45 44 46 42 43 38 32 38 38 41 40 39 39 38 38 38 38 37 37 34
43 43 43 44 44 44 44 44 44 44 44 44 44 43 41 41 40 39 46 44 42 40 39 34 34 37 47 44 42 46 44 45 45 43 44 44 44 43 41 37 36 38 39 39 39 39 39 37 36 36 35 34 33 32
42 43 43 43 43 43 43 43 43 43 43 43 43 42 42 39 37 40 45 43 46 40 35 34 33 32 44 41 43 44 46 39 44 42 43 44 42 41 41 37 39 39 39 39 38 37 36 36 35 35 35 34 34 32
43 43 42 42 42 42 42 42 43 43 43 42 41 38 34 40 46 45 43 40 39 40 40 34 35 32 40 37 36 40 42 37 34 40 44 42 40 40 40 40 42 40 39 38 37 35 35 35 35 35 35 34 33 32
43 43 43 43 43 43 43 43 43 43 42 40 38 37 42 46 44 39 34 34 35 33 37 37 36 34 40 33 34 38 35 36 35 39 41 40 38 39 39 40 40 40 39 37 37 37 35 36 35 34 33 32 31 30
43 42 43 43 43 43 43 42 41 40 41 41 42 43 43 40 37 33 32 34 33 32 38 37 38 38 38 40 35 35 35 33 33 39 39 36 36 37 37 38 38 38 37 35 35 35 34 34 33 33 32 30 29 28
43 43 43 43 43 43 42 42 43 44 45 44 40 36 37 35 30 29 29 30 32 36 38 37 36 39 40 39 34 34 34 33 35 33 32 33 36 37 35 35 34 34 34 33 31 31 31 30 30 30 28 29 29 28
44 44 44 43 43 43 43 43 43 42 41 37 35 32 34 30 32 34 34 35 39 38 37 38 37 38 35 35 34 34 33 34 33 33 30 34 34 34 34 32 31 30 30 29 28 28 27 27 27 27 28 28 27 27
44 43 43 43 43 43 43 42 42 42 38 33 34 31 32 34 34 33 34 35 35 38 38 38 37 36 34 33 34 33 32 29 29 28 31 32 32 31 30 29 28 27 27 26 25 25 26 26 25 26 27 26 25 25
43 42 42 43 43 42 42 42 42 40 36 34 30 29 30 32 30 31 31 32 34 35 36 37 34 33 33 33 31 29 29 25 27 29 31 30 28 28 27 27 27 27 26 26 26 25 25 24 24 23 23 22 24 23
42 41 43 42 42 41 41 40 39 34 33 32 29 29 28 29 27 28 30 29 33 34 33 35 32 31 35 30 26 27 24 27 28 28 29 29 27 27 27 27 26 26 26 26 26 24 24 21 19 18 19 19 17 18
42 43 42 42 42 41 38 37 36 34 28 28 25 27 26 26 26 25 26 30 33 33 32 29 30 26 25 24 24 28 27 27 28 27 27 28 27 27 27 26 27 26 26 26 25 25 25 23 21 20 18 16 19 20
43 43 42 42 41 37 35 34 35 27 26 28 27 27 28 26 26 25 25 29 30 30 27 25 21 19 21 24 25 28 28 26 24 25 26 28 28 28 28 27 26 26 25 24 23 22 23 23 22 21 21 20 20 20
43 42 41 41 40 35 33 33 36 29 26 26 27 24 23 23 24 23 22 23 23 21 18 17 17 19 21 24 29 28 27 28 26 24 24 26 27 27 26 25 24 24 22 22 21 21 19 19 18 19 20 19 19 18
39 39 39 40 37 36 33 33 32 31 30 27 28 27 25 25 21 18 17 17 16 16 16 19 21 22 25 26 28 28 28 27 26 23 21 21 24 23 22 23 22 21 19 19 18 17 17 17 16 18 20 19 18 18
35 37 36 37 36 35 33 34 33 34 31 30 28 25 23 21 20 19 16 16 13 16 19 19 20 21 20 21 23 24 24 23 23 22 23 22 20 19 19 19 18 18 17 17 16 16 14 14 15 16 16 16 13 12
32 31 31 31 31 32 30 34 31 31 27 27 25 21 20 20 20 16 14 13 14 18 21 21 20 21 21 22 21 21 22 19 17 17 17 17 16 16 16 16 16 16 14 12 12 12 11 8 9 11 11 10 11 10
27 25 23 24 25 24 28 27 28 27 27 23 20 18 18 20 19 14 10 12 15 16 17 18 20 18 17 16 16 17 18 17 15 16 16 13 10 10 9 8 9 9 8 8 8 9 8 8 7 8 8 7 7 6
22 20 21 19 22 21 20 21 21 23 21 20 16 17 17 19 13 10 9 11 13 13 15 16 16 16 13 13 13 14 17 16 13 11 10 9 8 7 6 5 6 7 9 10 8 7 7 7 7 6 5 5 3 3
16 17 16 16 18 17 16 15 16 17 18 15 16 17 17 13 8 7 8 12 12 11 13 15 14 11 10 12 10 10 12 11 8 6 6 8 9 10 9 8 7 6 8 9 8 7 5 5 4 3 3 2 -0 2
12 14 15 11 13 15 15 14 13 12 11 10 12 11 10 5 5 7 11 11 10 11 12 14 13 11 9 8 7 7 7 7 6 4 4 4 5 6 8 7 4 5 7 7 7 6 5 4 3 2 2 3 3 1
16 12 7 8 7 7 5 5 5 6 7 8 8 4 2 3 4 9 10 12 12 11 9 9 9 8 7 7 8 7 7 6 6 5 4 4 3 4 3 4 2 2 4 4 5 5 4 3 2 1 0 0 -1 -1
12 12 7 -2 2 3 2 2 3 4 6 7 5 2 2 4 9 11 11 12 14 12 9 7 7 8 6 5 6 6 8 10 4 0 0 2 3 2 3 3 3 3 4 4 2 3 1 1 -1 -1 -3 -1 -1 -1
9 12 4 -0 -2 -1 3 5 4 8 8 8 5 3 3 5 8 12 11 11 9 7 6 6 6 7 6 5 4 3 4 5 5 5 2 1 2 2 3 2 2 2 3 3 2 1 -1 -1 -1 -2 -3 -3 -3 -4
14 11 5 4 2 6 8 9 9 8 7 6 7 4 2 5 8 8 7 8 7 6 6 4 4 6 5 4 4 3 2 3 1 1 2 3 2 3 2 1 1 2 1 0 -0 -1 -2 -1 -2 -5 -6 -7 -9 -8
12 9 5 2 5 9 10 10 9 7 8 7 6 8 7 6 2 5 5 8 7 5 0 5 5 3 2 1 1 1 -2 2 2 1 1 2 2 1 1 0 -1 0 -0 -1 -2 -2 -7 -8 -4 -6 -6 -8 -10 -11
12 12 10 9 7 7 9 10 7 6 8 6 5 3 2 3 -0 4 4 3 7 8 6 6 5 3 0 -1 1 1 -1 1 -3 0 -1 -2 -4 -2 1 1 0 -1 -5 -2 -2 -4 -11 -12 -8 -10 -10 -11 -11 -11

GFSWCAN_sfc_dewp_075.txt.gz
Dewpoint
44 44 44 44 44 44 45 46 45 45 45 45 46 45 45 47 47 45 43 46 39 33 33 32 35 32 33 34 31 30 36 38 40 37 37 32 32 23 21 16 23 36 35 38 37 38 34 32 31 29 33 35 33 33
44 45 44 45 44 44 44 45 45 45 45 45 46 45 46 47 46 45 42 45 43 40 38 43 42 43 37 35 32 34 35 35 35 35 39 36 40 43 27 26 18 32 34 36 34 34 37 35 33 37 34 35 35 35
45 44 44 44 43 43 43 44 44 44 44 45 45 45 46 46 46 45 43 43 43 41 39 37 37 40 44 44 43 40 40 35 36 39 35 36 36 31 39 33 25 24 26 34 33 31 34 35 37 36 36 37 35 37
45 43 43 44 42 44 45 44 44 44 45 45 45 45 46 46 45 44 41 42 41 36 35 31 35 38 37 42 42 44 45 44 41 37 44 41 41 27 35 28 29 27 29 32 31 30 31 36 39 39 37 38 36 37
46 43 42 43 43 44 45 45 45 45 44 45 45 46 46 45 44 45 43 42 39 32 34 31 35 35 40 41 41 41 43 45 44 44 44 40 33 30 33 33 32 27 28 34 35 35 36 35 38 40 40 39 39 39
45 44 43 43 43 43 44 44 44 44 44 44 45 46 45 44 44 40 37 42 37 40 37 34 39 33 35 39 40 40 42 45 44 37 43 36 32 33 42 34 29 26 26 32 33 36 40 42 39 40 41 41 40 40
45 45 45 44 43 44 44 44 44 44 45 45 46 45 44 43 39 36 37 38 39 38 38 34 35 39 34 34 37 40 42 43 45 44 42 39 38 38 44 38 24 26 28 29 35 40 39 39 38 39 39 38 39 38
44 44 44 45 45 45 45 45 45 45 46 45 43 43 43 42 43 41 45 41 43 37 37 33 34 37 41 39 37 39 42 44 43 43 44 42 43 45 38 32 30 29 33 38 40 41 40 40 38 37 37 36 36 35
43 44 44 44 44 44 44 44 44 44 43 43 43 43 42 41 38 42 44 42 41 36 34 33 33 31 37 41 41 43 44 41 41 42 41 42 42 40 38 35 33 34 34 35 38 38 37 38 37 36 36 36 35 34
43 43 43 43 43 43 43 43 43 43 43 42 41 38 36 42 44 42 40 38 37 39 39 35 38 34 36 33 40 42 42 39 35 41 38 41 39 36 40 41 42 42 40 40 39 38 38 37 37 37 36 36 35 34
43 43 43 43 43 43 43 42 42 42 41 38 38 38 42 44 41 39 34 34 35 34 37 35 36 35 39 34 34 39 37 38 35 38 38 36 35 37 40 41 41 41 41 39 39 39 38 39 38 37 36 36 35 34
43 43 43 43 43 43 42 41 41 42 42 41 42 43 43 39 37 34 34 35 33 31 37 36 36 37 38 36 32 37 36 36 35 41 41 35 36 37 38 39 40 40 38 37 37 37 37 35 35 33 32 31 30 29
43 43 43 43 42 42 42 42 43 44 45 44 39 37 37 36 30 30 28 31 33 37 39 39 36 39 38 35 32 35 34 34 38 35 33 32 35 35 35 35 35 35 35 34 33 33 33 32 32 31 30 30 30 28
43 43 43 42 42 42 42 43 43 43 43 38 36 31 34 30 34 34 34 36 38 38 39 38 36 35 35 32 33 32 34 34 33 32 30 32 32 32 32 31 30 30 29 29 29 28 28 27 28 29 29 29 28 27
43 43 43 43 43 42 42 43 43 44 39 34 36 30 31 34 34 34 35 36 35 38 40 39 37 36 33 33 34 33 32 29 30 28 29 30 31 30 29 28 27 27 27 27 27 27 27 27 26 27 28 28 26 26
43 42 42 43 43 43 43 43 43 41 37 34 31 31 30 34 32 31 30 32 33 34 37 39 34 33 33 34 32 29 30 26 27 29 30 28 27 27 26 27 27 27 27 27 27 27 27 26 26 25 26 25 26 26
42 40 42 42 41 41 41 41 39 35 35 34 28 30 30 32 29 27 26 27 31 33 33 34 32 31 35 30 27 28 25 26 28 28 29 29 28 28 28 28 28 29 28 28 28 26 26 26 25 22 22 22 21 20
41 42 42 42 42 41 40 39 36 32 29 29 26 29 29 28 25 24 25 29 32 33 32 29 32 26 26 25 26 27 26 27 28 28 28 29 29 29 29 28 29 28 27 27 25 24 23 23 21 20 20 20 20 20
42 42 42 41 41 39 36 36 35 27 27 29 30 29 28 28 27 27 26 28 31 31 30 28 24 21 23 25 29 29 29 28 26 27 29 30 31 30 30 29 28 26 25 24 23 23 23 22 22 21 21 21 21 22
42 42 41 41 40 37 33 34 36 30 27 27 29 25 24 24 26 26 25 25 26 25 21 19 19 21 24 28 30 28 28 29 27 26 26 28 29 29 28 26 24 23 22 21 21 21 20 19 19 19 20 20 20 18
40 39 40 40 38 37 34 34 31 32 30 27 28 27 26 27 23 21 21 21 19 19 17 21 22 25 28 30 31 33 33 32 28 25 23 24 27 25 25 24 23 21 20 20 19 18 19 18 17 18 20 19 19 18
37 39 37 39 36 36 35 35 34 34 32 29 29 28 25 22 21 20 20 17 15 19 21 21 23 23 22 24 25 27 27 27 27 26 26 24 22 22 22 21 19 19 18 19 17 17 16 15 16 17 17 17 14 12
33 34 34 33 34 34 31 36 32 32 29 28 28 24 23 22 22 17 16 15 16 20 23 21 23 24 22 23 23 24 24 21 20 20 21 21 20 19 18 17 17 17 15 13 12 12 12 10 12 14 14 14 14 13
30 30 29 28 29 27 33 28 28 27 27 25 22 19 19 21 20 16 13 14 17 19 19 22 22 19 19 19 18 19 21 19 18 19 19 15 12 11 10 10 10 11 11 11 12 13 12 12 11 12 11 10 10 9
26 21 25 21 25 25 24 24 24 23 20 21 17 18 19 21 16 13 12 14 16 16 19 19 19 18 16 16 16 16 21 18 15 13 12 11 10 9 8 8 8 10 12 13 12 11 11 11 10 9 7 7 6 5
17 18 17 18 19 19 19 18 18 19 19 16 17 19 21 17 11 10 10 15 15 14 17 18 16 13 12 14 13 13 14 13 11 9 9 10 12 13 12 10 8 8 11 14 13 10 8 7 6 5 6 4 1 4
14 16 15 12 14 16 18 17 16 15 14 13 15 15 14 9 8 10 12 13 12 14 16 17 15 13 11 11 10 9 8 8 8 5 6 6 7 9 11 9 7 8 9 9 10 9 7 6 5 5 5 6 5 3
15 13 9 12 11 11 9 10 9 9 10 10 12 8 7 8 7 12 12 14 14 13 12 12 13 13 11 9 10 10 9 9 9 8 7 7 7 8 7 7 6 5 7 8 8 7 6 6 5 4 3 3 2 3
15 15 8 2 7 8 6 7 7 7 8 11 11 7 5 6 14 13 15 16 17 16 13 12 12 12 10 10 11 11 13 12 8 5 5 6 6 6 7 7 7 7 8 7 4 4 3 3 2 2 0 3 3 3
12 15 8 4 3 4 7 8 8 14 10 10 7 5 5 8 12 16 15 15 12 11 12 13 13 12 10 9 7 7 9 10 12 10 7 6 5 6 6 6 6 5 7 6 5 4 -3 3 3 3 1 2 1 1
17 15 10 8 6 9 12 13 13 12 12 11 11 9 7 9 12 12 12 13 13 13 12 10 10 10 9 9 9 6 5 6 4 5 6 6 6 6 5 4 5 6 5 4 4 3 2 3 3 -2 -3 -5 -7 -4
16 12 9 6 8 12 15 15 12 12 12 10 10 10 11 10 7 10 10 14 12 10 8 9 7 5 6 7 6 6 4 5 5 4 4 5 5 4 4 3 4 5 3 2 2 1 -4 -5 0 -3 -2 -8 -7 -7
16 16 14 12 11 10 13 13 9 9 11 9 9 9 8 9 4 8 10 11 13 11 10 9 8 6 4 4 5 5 4 5 2 2 1 0 -2 1 5 5 4 3 -2 1 1 -0 -8 -12 -4 -6 -6 -7 -6 -7

GFSWCAN_sfc_dewp_078.txt.gz
Dewpoint
43 43 43 44 44 45 45 45 45 45 45 45 45 44 44 45 45 44 43 45 41 38 33 34 37 36 34 32 29 29 32 34 38 35 35 35 34 28 23 18 35 36 36 36 36 35 31 34 33 29 35 40 38 36
43 44 44 45 45 44 45 45 45 45 45 45 45 45 45 45 45 45 42 44 44 40 40 43 39 42 36 34 32 34 32 31 34 36 38 36 37 36 27 25 28 33 34 36 34 35 42 40 37 40 41 42 41 42
44 45 46 45 43 44 44 44 44 44 45 45 45 45 45 45 45 46 43 43 44 41 41 42 38 40 42 43 45 37 35 34 36 41 37 37 36 30 36 31 24 23 34 37 38 34 36 43 45 41 40 41 40 42
45 45 44 44 44 43 42 42 42 44 45 45 45 45 45 45 45 45 43 44 44 41 37 34 37 35 39 41 43 40 39 41 46 45 41 41 39 34 33 32 30 29 29 29 31 32 33 33 40 42 42 43 41 40
45 44 44 44 44 44 45 44 43 45 45 45 45 45 45 45 46 45 45 46 44 36 35 34 37 35 37 37 40 41 41 42 44 42 40 39 37 38 37 34 31 28 27 32 37 37 39 38 40 46 44 39 38 40
45 45 44 43 45 43 44 44 44 45 44 45 45 45 45 46 45 44 38 45 45 47 38 33 36 34 35 35 38 39 40 41 44 43 42 40 39 38 42 35 30 30 31 32 32 39 42 45 41 40 42 44 43 43
45 45 44 44 45 44 44 44 45 45 45 45 45 46 45 45 44 40 38 43 46 43 36 35 32 35 35 37 37 37 39 41 43 44 41 41 39 36 43 35 27 29 28 27 32 32 43 41 40 40 40 38 40 40
45 45 45 44 45 45 45 45 45 45 45 45 45 45 44 44 44 42 43 43 43 35 34 33 32 37 40 36 36 37 37 41 42 42 44 41 40 42 36 31 33 32 30 31 41 42 41 40 39 38 37 37 37 37
44 44 45 44 45 45 44 45 44 44 44 45 44 44 43 44 41 42 43 43 44 40 35 33 33 32 37 38 37 39 40 36 43 40 40 41 40 37 35 33 32 31 31 30 31 39 39 39 37 37 36 36 36 35
44 43 43 44 43 43 43 43 44 43 43 43 41 38 34 41 42 40 40 38 36 38 40 35 36 34 36 35 36 39 40 37 35 38 42 38 38 36 35 38 43 42 41 41 41 39 39 38 38 38 37 36 36 34
44 44 43 43 43 43 43 42 42 42 43 43 39 38 41 44 42 39 33 33 33 33 35 35 36 34 38 34 33 40 36 38 33 36 36 37 35 38 42 41 42 41 41 40 40 39 40 41 39 37 34 33 33 31
44 43 43 43 43 44 44 44 44 44 42 42 41 42 43 39 36 34 32 33 32 29 35 36 36 37 37 39 35 35 36 35 32 38 38 32 35 37 39 40 40 38 38 38 37 36 35 35 33 32 30 29 29 28
43 43 43 42 42 42 42 43 44 44 44 41 38 37 37 34 29 31 26 28 32 36 38 38 35 38 35 36 33 33 33 33 38 36 33 31 33 33 33 34 34 34 34 33 32 32 31 31 30 30 28 28 27 26
42 42 42 42 41 41 41 43 44 44 44 38 35 30 31 29 33 33 35 35 37 40 39 38 35 33 32 32 33 32 33 35 32 30 28 30 30 30 29 29 29 29 29 29 28 27 27 27 27 27 27 27 26 25
43 42 42 42 42 42 42 43 44 43 38 34 35 29 30 32 33 32 34 35 34 37 39 38 35 34 32 32 32 33 32 29 29 27 28 29 28 27 26 27 26 26 26 26 26 26 26 26 25 25 26 26 25 24
42 41 41 42 42 42 42 44 44 40 38 32 29 29 30 33 30 28 27 29 31 31 36 36 32 32 32 33 31 29 28 24 25 28 28 27 26 26 26 27 27 27 27 27 27 26 26 25 24 25 25 25 25 25
42 40 42 42 41 41 41 42 38 35 35 32 28 29 30 29 26 25 25 26 30 32 32 33 30 29 35 29 25 24 22 25 27 27 28 28 27 27 28 28 28 28 28 28 27 27 26 26 24 22 22 21 20 21
40 41 42 42 42 41 39 38 35 31 26 28 26 28 26 26 26 25 26 28 30 31 31 29 31 24 22 23 22 24 26 27 28 28 28 29 30 30 30 29 29 28 28 28 27 26 24 23 22 21 21 21 21 21
42 41 41 41 40 39 34 35 35 26 27 29 29 30 29 27 28 27 27 29 31 30 30 27 21 19 22 26 26 27 28 27 26 28 29 30 30 29 29 29 28 27 25 24 24 24 24 23 22 23 23 23 23 22
41 41 41 41 40 37 33 34 35 28 27 29 30 26 26 26 27 27 26 26 24 24 21 19 19 21 23 29 30 29 29 29 27 25 25 27 28 28 27 25 24 23 22 22 21 21 19 19 19 20 20 19 19 19
40 40 40 40 38 36 34 33 30 30 29 27 30 26 26 25 23 22 20 20 20 19 16 22 23 24 28 28 32 33 32 30 27 25 24 24 27 26 25 24 22 21 20 19 19 19 19 18 18 18 19 19 19 17
38 39 38 40 36 35 34 35 32 34 30 29 28 28 24 22 21 20 17 17 16 19 20 21 22 23 23 24 26 28 28 28 27 27 26 24 22 21 21 20 19 19 18 18 17 17 16 16 18 18 17 15 13 13
34 35 36 36 33 33 31 35 32 33 28 27 28 24 23 22 22 24 16 16 18 22 23 23 24 25 23 24 24 25 25 22 22 22 22 22 21 20 18 17 17 17 15 13 13 14 14 13 14 16 16 16 15 13
31 31 29 28 29 27 34 27 29 28 27 25 22 20 20 22 22 18 13 14 18 21 22 24 23 20 20 19 19 20 22 21 20 20 19 15 13 13 12 12 13 14 13 13 14 14 13 14 12 13 13 11 11 11
24 20 24 21 25 25 22 21 23 22 20 21 18 19 20 22 16 13 12 15 16 19 19 21 20 18 15 16 17 19 22 20 17 15 15 13 12 11 10 11 12 13 14 15 13 13 12 12 10 8 6 8 7 7
17 17 17 17 20 19 19 18 19 20 19 18 18 20 21 17 12 11 11 15 14 15 19 18 16 13 13 14 13 14 16 17 14 13 13 14 13 13 11 10 9 10 14 16 13 10 8 8 8 8 7 3 1 5
14 17 16 14 15 18 19 18 17 15 13 14 17 16 16 10 8 11 13 14 13 16 17 18 16 13 11 11 12 12 11 10 9 7 8 8 9 11 13 10 8 8 9 10 11 10 8 7 7 7 7 6 4 5
14 13 10 14 12 13 11 11 9 8 9 11 15 9 7 8 7 12 13 15 16 15 14 15 16 15 14 12 11 11 10 11 10 10 10 10 10 9 8 8 7 9 8 9 8 9 8 7 6 5 4 3 3 4
16 15 9 6 9 8 8 8 8 9 11 12 13 8 5 10 16 14 16 17 19 17 13 13 13 15 13 12 14 15 16 14 10 7 6 5 5 6 8 8 8 10 9 6 7 6 4 4 4 3 2 3 3 4
14 15 9 6 5 4 8 12 13 14 11 10 8 6 6 9 14 17 16 15 14 13 15 15 16 13 10 8 6 7 9 11 12 11 7 5 5 7 8 7 6 7 8 7 7 4 2 5 6 4 2 2 1 1
18 16 11 9 8 11 13 14 15 14 14 13 12 8 6 9 12 14 15 16 15 15 14 11 11 12 11 10 9 6 4 6 6 7 8 8 7 6 5 5 6 7 6 5 4 3 2 2 2 1 -1 -2 -3 -3
17 13 10 7 9 13 17 17 15 13 14 11 10 12 13 11 7 10 12 15 14 12 12 10 7 6 7 7 8 8 6 6 6 6 5 6 5 5 5 4 5 5 3 2 2 1 -1 -1 -0 -1 -1 -2 -3 -5
17 16 15 12 11 13 13 16 11 11 13 11 9 11 10 10 5 9 12 14 16 13 10 8 7 7 6 6 6 6 4 4 2 4 2 1 -2 1 4 5 4 2 0 1 1 -0 -2 -3 -2 -3 -3 -4 -4 -5

GFSWCAN_sfc_dewp_081.txt.gz
Dewpoint
45 44 43 43 43 43 43 43 43 44 44 44 44 44 45 45 45 44 41 44 41 38 36 33 38 37 36 33 29 29 29 31 35 30 30 32 28 32 31 28 33 33 32 31 32 29 29 35 32 29 32 35 35 36
43 43 43 43 44 44 45 45 45 45 44 45 45 45 44 45 44 44 39 44 45 41 39 44 40 42 39 38 35 33 29 30 38 36 33 33 28 29 28 24 33 34 35 35 34 33 40 42 41 43 43 40 38 37
43 44 45 45 45 45 45 46 45 45 45 45 45 45 45 45 45 44 41 42 42 40 40 40 39 36 41 42 46 36 35 31 38 42 38 36 29 33 26 27 25 34 36 34 34 33 32 40 44 39 39 39 39 39
45 45 46 45 44 44 44 44 44 44 45 45 45 45 45 46 45 45 42 43 42 37 34 36 41 40 42 44 44 44 40 42 42 43 40 36 30 33 29 30 32 30 34 34 36 36 36 36 39 37 37 38 41 38
45 45 45 44 45 44 44 45 44 44 45 44 45 45 46 46 45 45 44 44 45 41 34 35 38 40 43 42 41 43 41 40 39 36 35 36 38 36 36 34 32 31 30 33 33 36 35 35 40 41 37 38 41 41
45 45 45 44 44 44 45 45 43 43 44 44 45 45 45 46 46 43 39 44 45 46 37 32 37 38 40 39 38 39 40 40 40 38 36 41 40 39 30 31 33 30 30 30 31 36 41 42 42 41 41 42 42 42
45 45 45 44 45 45 44 43 42 42 44 45 45 45 46 46 44 39 37 43 45 47 38 32 32 38 40 37 37 38 38 39 39 39 37 39 38 40 30 29 31 33 31 31 41 40 40 41 40 40 39 39 40 39
45 45 45 44 45 45 45 45 45 45 45 45 46 45 45 44 45 43 45 45 46 42 40 29 30 35 38 35 33 38 36 38 37 39 39 39 38 39 34 34 33 32 32 36 41 42 41 40 38 37 38 38 37 36
44 45 44 44 45 45 44 45 45 45 46 46 46 45 44 42 40 42 45 46 46 40 30 30 27 27 36 35 37 37 36 29 38 33 36 38 37 34 35 32 32 33 33 32 34 40 40 38 38 37 37 36 35 35
44 44 44 44 44 43 43 44 44 45 45 43 41 37 32 41 44 43 40 37 37 37 35 28 33 28 34 33 32 30 33 30 32 34 39 34 35 38 39 43 43 42 42 41 39 39 39 38 37 35 34 32 30 28
43 43 44 44 44 44 45 45 44 43 45 42 38 36 42 45 42 38 32 30 32 30 32 33 33 30 36 30 32 34 32 32 30 33 32 33 31 39 43 41 40 40 38 37 36 36 38 36 33 30 29 28 27 26
42 42 43 44 44 44 44 44 44 43 42 40 39 43 42 39 35 32 30 31 28 26 31 31 31 35 34 37 31 29 32 33 24 35 29 28 34 34 34 34 34 34 35 34 33 33 32 30 30 29 27 26 25 25
42 42 42 43 43 44 44 44 43 42 42 41 39 35 35 32 26 19 24 22 26 29 33 33 33 34 34 36 32 31 30 29 34 25 26 30 32 31 31 31 30 30 30 29 29 28 28 27 27 26 25 25 25 24
42 42 42 43 43 43 43 44 44 43 41 35 30 28 30 28 30 30 31 30 33 34 33 33 34 33 32 30 32 29 32 33 28 28 26 28 28 28 28 29 28 27 27 27 26 26 26 25 25 25 25 25 24 23
41 42 42 42 42 42 43 44 43 41 36 31 30 26 26 31 30 29 30 32 30 33 34 33 32 32 31 31 31 32 29 27 25 22 24 26 26 26 26 26 26 25 25 25 24 24 24 23 23 23 24 24 24 23
41 41 41 43 43 43 43 44 41 38 34 26 27 26 28 28 24 24 24 26 29 29 32 34 32 31 31 31 29 24 25 19 22 24 25 25 25 26 26 26 26 26 25 25 25 24 24 23 23 23 24 23 23 23
42 40 42 42 42 42 42 40 36 29 31 28 23 26 27 27 22 23 25 25 29 28 32 32 27 25 31 27 21 22 18 22 23 24 26 26 26 26 27 27 26 25 25 25 24 24 24 24 24 22 21 22 21 21
41 40 42 42 42 41 38 38 30 29 24 27 24 24 25 25 23 24 25 27 29 29 30 27 29 22 19 19 19 23 24 26 26 26 27 27 28 28 28 26 26 26 26 26 25 25 24 22 21 20 21 20 19 18
41 41 41 41 41 37 31 31 32 24 26 28 28 29 27 26 25 25 25 27 30 29 28 24 18 16 17 25 23 25 26 26 24 25 26 27 27 26 26 26 26 25 25 25 24 23 23 23 22 22 20 19 18 18
41 41 41 41 40 34 30 31 34 28 26 27 27 24 24 22 23 22 21 21 22 23 20 18 17 19 21 26 27 26 26 27 24 22 23 24 26 25 25 24 23 23 21 20 19 18 17 17 16 16 16 15 15 16
40 40 41 40 37 35 33 32 29 31 30 26 29 26 24 22 17 15 16 18 15 17 16 20 20 22 26 29 31 29 28 27 25 23 22 21 24 23 22 22 22 20 18 17 16 16 15 14 14 14 14 13 12 13
39 39 37 38 34 34 32 33 31 32 30 28 27 26 21 18 18 17 15 14 16 18 20 20 21 21 21 22 25 26 26 26 25 24 24 22 20 19 19 19 16 15 15 15 15 14 16 15 12 11 9 9 10 10
36 36 34 32 31 30 30 33 30 31 27 26 28 23 21 18 21 20 14 16 18 21 22 21 21 22 21 22 22 22 23 21 20 20 20 20 19 18 16 14 14 13 11 12 13 12 11 10 11 11 10 8 7 5
32 27 25 26 27 26 29 26 30 28 27 25 22 19 20 22 22 15 10 13 18 20 21 21 20 19 19 19 18 18 20 20 18 18 18 16 14 13 13 13 13 13 13 12 12 10 9 7 4 4 2 2 0 0
14 13 19 18 20 23 22 21 20 21 16 19 17 16 19 23 15 13 11 13 13 16 17 19 18 17 14 14 14 16 20 18 15 14 16 14 12 12 12 13 13 13 13 10 7 5 3 0 -2 -2 -2 -3 1 -2
11 14 13 15 16 16 18 15 17 16 17 16 18 21 19 11 5 5 9 11 11 13 15 14 12 10 9 11 10 12 13 16 14 9 10 13 12 11 9 7 7 9 14 9 4 -0 -0 0 -2 -4 -5 -4 -6 -6
9 13 16 15 15 18 14 13 14 9 6 7 12 9 11 2 1 9 12 13 12 14 14 14 13 11 9 9 11 12 12 11 10 8 8 8 8 9 9 6 5 8 9 8 6 2 -1 -3 -1 -2 -7 -12 -12 -13
12 10 4 12 7 10 6 6 5 4 6 11 12 1 -3 1 2 11 12 14 14 15 14 15 16 14 12 10 10 10 9 10 9 9 9 9 9 8 6 5 6 8 3 3 1 1 -1 -5 -6 -7 -9 -13 -13 -13
15 12 9 -2 2 4 6 5 6 10 10 10 5 2 2 11 12 13 15 16 17 15 12 11 11 13 12 11 11 10 12 12 9 4 2 1 1 3 4 5 7 5 0 1 5 -2 -4 -7 -10 -11 -11 -12 -9 -13
12 14 3 -1 -2 1 4 12 7 6 8 7 8 6 6 8 13 15 14 14 13 12 14 14 13 10 7 5 4 4 6 8 9 7 2 0 1 3 2 -1 -2 -1 1 0 -7 -8 3 -7 -1 -12 -13 -13 -16 -17
18 13 5 5 3 6 6 6 9 12 9 4 3 1 0 4 7 11 13 14 14 12 10 8 7 8 7 6 5 2 1 5 4 4 5 4 1 -1 -4 -4 -3 -5 -8 -9 -11 -15 -15 -12 -14 -14 -15 -17 -18 -19
12 6 1 -1 2 6 12 13 11 7 6 1 1 2 5 3 -0 4 10 12 11 8 9 8 6 5 7 6 6 6 5 2 -0 -2 0 -0 -5 -7 -7 -6 -8 -10 -12 -12 -14 -15 -15 -16 -16 -16 -17 -15 -18 -19
11 8 6 4 3 6 6 13 7 8 8 4 -1 1 1 -0 -4 3 10 14 10 8 6 5 6 6 5 5 2 1 -1 -4 -4 1 -4 -6 -11 -5 -4 -7 -8 -13 -13 -13 -13 -15 -15 -15 -16 -17 -19 -19 -20 -21

GFSWCAN_sfc_dewp_084.txt.gz
Dewpoint
44 44 44 44 44 44 44 44 44 44 44 44 44 45 45 46 46 44 42 44 39 34 37 33 33 35 34 32 29 30 30 30 32 26 25 26 24 29 32 32 34 33 29 25 29 27 27 36 36 30 33 37 38 35
44 43 43 43 43 43 43 44 44 44 44 44 44 44 44 45 46 45 40 43 42 37 37 41 36 36 36 35 35 34 30 28 33 30 29 30 27 29 30 27 30 32 33 31 30 30 36 40 41 41 42 40 40 40
43 44 44 44 45 45 45 45 45 45 45 44 44 44 44 44 45 44 42 42 41 37 35 36 37 35 40 42 44 37 35 33 38 38 36 33 27 32 27 28 28 34 37 34 34 34 36 38 43 42 38 38 38 39
44 45 45 45 45 45 45 45 45 45 44 45 45 45 45 44 44 44 42 42 39 37 31 34 41 38 42 43 44 45 43 42 40 40 34 33 29 35 29 29 29 27 35 33 32 34 36 37 37 36 36 39 39 41
45 45 45 45 45 44 45 44 44 44 44 46 45 45 45 46 45 44 43 43 41 35 31 34 38 41 39 39 41 44 45 41 38 34 33 35 37 36 36 34 28 30 33 34 33 36 36 32 37 39 39 37 39 40
45 46 45 45 45 44 45 45 44 44 44 45 45 45 45 46 45 43 37 42 42 41 36 31 38 40 41 39 41 43 43 42 39 36 34 38 41 38 33 30 31 30 31 33 33 33 37 41 42 42 41 41 41 42
45 45 45 45 44 44 44 44 44 44 45 45 45 45 46 45 44 37 35 40 43 43 35 33 33 40 42 40 41 40 39 40 38 35 33 35 37 38 34 31 34 35 32 35 37 41 40 41 40 40 40 38 38 37
45 45 45 45 44 42 42 43 44 44 44 45 45 45 45 45 43 39 43 43 43 40 37 31 33 35 40 36 33 38 34 36 35 34 34 34 35 35 30 33 34 35 34 34 40 41 40 39 38 38 37 36 33 30
44 44 45 45 45 45 44 44 44 44 45 45 45 45 43 42 39 42 45 44 46 39 31 26 25 29 35 35 35 34 34 30 34 30 31 35 32 30 34 36 37 35 33 34 41 39 38 38 37 37 35 31 29 27
43 44 44 44 44 44 45 45 45 45 45 43 41 37 32 41 45 44 40 35 37 38 32 23 30 30 34 32 33 33 30 26 27 33 36 29 30 32 40 40 38 37 39 38 39 37 37 35 33 31 29 28 27 25
44 44 44 44 44 44 43 43 43 43 44 39 37 33 43 46 41 36 31 31 32 30 31 31 31 31 35 29 30 28 31 27 27 28 31 31 31 36 38 37 37 35 34 34 35 35 34 33 30 28 26 26 25 23
44 44 44 44 44 43 43 43 43 41 40 40 40 42 41 38 34 29 27 30 27 25 30 30 30 32 31 33 28 31 28 31 25 32 27 30 33 34 33 34 35 34 33 33 31 30 30 28 27 26 25 24 24 23
43 43 44 44 44 44 43 43 42 42 43 41 37 34 32 29 21 16 20 26 22 30 30 32 32 32 34 35 30 31 28 27 33 27 25 29 31 32 31 30 30 30 30 28 28 27 27 26 26 25 24 24 24 23
43 42 43 43 43 43 44 44 44 43 39 34 25 25 25 25 27 27 30 31 31 32 29 32 32 32 32 31 31 28 28 32 28 26 26 28 28 28 29 29 27 26 27 27 25 25 25 24 24 24 24 24 23 22
42 42 41 42 43 43 43 43 42 38 33 26 26 22 24 27 27 26 28 30 28 31 33 32 33 33 30 30 31 30 29 27 25 23 24 26 27 26 26 26 25 25 25 24 24 23 23 22 22 22 23 23 22 21
42 41 40 42 43 43 43 41 39 36 31 25 23 22 24 22 21 23 24 25 28 28 32 33 31 29 29 29 26 20 22 18 19 20 24 26 25 25 25 25 25 25 24 23 23 23 23 22 21 22 23 22 21 21
41 38 41 42 43 42 41 37 32 27 25 20 19 24 23 20 18 23 24 25 28 28 31 31 24 22 28 23 17 21 16 19 23 23 25 25 24 24 24 24 24 23 23 23 23 23 23 23 23 21 19 21 21 21
39 38 42 42 42 37 35 33 27 25 22 23 18 18 22 22 20 22 23 26 28 29 27 24 26 21 18 17 15 21 23 25 26 25 26 26 26 26 25 24 25 25 24 24 24 24 23 22 20 19 19 19 18 17
39 40 41 41 39 33 29 30 28 21 22 21 24 26 23 23 23 23 23 26 28 28 26 23 17 15 16 23 22 23 24 23 22 22 23 25 26 25 25 25 24 23 23 23 22 21 22 22 21 19 17 16 15 15
41 41 41 41 39 30 26 29 30 25 22 23 23 20 20 19 19 19 21 22 23 23 18 16 15 17 19 24 25 24 25 25 23 20 20 22 23 23 22 22 21 21 20 20 20 19 17 16 16 16 16 15 12 11
39 39 40 38 34 33 32 29 29 29 29 25 25 25 20 18 15 15 16 19 17 17 15 17 18 22 26 27 27 26 25 25 23 21 19 18 21 21 20 20 20 19 17 16 15 14 13 13 14 13 12 12 11 10
37 38 34 36 32 32 31 32 30 32 26 26 26 25 19 16 14 14 16 14 15 17 19 18 19 20 20 22 23 24 24 23 23 21 21 20 17 17 16 17 16 15 15 15 13 12 12 12 12 11 10 8 7 5
36 35 31 30 28 28 29 34 28 29 23 24 25 20 17 17 19 17 12 15 16 21 21 20 19 21 19 20 20 21 21 19 18 18 17 17 17 17 16 15 15 13 12 12 13 12 11 10 9 8 7 5 3 -0
27 23 24 22 24 24 26 25 29 27 26 23 21 17 19 18 18 12 8 11 14 17 17 17 18 17 17 17 16 17 18 18 17 17 17 15 13 14 14 13 13 12 12 11 10 8 8 6 5 4 2 -0 -2 -4
13 12 14 10 17 19 18 17 17 19 15 17 15 15 20 21 13 10 8 9 11 13 14 13 12 13 12 13 13 13 17 17 14 12 15 15 13 12 12 12 12 11 10 7 4 2 0 0 0 -1 -2 -3 -3 -7
7 12 9 10 10 13 14 7 10 9 9 12 13 17 13 5 1 2 6 9 10 11 12 12 11 9 8 10 9 9 12 15 12 8 11 14 12 10 9 8 7 8 10 6 3 -1 -1 -2 -2 -4 -6 -6 -8 -10
1 3 13 12 12 13 8 7 8 3 -1 1 6 1 0 -5 -2 6 10 11 11 12 13 13 12 10 9 9 10 10 10 10 9 8 8 8 8 9 8 5 3 6 7 4 2 1 -0 -6 -8 -8 -13 -19 -17 -13
8 7 -2 1 2 7 -4 -1 0 1 2 8 5 -5 -9 -7 -1 8 10 13 13 14 13 13 14 12 11 11 11 10 10 10 9 8 7 7 7 6 5 5 6 7 1 -0 -1 -3 -2 -5 -8 -11 -10 -14 -18 -23
5 7 3 -6 -4 -2 4 -1 -1 5 8 7 -8 -5 -2 7 9 10 12 13 15 13 10 9 10 10 9 8 8 9 10 11 5 1 -1 -1 -0 2 3 2 0 -2 -2 -0 5 -1 -4 -7 -10 -12 -16 -15 -20 -24
2 5 -3 -9 -8 -3 1 2 1 -4 4 3 7 5 6 7 10 14 13 12 10 10 10 10 9 8 5 5 4 5 6 7 7 2 -2 -3 -2 -2 -3 -0 -2 -5 -9 -8 -11 -10 1 -9 -8 -17 -17 -16 -18 -20
8 1 -3 -4 -2 1 -0 -7 1 3 -4 -6 -8 -6 -5 2 7 10 10 12 11 9 7 6 5 6 5 5 3 1 1 3 3 3 3 1 -2 -3 -4 -6 -9 -8 -11 -14 -18 -19 -20 -18 -20 -21 -22 -22 -24 -25
-2 -9 -7 -9 -3 0 4 6 -5 -4 -7 -6 -2 -10 -4 -6 -7 2 9 7 7 6 6 6 4 4 6 4 2 1 1 -1 -1 -1 -1 -3 -7 -9 -9 -10 -16 -15 -18 -19 -20 -20 -20 -20 -22 -24 -23 -22 -23 -25
-2 -4 -10 -7 -5 -3 -1 4 -2 1 -1 -9 -6 -6 -7 -9 -9 -1 7 10 6 4 4 5 5 4 2 1 -1 -3 -4 -4 -3 1 -4 -5 -8 -9 -17 -21 -19 -19 -14 -17 -21 -22 -20 -19 -22 -23 -26 -26 -26 -27

GFSWCAN_sfc_dewp_087.txt.gz
Dewpoint
43 43 44 44 44 44 45 45 45 44 45 45 45 45 45 45 46 46 43 44 40 35 36 34 34 33 32 32 29 30 30 30 30 25 22 24 23 25 25 29 31 32 31 30 31 27 24 33 39 31 34 41 38 35
43 44 44 43 43 43 43 43 44 44 44 44 45 45 45 45 45 45 40 44 44 38 37 39 39 37 34 33 33 33 31 30 33 28 27 26 23 25 26 23 33 29 31 32 32 29 34 35 39 41 41 39 40 39
44 44 43 43 44 44 44 44 44 44 44 44 44 44 45 45 46 45 42 42 41 35 35 36 33 36 40 38 41 34 36 33 35 37 33 31 24 27 22 27 28 32 36 35 34 33 34 35 38 43 42 38 38 40
43 43 44 44 45 45 45 45 45 45 45 44 44 44 44 45 45 45 43 43 39 37 30 30 34 32 37 39 43 41 38 43 41 41 34 29 27 32 27 27 31 30 37 35 32 33 33 33 37 39 40 40 40 39
44 45 45 45 46 45 45 45 45 45 45 46 45 45 45 44 44 44 44 44 39 33 27 27 36 35 33 37 39 42 40 40 39 35 34 32 34 33 34 34 31 30 29 31 28 32 32 33 34 40 39 39 40 39
45 46 45 45 45 42 44 45 44 44 45 46 45 46 45 44 44 42 34 43 41 40 33 29 35 37 40 40 40 40 41 40 41 38 35 36 38 35 29 29 31 30 31 34 33 34 36 39 41 41 41 42 43 42
45 45 45 44 43 44 44 45 45 44 44 45 44 44 45 44 44 37 34 40 43 41 35 30 33 37 40 39 39 40 41 41 40 38 35 34 36 37 32 28 32 33 32 32 36 39 39 39 39 39 38 36 36 34
45 45 45 43 42 43 43 44 44 44 45 44 44 45 45 45 42 40 42 43 41 39 37 29 32 35 39 37 36 40 38 39 38 37 36 34 33 32 28 32 32 31 32 33 35 36 39 41 39 37 34 31 29 27
44 45 45 44 44 44 44 44 45 45 44 45 45 44 43 40 38 41 44 42 43 39 30 30 28 28 38 36 38 36 37 32 33 31 32 33 29 28 31 32 39 39 38 38 38 39 39 38 37 34 31 29 26 25
44 44 44 45 45 44 44 44 45 45 45 43 41 37 32 41 44 44 41 36 37 38 34 28 33 31 35 33 32 32 28 26 28 32 34 30 29 33 38 40 37 36 35 35 37 37 35 33 31 28 27 26 25 24
44 44 44 44 44 43 43 43 43 44 43 41 36 36 42 43 39 35 31 31 32 30 32 33 32 32 34 29 31 28 30 27 25 26 28 29 28 32 37 37 35 34 33 32 33 35 34 31 28 26 25 24 24 23
44 44 44 44 44 43 43 43 43 40 39 40 40 43 41 37 33 30 27 30 27 26 29 31 30 32 33 30 29 31 25 30 24 30 30 26 31 34 34 34 33 33 32 30 29 28 27 26 25 24 24 23 23 23
43 43 43 43 43 44 44 44 44 44 43 39 37 33 33 29 21 19 22 26 25 25 29 32 30 32 33 32 28 28 26 25 31 30 26 29 32 31 31 31 30 29 29 28 27 26 26 25 25 24 23 23 23 22
42 42 43 43 43 43 43 43 44 41 38 32 25 20 18 17 24 24 27 30 30 31 31 32 31 30 32 29 29 26 25 31 27 22 24 28 28 28 29 29 28 27 26 26 25 25 24 23 23 23 23 22 21 20
41 41 41 42 43 43 42 41 40 35 31 25 25 20 20 25 25 26 27 28 27 30 33 32 32 32 31 26 29 27 27 23 25 23 23 26 27 26 26 26 25 24 24 24 24 23 23 23 22 21 22 22 20 19
41 40 40 42 43 42 42 38 37 35 29 24 21 20 22 21 20 22 23 24 28 28 32 33 31 28 24 26 26 21 20 15 17 21 24 26 25 25 25 25 24 24 23 23 23 23 22 21 20 20 21 21 20 19
40 37 40 42 42 39 39 35 30 27 25 20 19 22 21 17 19 21 22 23 27 27 30 29 23 21 27 21 17 20 15 19 21 23 25 25 23 23 23 23 23 23 22 22 22 22 21 22 21 19 17 19 19 18
36 37 41 42 40 35 34 31 28 24 21 22 17 18 19 18 17 16 20 23 26 28 26 22 25 19 16 16 16 21 23 24 25 24 24 24 24 24 24 23 23 23 23 23 22 22 21 20 18 17 18 18 17 16
39 39 41 41 36 32 29 29 27 20 20 20 21 20 18 16 19 22 23 25 27 27 25 22 16 14 15 22 21 21 22 21 20 20 21 23 24 24 24 24 24 23 23 22 21 20 20 20 19 18 17 16 13 13
41 39 40 39 36 28 26 27 28 23 18 17 17 16 17 18 19 20 21 22 23 21 16 14 14 16 18 23 24 23 23 23 21 18 18 20 21 21 21 21 20 20 19 19 19 18 17 16 16 15 14 13 11 10
36 36 38 35 32 32 32 26 27 25 23 21 20 21 18 19 15 15 17 19 16 15 14 16 16 22 23 24 25 24 23 23 20 19 17 17 20 20 19 19 19 18 16 15 14 14 14 12 12 12 10 9 9 8
35 37 32 34 31 31 30 32 28 30 25 25 25 23 19 14 13 14 15 14 14 15 17 16 17 19 19 19 21 22 21 21 21 19 20 19 16 16 16 17 16 15 14 14 13 12 11 11 10 9 7 6 6 5
33 32 29 28 26 26 28 33 27 28 23 24 23 18 15 13 16 14 11 12 13 16 17 18 18 19 18 19 19 19 20 19 16 16 16 16 16 16 15 15 16 14 12 12 12 10 9 8 6 4 3 1 -1 -3
25 21 21 20 23 22 27 24 28 24 24 23 20 17 17 15 15 11 7 9 12 15 13 13 16 15 16 15 13 15 17 18 16 16 16 14 12 13 13 12 12 12 11 11 9 8 6 5 3 1 -2 -5 -6 -8
14 12 13 10 17 16 13 12 12 17 13 16 13 14 17 17 10 7 4 7 9 10 11 13 12 12 10 11 12 12 16 16 14 12 14 14 13 11 10 10 10 10 10 7 4 2 0 1 -0 -2 -4 -6 -7 -11
6 10 9 10 11 11 11 4 5 5 4 6 8 12 8 3 -1 0 4 7 8 9 10 10 10 9 7 9 8 8 10 15 12 8 10 14 12 10 9 7 6 6 7 5 3 0 -1 -2 -3 -5 -8 -9 -11 -15
-1 -0 10 8 10 10 4 5 7 2 -0 -2 1 -5 -7 -11 -6 4 10 10 10 11 12 12 11 9 8 8 9 10 10 10 9 8 8 8 8 8 8 5 4 5 6 3 1 -0 -3 -7 -9 -11 -16 -21 -20 -15
6 5 -3 -1 0 5 -5 -3 -2 -2 1 6 1 -7 -9 -9 -2 8 9 12 12 12 11 10 10 10 10 10 10 9 9 9 9 7 6 5 5 5 4 3 5 6 -1 -3 -4 -6 -8 -10 -11 -13 -13 -16 -21 -27
0 2 1 -9 -7 -2 1 -5 -2 3 6 4 -12 -9 -3 5 7 7 11 13 13 11 9 8 8 9 8 8 8 8 9 8 2 -1 -2 -1 -1 0 1 -1 -1 -2 -3 0 4 -4 -7 -11 -12 -13 -17 -17 -26 -29
-2 2 -6 -12 -8 -4 -4 -5 -6 -5 2 3 6 4 4 5 8 13 11 10 8 7 8 8 8 7 5 5 4 3 4 5 5 1 -3 -4 -3 -2 -6 -4 -4 -8 -7 -4 -4 0 0 -11 -11 -20 -18 -21 -24 -24
1 -3 -6 -5 -3 -2 -7 -12 -6 -4 -9 -9 -13 -9 -4 -0 2 8 8 7 7 5 5 3 3 5 5 4 2 -0 -1 1 2 2 2 1 -1 -5 -8 -10 -11 -10 -9 -9 -15 -19 -22 -23 -26 -26 -24 -25 -26 -26
-8 -13 -9 -8 -3 0 0 -7 -10 -11 -13 -10 -10 -16 -10 -12 -13 -6 6 2 3 2 3 1 -0 -1 0 1 -0 -1 -1 -3 -3 -3 -3 -4 -6 -8 -8 -10 -14 -13 -14 -17 -22 -22 -22 -22 -24 -25 -26 -25 -27 -28
-9 -11 -14 -10 -5 -4 -2 1 -0 -3 -7 -8 -7 -9 -11 -14 -12 -5 1 4 -1 -1 0 0 -0 -2 -4 -4 -4 -5 -5 -6 -3 0 -3 -4 -8 -9 -13 -19 -20 -18 -15 -23 -26 -25 -23 -22 -26 -26 -28 -29 -29 -30

GFSWCAN_sfc_dewp_090.txt.gz
Dewpoint
42 42 42 43 43 43 44 44 45 45 44 44 44 44 44 45 45 44 41 44 39 34 37 33 33 31 30 30 28 30 32 31 32 28 25 24 23 25 23 21 24 27 30 30 32 29 26 35 39 37 34 40 39 38
43 43 43 43 43 43 44 44 44 44 45 45 45 45 44 45 46 45 40 44 44 38 37 39 37 34 32 32 30 32 31 31 33 30 27 25 23 23 25 22 27 27 32 30 33 32 35 34 34 37 42 40 40 39
42 42 43 43 44 44 43 43 44 44 44 44 44 45 45 45 45 45 42 43 42 34 35 37 35 36 40 38 37 32 33 34 36 39 36 31 24 26 20 24 26 28 33 32 33 32 33 34 36 38 39 40 43 40
43 43 44 43 43 44 44 44 44 44 44 44 44 44 44 45 45 44 42 43 40 37 31 32 38 35 37 39 39 39 35 39 39 39 35 34 27 30 26 24 26 28 32 31 32 34 34 32 34 35 38 42 41 43
43 43 44 44 45 45 45 45 45 45 45 45 45 44 44 45 45 44 43 43 41 35 30 28 34 35 33 36 37 38 39 38 38 36 34 33 35 35 32 32 29 30 27 29 28 32 32 32 35 39 38 40 41 41
45 45 45 45 45 44 44 44 44 45 45 45 45 45 45 44 44 43 36 43 41 39 34 27 33 35 35 33 35 36 36 38 40 37 34 34 36 35 30 26 28 27 29 31 30 35 35 35 39 40 42 38 34 33
45 45 45 44 43 44 44 44 44 44 44 45 45 45 45 44 44 36 33 40 43 42 35 27 25 35 36 34 34 37 37 37 38 38 36 35 34 37 26 28 31 32 33 34 33 34 30 35 39 37 37 35 34 32
45 45 43 42 43 44 43 44 45 45 44 45 45 45 45 45 42 39 42 43 42 39 37 24 22 35 38 33 34 39 36 37 38 36 37 35 35 33 30 31 31 31 31 31 32 34 34 38 36 33 32 31 30 28
45 45 44 44 44 44 44 44 45 45 44 45 45 45 42 39 37 40 44 42 44 38 30 28 20 28 38 36 38 37 38 31 35 32 33 36 33 30 30 30 31 31 35 35 39 39 39 36 34 32 31 29 28 26
44 44 44 44 44 44 43 43 44 45 45 42 39 35 32 40 44 43 40 36 35 37 35 25 33 30 36 34 33 32 34 32 29 32 35 32 30 31 32 33 33 38 37 36 37 37 35 32 29 27 26 26 25 24
44 44 44 43 43 44 44 44 44 43 43 40 37 36 41 42 39 36 30 29 32 29 31 31 32 32 35 31 31 32 31 29 22 25 28 28 26 30 35 36 34 33 33 32 33 31 34 31 26 25 24 24 24 23
44 44 44 44 45 44 44 43 42 41 41 41 40 41 40 37 33 26 23 29 28 25 31 29 32 34 32 35 32 30 28 29 22 29 29 23 27 34 34 33 33 32 30 28 28 27 26 25 25 24 23 23 22 22
43 43 44 44 44 44 44 44 43 43 41 38 34 31 31 28 24 24 15 25 25 28 32 32 30 32 32 31 29 28 25 24 29 29 25 26 30 31 31 30 29 29 28 27 26 25 25 24 24 23 22 22 22 20
42 43 43 43 43 42 41 41 40 39 35 30 25 21 18 10 18 23 25 28 28 30 32 28 30 30 31 29 28 24 22 28 27 23 24 28 28 28 29 29 27 26 26 26 25 24 23 23 22 22 21 21 19 18
41 41 41 42 43 42 40 41 39 33 29 23 23 16 19 24 24 25 27 27 27 30 32 30 32 30 29 28 28 26 26 23 24 16 21 26 27 27 26 25 25 24 24 23 23 22 21 21 20 19 20 20 19 18
40 39 39 42 42 42 39 37 35 32 27 21 18 18 20 20 18 21 21 23 27 27 31 32 29 27 25 24 26 21 20 16 13 18 22 25 24 24 24 24 24 23 23 22 22 21 20 19 18 18 19 19 19 18
39 36 40 42 41 39 37 32 29 26 22 19 17 20 19 17 17 18 19 21 26 27 28 27 22 19 25 19 17 19 14 18 19 20 22 23 23 22 23 23 22 22 21 21 21 20 20 20 19 17 15 16 17 16
37 38 41 41 38 35 34 30 26 23 20 21 16 17 17 17 16 16 20 22 25 27 25 21 24 18 16 15 16 20 21 21 23 23 22 23 23 23 23 22 23 22 22 22 21 21 20 19 16 15 16 15 14 14
38 39 40 39 35 32 29 28 25 17 17 19 17 17 17 17 20 22 23 24 26 25 24 21 15 13 14 20 19 20 20 21 18 19 20 22 24 23 23 23 23 22 21 21 20 19 19 19 17 16 15 13 11 11
39 39 39 37 34 28 26 26 26 19 13 15 17 16 17 17 19 20 20 21 21 19 14 12 12 14 18 22 23 22 21 21 18 16 17 19 21 21 20 20 19 19 18 18 18 17 15 14 15 15 14 11 10 8
34 35 37 34 31 31 30 25 24 20 20 18 19 20 18 18 16 15 15 18 14 13 12 14 15 18 22 22 23 22 22 21 19 18 17 16 19 19 18 19 18 17 16 15 13 12 12 11 11 10 9 8 8 7
32 35 28 31 29 30 28 30 26 26 22 20 22 22 16 13 13 14 14 11 10 11 14 15 16 17 16 17 18 20 20 19 19 18 19 18 16 15 16 16 15 13 13 13 12 10 10 9 9 8 6 6 6 4
28 30 28 27 24 22 27 32 23 27 22 22 23 17 13 12 15 12 10 11 11 14 14 15 17 17 16 18 18 17 19 18 16 15 15 15 15 16 15 15 15 12 11 11 11 9 7 6 5 4 3 2 0 -1
23 20 19 18 21 19 25 22 26 23 22 21 19 14 14 14 14 10 6 8 11 12 12 12 14 14 14 13 12 14 16 17 15 15 16 14 11 11 12 11 12 12 11 10 8 7 5 3 2 1 -1 -2 -3 -4
11 10 12 8 15 13 12 10 11 14 13 14 13 11 13 14 7 5 3 6 8 8 9 12 12 11 10 10 11 11 14 15 13 11 14 14 12 11 10 9 9 10 10 7 5 3 2 1 -1 -2 -3 -4 -6 -9
3 6 5 7 7 6 7 2 3 3 3 4 5 8 5 0 -3 -2 2 6 8 8 8 9 10 8 6 7 7 7 8 14 12 7 8 12 13 10 9 7 7 6 7 6 3 1 -1 -2 -4 -5 -7 -8 -11 -15
-1 2 7 6 8 7 3 4 4 0 -2 -2 -1 -7 -6 -10 -7 3 8 8 8 9 10 11 10 8 7 7 8 9 9 9 8 7 7 7 7 7 8 6 4 5 6 4 3 1 -2 -5 -6 -9 -15 -22 -22 -18
6 4 -6 -5 -2 3 -8 -6 -6 -4 -1 5 -2 -9 -11 -11 -3 6 8 11 11 11 10 9 9 9 8 9 10 10 9 10 9 8 6 5 4 4 3 3 5 7 0 -1 -3 -3 -4 -6 -10 -12 -13 -16 -23 -29
-3 -0 -1 -10 -7 -3 -1 -4 -3 2 3 1 -15 -10 -4 4 5 6 9 12 12 10 7 6 7 9 8 7 6 5 6 7 3 0 -1 -1 -1 -1 0 -0 -1 -1 -0 1 4 -3 -6 -8 -12 -13 -19 -19 -28 -33
-4 -1 -7 -13 -10 -8 -8 -6 -6 -6 1 2 5 4 3 4 7 10 9 8 5 4 4 5 5 4 3 3 2 1 2 3 4 2 -0 -1 -1 -2 -3 -3 -4 -6 -4 -1 -1 -3 -1 -12 -12 -22 -22 -24 -26 -26
-3 -6 -8 -6 -6 -7 -9 -15 -13 -9 -10 -10 -14 -9 -6 -4 1 5 5 5 4 4 2 0 0 -0 -1 -1 -2 -2 -2 0 1 1 1 -1 -2 -3 -6 -9 -11 -8 -8 -6 -10 -15 -22 -25 -27 -26 -24 -25 -26 -26
-11 -17 -11 -9 -4 -3 -7 -16 -17 -15 -18 -15 -12 -18 -16 -13 -14 -5 3 -0 1 -1 -0 -1 -2 -4 -5 -5 -3 -2 -2 -3 -3 -3 -3 -4 -6 -8 -10 -10 -12 -9 -9 -16 -21 -21 -22 -23 -26 -28 -27 -26 -28 -29
-14 -15 -16 -12 -10 -9 -7 -3 -4 -9 -11 -12 -13 -16 -19 -18 -13 -7 -1 1 -4 -4 -5 -6 -8 -8 -5 -5 -6 -7 -6 -7 -4 0 -3 -5 -8 -8 -15 -21 -19 -17 -16 -22 -26 -26 -24 -24 -28 -28 -30 -29 -30 -32

GFSWCAN_sfc_dewp_093.txt.gz
Dewpoint
40 41 41 41 41 42 42 42 42 43 43 44 44 44 44 44 44 43 41 43 38 33 36 35 32 30 31 31 29 32 32 34 34 30 29 26 25 23 21 20 18 28 28 26 27 27 23 36 39 33 39 42 39 41
41 41 42 42 42 43 43 43 43 43 44 45 45 44 45 45 45 44 39 43 43 37 36 40 38 35 32 31 30 33 32 32 34 30 29 28 26 27 24 19 25 22 28 31 33 29 39 38 35 38 42 40 40 43
41 42 42 42 42 43 43 43 43 44 44 44 43 44 45 45 45 45 41 43 41 36 34 37 36 38 39 36 36 31 32 33 36 38 36 32 27 27 26 24 25 26 30 31 31 31 33 35 36 38 38 39 40 44
41 41 42 43 43 43 44 44 43 43 44 44 44 44 45 44 45 45 42 43 40 36 31 34 39 37 38 39 38 38 35 38 37 39 36 34 30 35 28 25 25 24 31 30 30 29 34 34 35 35 38 40 41 42
42 43 43 44 44 44 44 44 44 44 44 44 45 45 45 45 45 45 44 43 42 36 31 32 34 37 38 38 38 39 38 37 37 35 33 32 36 35 34 33 30 29 27 27 27 29 33 33 35 37 41 39 38 40
44 45 45 45 45 45 46 45 45 45 45 45 45 45 45 45 44 43 36 42 43 42 35 29 34 34 36 36 36 36 37 38 38 36 35 36 36 36 31 29 30 30 30 30 28 29 36 36 36 39 40 37 35 36
45 45 45 45 44 43 44 44 44 45 45 45 45 45 45 44 43 38 35 41 43 43 35 30 27 32 36 35 36 36 38 38 38 36 34 35 36 37 32 28 28 31 32 32 33 34 34 31 31 38 37 35 33 31
45 45 42 43 44 44 44 44 44 44 45 44 45 46 45 45 42 39 43 43 41 38 37 27 25 32 36 33 32 37 35 37 37 36 36 36 36 36 31 30 31 31 32 32 33 33 33 33 37 34 34 34 33 32
45 45 44 42 42 43 44 44 45 45 45 45 45 45 44 37 34 39 44 43 44 38 31 29 23 25 37 35 36 36 37 32 38 33 34 35 33 30 32 32 31 32 33 32 37 38 39 38 35 33 32 31 29 28
44 44 43 44 43 44 43 44 45 45 45 45 42 34 32 38 44 43 41 34 35 37 34 28 30 28 35 34 32 32 34 32 28 31 36 32 30 31 33 34 34 33 34 37 37 37 37 35 31 29 29 29 28 26
44 45 44 44 43 43 43 43 43 43 42 38 34 35 41 42 39 36 31 30 32 29 31 30 31 31 36 32 32 34 32 31 27 30 31 30 28 31 35 35 34 33 33 32 32 32 32 36 29 26 25 25 25 24
44 44 44 44 44 44 44 44 44 42 41 40 39 42 41 36 32 29 27 29 26 25 30 30 32 33 34 36 33 32 29 30 25 32 30 25 29 33 33 33 33 32 30 28 28 27 27 27 26 25 24 24 23 21
44 43 44 43 42 43 43 42 42 41 40 37 33 31 31 26 20 16 21 25 26 29 32 32 31 32 33 34 30 30 27 27 31 29 25 27 29 31 30 30 29 29 28 27 26 25 25 25 25 24 23 23 22 20
42 43 43 43 42 41 39 39 39 37 35 28 23 15 15 14 19 21 24 27 28 30 32 32 31 31 32 30 30 26 27 30 26 25 25 26 27 28 28 29 27 26 27 27 25 25 24 23 22 22 21 21 18 17
41 42 41 42 42 41 39 39 35 32 28 22 21 15 15 22 22 23 25 27 27 29 33 32 32 32 29 28 29 27 25 23 25 21 20 24 26 26 26 25 24 24 23 23 23 21 21 20 20 19 20 19 18 16
40 40 39 42 41 39 37 35 34 30 26 18 16 16 17 19 17 19 20 22 26 26 30 33 29 26 25 27 25 21 22 19 17 20 22 24 24 24 23 24 23 23 22 21 21 20 19 18 17 17 17 16 16 15
39 36 40 41 40 36 36 32 29 25 22 18 16 20 18 16 14 16 19 21 25 25 28 26 20 19 24 20 16 19 15 19 21 21 22 22 22 22 22 22 21 21 21 20 20 19 19 19 18 16 14 15 15 14
36 37 40 39 38 35 32 30 26 22 16 18 15 17 19 18 17 18 21 23 25 27 23 21 23 17 15 14 15 20 20 20 21 22 22 23 23 23 23 22 22 21 21 20 20 19 18 17 15 14 14 14 13 12
38 39 39 38 35 32 28 27 25 15 16 18 18 18 19 18 20 21 21 24 25 25 23 20 14 12 14 20 20 20 20 20 18 19 20 22 23 22 22 22 22 21 20 20 19 18 18 18 16 15 14 12 10 10
38 38 38 37 33 28 26 25 25 17 13 16 18 17 18 18 19 19 18 19 18 17 12 11 10 14 16 19 23 21 21 21 18 16 16 19 21 20 20 19 18 18 17 17 17 16 15 14 15 14 13 11 9 8
33 34 35 33 30 29 28 25 21 19 18 18 19 20 18 19 16 14 14 15 12 11 10 13 14 17 19 20 22 22 21 20 19 18 16 16 19 18 18 18 18 17 15 14 12 12 12 11 11 12 11 10 9 8
29 33 28 30 29 28 27 28 25 24 22 21 21 18 15 13 14 14 13 9 8 10 12 12 14 15 16 16 17 19 20 19 19 18 18 18 16 15 15 16 14 13 13 13 12 10 10 9 9 9 8 7 6 5
27 28 26 25 22 20 27 32 22 26 20 21 21 15 13 13 15 11 9 10 10 13 13 14 16 17 15 17 17 17 18 17 15 15 15 15 15 16 15 15 15 12 10 10 10 8 7 6 6 6 6 5 4 2
22 19 17 16 18 14 20 18 23 22 20 20 17 12 13 14 13 9 5 7 10 11 11 12 13 13 13 12 11 12 16 16 14 14 15 13 11 11 12 11 12 12 11 9 8 7 6 5 5 4 3 2 0 -1
10 7 10 6 12 10 8 8 10 12 11 12 11 9 10 14 7 4 2 4 7 7 9 11 11 9 8 9 10 11 14 14 12 10 14 14 12 11 10 9 9 9 9 8 6 5 4 4 3 2 1 1 -2 -3
2 5 5 6 6 6 6 3 4 4 4 4 5 5 6 2 -1 -2 1 5 7 7 7 8 9 7 6 7 6 6 8 13 12 7 7 11 13 12 10 9 7 7 8 8 6 4 3 2 2 0 -1 -3 -5 -5
-4 -2 6 4 6 5 2 2 3 1 -0 -1 0 -4 -4 -8 -5 2 7 7 6 8 9 10 9 8 7 7 8 9 9 9 7 6 6 6 6 7 9 8 6 6 7 7 6 4 2 0 -1 -2 -5 -5 -4 -4
5 3 -4 -3 -1 0 -8 -6 -5 -3 -1 2 -3 -7 -8 -8 -3 5 8 11 11 10 9 9 9 8 7 7 9 10 10 11 11 9 8 6 5 5 5 5 7 7 4 5 4 3 2 -0 -2 -3 -3 -4 -9 -11
-4 -1 -2 -10 -6 -5 -4 -6 -4 -0 2 -1 -12 -7 -2 2 5 7 9 11 11 9 7 6 7 9 8 7 6 5 5 7 7 4 2 2 3 2 3 3 3 4 5 5 6 2 -0 -2 -3 -3 -5 -6 -10 -12
-6 -2 -8 -13 -11 -8 -5 -5 -5 -4 0 3 5 2 2 3 5 8 7 6 4 3 4 5 5 6 5 5 4 3 3 3 4 4 1 -0 0 1 1 2 2 2 4 3 1 1 2 -3 -3 -8 -8 -9 -7 -7
-4 -6 -8 -7 -5 -3 -7 -14 -13 -9 -8 -8 -10 -8 -6 -4 3 4 3 4 4 4 3 1 -1 -1 -1 -2 -1 0 -0 1 2 2 2 2 1 -0 -2 -2 -1 0 0 -2 -3 -4 -5 -6 -6 -7 -6 -7 -10 -9
-11 -17 -10 -9 -5 -6 -7 -13 -16 -12 -10 -8 -9 -13 -12 -9 -9 -2 2 2 2 -0 -1 -1 -2 -3 -2 -2 -2 -2 -3 -2 -2 -2 -2 -2 -3 -4 -3 -4 -3 -2 -2 -4 -4 -5 -6 -6 -7 -7 -8 -9 -11 -11
-15 -16 -16 -11 -9 -9 -6 -6 -6 -10 -11 -10 -10 -16 -18 -13 -12 -2 1 1 -0 -1 -3 -4 -5 -5 -5 -5 -4 -4 -5 -4 -2 0 -4 -4 -6 -6 -7 -7 -6 -6 -6 -6 -7 -7 -7 -9 -10 -11 -12 -13 -13 -14

GFSWCAN_sfc_dewp_096.txt.gz
Dewpoint
38 39 40 40 40 41 40 40 40 40 42 43 43 43 43 43 43 43 40 44 38 33 31 28 28 29 35 33 30 35 32 32 34 30 29 25 24 20 19 18 25 28 29 27 27 27 22 30 38 36 39 40 39 40
40 40 40 41 41 42 42 42 42 43 43 42 43 43 44 44 44 44 38 43 43 36 33 35 33 34 33 29 32 33 30 31 34 31 31 29 27 28 21 19 18 19 21 24 28 27 29 31 38 40 40 38 36 42
40 41 41 42 42 42 42 43 42 42 43 43 44 44 44 44 44 44 41 42 40 36 35 36 33 39 38 37 37 33 32 31 33 37 37 34 28 26 25 22 22 21 24 27 29 25 32 35 38 39 36 35 41 41
41 41 41 42 42 42 42 42 42 43 43 43 43 43 44 45 45 45 42 42 41 36 31 34 37 36 37 38 36 37 34 34 35 38 37 35 32 33 26 26 26 24 24 23 24 24 26 27 31 31 31 38 40 41
40 41 42 43 43 44 44 43 43 43 44 44 44 44 43 43 44 45 44 43 42 35 33 31 36 37 36 36 37 36 36 36 38 36 35 33 32 32 31 31 28 27 25 24 24 26 27 26 28 32 32 37 39 41
42 43 44 45 45 45 45 45 44 44 44 44 44 44 44 44 44 43 34 43 43 42 36 31 33 33 38 37 37 35 36 38 38 36 37 38 37 35 32 26 25 26 27 28 28 29 30 31 32 33 36 37 38 39
43 45 45 44 44 45 45 45 45 45 45 45 45 45 45 44 44 38 37 41 43 42 36 32 30 34 35 37 36 36 37 38 38 36 36 36 33 35 32 28 25 26 27 27 27 28 30 31 30 34 36 36 35 34
45 45 43 43 43 43 43 44 44 44 45 45 45 45 44 44 43 40 44 43 42 39 38 32 30 33 36 33 34 37 35 37 38 37 38 37 36 37 33 29 28 28 28 28 29 31 31 32 31 34 36 38 35 33
44 43 44 43 44 44 44 44 44 44 44 45 45 45 44 38 37 40 44 43 45 39 33 33 30 29 38 33 33 35 34 32 35 34 33 33 31 28 25 25 25 27 29 30 30 33 33 33 37 36 35 36 34 31
44 44 43 43 43 42 44 44 44 44 44 45 40 34 32 36 44 44 40 35 36 38 37 33 33 31 34 34 35 35 35 30 28 30 33 34 29 27 27 27 29 33 34 34 33 33 31 36 36 34 34 33 32 28
44 44 44 44 42 43 43 44 44 44 43 38 33 35 41 43 40 36 32 33 34 31 35 31 32 32 37 33 33 35 32 32 26 27 29 26 24 27 28 30 34 34 34 34 35 35 35 36 37 32 31 31 29 26
44 43 44 45 42 44 44 44 43 42 41 39 40 42 41 36 34 32 31 32 28 25 30 30 31 33 34 38 36 34 32 32 28 34 31 24 31 31 33 33 33 33 32 31 31 31 31 31 33 30 29 27 25 23
43 42 42 43 42 43 42 42 42 42 40 38 36 33 34 32 29 26 22 25 27 30 32 34 33 34 35 37 35 33 30 29 34 31 26 28 28 29 29 29 29 29 29 28 28 28 28 28 29 28 25 24 23 22
42 42 42 42 42 41 41 40 40 38 36 30 32 22 27 25 25 27 28 29 31 33 33 33 33 34 35 33 34 29 32 32 29 26 25 25 25 26 27 28 26 25 27 27 26 26 26 26 25 24 24 22 20 19
42 42 42 42 40 39 38 35 33 29 28 26 25 20 21 24 25 26 29 30 29 30 34 34 34 34 32 31 32 30 28 27 26 24 24 25 25 25 25 26 26 24 24 23 23 22 22 22 21 20 21 21 19 18
40 41 39 42 38 37 36 33 31 28 25 21 20 21 24 25 24 25 26 28 28 27 32 35 32 29 28 31 27 25 26 21 22 23 24 24 25 25 24 24 24 24 22 21 20 20 20 18 16 16 17 16 16 16
39 38 40 41 39 34 35 30 27 24 22 20 20 22 22 22 21 23 24 25 27 28 32 33 28 24 28 24 19 21 20 21 23 24 24 24 24 24 24 23 23 22 22 21 21 20 19 19 19 18 15 16 16 15
38 38 40 39 39 34 30 29 24 20 17 20 18 20 21 22 22 23 24 26 29 29 28 24 25 20 18 15 18 22 23 23 23 23 23 24 25 24 24 23 23 22 22 21 20 19 18 18 16 15 15 15 14 13
38 38 38 38 36 32 27 25 22 16 18 20 21 21 21 21 22 23 24 25 27 27 24 21 16 14 16 20 20 24 24 23 21 22 23 24 24 24 24 23 22 22 21 21 20 18 18 18 17 16 15 14 12 11
38 37 37 36 35 30 25 24 23 18 17 18 20 19 18 20 21 21 20 20 20 18 14 12 12 15 15 19 22 24 24 24 22 20 20 22 23 22 21 20 19 20 18 18 18 17 16 15 16 15 14 13 12 10
36 35 36 36 33 30 29 25 22 20 20 19 21 18 19 19 17 15 15 14 12 11 11 13 15 17 20 21 22 24 23 23 22 21 20 19 22 21 20 20 20 18 16 16 14 14 15 13 13 13 13 12 12 11
32 33 34 34 32 30 28 28 24 25 22 22 22 20 18 16 15 15 13 10 9 10 12 13 15 16 16 17 18 21 21 21 22 21 21 21 19 18 18 19 17 16 16 16 15 14 13 13 13 12 11 10 8 7
27 29 28 28 27 28 28 33 26 26 21 21 20 15 16 16 16 14 9 10 10 14 15 15 17 18 17 18 18 18 20 19 18 18 18 18 18 18 17 17 17 15 13 13 13 13 12 11 11 11 10 9 8 7
20 19 19 19 22 21 23 20 22 21 21 19 15 12 13 15 14 10 6 8 11 13 11 14 14 16 15 14 13 14 17 18 16 16 17 16 13 14 15 14 14 15 14 13 12 12 11 11 10 10 9 8 7 6
16 10 14 11 15 14 13 13 13 15 13 14 11 11 12 15 9 6 4 6 10 10 10 13 12 11 11 13 12 13 15 15 14 12 16 15 13 12 12 12 11 11 12 13 11 11 11 11 10 9 7 7 4 4
6 8 8 9 10 9 9 8 8 8 9 8 8 8 11 7 2 1 2 7 9 9 10 11 11 11 9 10 9 9 11 15 14 10 10 13 16 16 13 11 10 10 11 13 11 10 9 8 7 6 5 4 2 3
4 6 6 4 6 6 6 6 6 6 4 4 5 3 3 -1 -1 2 7 8 8 11 12 12 11 10 9 10 10 11 12 11 10 9 9 8 9 11 13 11 9 9 10 11 11 10 9 7 6 6 5 4 4 3
6 5 1 3 2 2 0 1 1 1 2 3 2 -1 -3 -3 -1 6 8 11 13 12 12 12 11 11 10 10 12 13 13 13 13 12 9 8 8 9 10 10 9 9 11 11 10 9 8 7 5 4 3 2 2 3
5 5 2 -4 -0 1 0 0 1 2 3 4 2 -1 0 3 8 9 10 12 13 13 11 11 12 13 12 11 11 10 11 13 13 9 8 7 7 7 9 11 11 11 11 9 8 8 7 7 6 6 4 4 3 3
4 7 2 -1 -2 -1 3 4 4 6 5 6 4 2 2 5 8 11 11 10 9 9 9 9 10 11 9 9 8 7 8 9 9 10 7 6 6 8 9 9 9 10 11 11 9 7 6 5 4 2 2 2 3 2
7 8 3 2 1 5 6 7 8 7 7 6 7 5 3 6 8 9 7 9 10 10 9 7 5 5 6 5 7 6 5 7 6 6 6 7 7 8 8 8 9 9 8 7 6 5 4 4 4 3 2 1 -0 0
6 3 2 0 2 7 9 9 9 8 9 8 6 7 5 7 3 5 6 9 7 5 3 5 3 2 4 4 5 4 3 5 4 4 4 5 6 5 5 6 7 7 6 5 4 3 3 2 3 2 1 -1 -2 -3
6 7 6 6 5 5 8 8 5 5 6 5 3 2 2 3 -1 4 7 6 6 4 3 3 4 3 2 1 3 3 2 2 0 2 0 -0 -2 2 4 5 4 4 3 4 3 3 1 -1 0 -2 -3 -4 -4 -5

GFSWCAN_sfc_dewp_099.txt.gz
Dewpoint
37 39 38 39 39 40 39 39 40 41 42 42 42 43 43 43 43 43 38 42 39 33 30 28 26 32 33 35 30 33 34 34 36 31 28 24 27 22 21 20 29 30 30 29 26 28 24 23 26 30 38 40 39 36
37 38 39 39 40 40 40 41 41 41 42 42 42 43 43 43 43 43 39 41 43 37 31 34 31 30 29 29 34 32 32 29 36 33 29 32 29 29 23 23 20 27 26 28 28 27 26 27 35 38 41 39 40 38
39 39 39 40 41 41 42 42 42 42 42 43 42 43 43 43 43 44 41 42 42 37 35 34 30 32 36 33 35 31 31 32 32 39 37 35 32 28 27 23 23 25 23 23 25 24 26 28 34 32 38 38 39 38
39 39 39 40 41 41 42 42 43 43 43 43 43 43 43 43 44 44 41 43 42 36 31 29 35 33 32 35 37 35 33 35 37 38 37 35 30 29 28 29 26 25 29 28 25 24 25 24 29 35 37 33 31 37
39 39 40 41 41 42 43 43 43 42 43 43 43 43 44 44 44 44 43 43 41 35 33 32 33 35 34 34 32 35 38 37 38 36 35 34 31 31 30 29 27 25 25 26 25 28 28 28 28 30 30 31 35 38
41 41 41 42 43 43 44 45 44 44 43 43 43 43 43 44 45 43 36 43 43 41 36 30 34 33 35 36 35 36 36 38 39 36 37 34 32 34 32 25 24 25 26 27 25 26 26 27 28 30 30 34 36 39
41 42 43 44 45 45 45 45 45 45 44 43 44 44 44 44 43 36 38 40 43 43 34 33 28 32 34 35 36 37 37 37 38 36 36 34 31 35 34 29 27 26 25 25 26 27 27 27 28 30 30 34 37 37
43 44 45 44 43 43 43 44 45 45 45 44 44 44 44 44 43 39 44 43 43 38 37 33 31 34 36 34 34 36 35 36 38 37 38 35 33 33 30 25 24 24 26 26 26 27 28 30 29 28 30 36 36 35
43 44 44 44 44 44 44 44 44 45 46 45 45 45 44 40 37 40 44 44 44 39 34 35 32 30 35 33 34 34 35 33 35 34 32 31 31 28 25 24 23 24 26 26 29 31 30 31 30 33 35 36 37 33
43 44 44 43 43 43 43 44 44 44 45 46 41 34 32 38 45 43 39 35 37 38 38 32 32 33 35 36 34 35 35 30 29 30 29 31 29 27 25 25 25 26 27 31 32 30 31 34 33 36 35 36 36 32
44 44 44 44 43 43 43 44 44 44 42 38 34 35 40 43 40 37 32 33 35 32 35 30 30 32 36 34 34 35 34 33 27 25 27 26 23 29 28 28 29 35 34 34 34 34 34 35 35 35 34 35 32 28
42 42 43 43 44 44 45 44 44 42 40 38 41 42 41 37 35 33 32 34 30 24 31 31 31 33 36 38 36 35 30 34 26 32 30 24 30 30 31 32 32 33 32 32 32 32 33 32 34 35 34 32 28 25
42 41 42 43 44 44 44 44 43 43 42 39 37 35 35 34 30 29 25 26 29 31 33 35 34 37 37 36 37 34 31 28 34 30 25 28 27 27 28 28 29 29 31 30 29 29 30 31 32 33 29 27 25 24
42 41 40 41 42 43 43 41 40 40 38 34 33 27 31 28 29 30 28 30 34 36 34 34 34 33 36 34 35 28 33 33 27 25 20 26 26 26 28 29 27 26 27 29 27 27 27 27 26 27 26 25 23 21
41 42 41 39 39 39 39 37 35 30 29 30 30 24 24 27 28 29 32 33 32 34 35 34 34 35 34 32 33 33 30 27 29 26 26 26 26 25 25 26 26 26 26 25 25 24 24 23 22 22 23 22 20 19
41 41 38 39 39 37 36 34 31 29 28 25 25 25 28 27 28 29 30 30 30 31 35 35 33 31 31 32 30 28 27 24 23 25 25 24 25 25 24 25 25 25 24 24 23 22 20 18 18 18 18 18 18 17
41 39 40 40 36 37 35 30 28 26 25 24 22 26 27 26 26 27 28 27 30 31 32 34 31 28 31 29 24 23 23 23 24 24 25 25 25 25 25 24 24 23 23 22 21 20 19 19 19 17 15 16 17 16
39 38 39 39 38 33 28 27 26 23 20 24 21 24 24 25 26 26 28 29 31 32 31 27 28 25 23 17 21 24 25 25 25 23 23 24 25 27 26 23 24 23 22 22 21 21 20 18 16 16 15 16 15 15
38 37 39 38 35 30 26 25 24 20 21 23 25 25 24 25 25 25 27 28 29 28 27 24 21 18 19 20 20 23 25 24 23 24 25 25 25 24 24 23 22 22 21 22 22 20 20 19 18 17 16 15 13 13
38 38 38 37 36 29 25 24 24 20 21 21 23 21 21 22 23 24 23 23 22 21 17 15 15 17 17 20 22 23 26 26 25 24 22 23 24 23 23 23 21 21 19 20 20 18 17 16 17 17 16 15 14 13
37 35 37 36 31 30 27 25 23 22 21 20 22 20 21 20 19 18 17 18 15 13 12 15 16 19 21 21 23 24 24 23 24 23 22 21 23 21 20 22 22 21 19 18 17 16 16 14 15 15 15 14 14 13
33 35 37 36 33 30 27 27 24 26 23 23 21 20 20 19 18 16 15 12 11 12 14 15 16 17 18 18 20 22 23 24 23 23 23 23 22 21 21 21 19 18 19 18 16 16 15 15 15 14 12 11 10 10
31 31 30 31 31 29 28 34 28 27 23 22 22 17 18 18 18 16 11 12 13 16 17 17 19 20 19 20 20 20 21 21 20 20 21 21 21 21 19 20 20 18 16 16 17 16 15 16 16 14 13 12 10 9
22 23 23 23 25 23 26 23 23 21 23 20 16 14 15 18 16 13 8 10 14 14 14 17 16 17 17 16 15 15 18 20 19 19 21 18 17 17 18 17 17 17 17 17 17 17 15 14 12 13 12 11 11 10
19 13 19 16 19 18 18 17 17 16 15 15 12 13 14 18 12 9 7 9 13 13 14 15 16 14 14 16 16 16 18 18 16 15 19 18 17 16 15 15 15 17 19 17 15 15 15 15 14 12 11 11 8 8
10 11 12 14 14 13 14 12 12 13 13 11 11 13 16 12 6 5 5 10 12 11 13 14 14 14 12 13 12 12 14 18 16 13 13 16 19 18 16 13 11 12 14 16 15 13 12 11 10 9 8 7 5 6
9 10 9 6 9 10 12 12 10 11 9 8 9 8 9 3 3 5 9 10 11 14 14 14 13 13 13 13 14 14 15 14 13 12 14 14 13 14 16 13 11 12 14 14 14 13 11 10 9 8 7 8 7 7
8 7 5 8 7 7 6 6 6 5 6 6 7 3 1 2 3 9 11 13 15 14 14 14 14 13 13 14 15 16 17 17 16 16 14 13 13 13 12 12 12 12 13 14 14 13 12 11 10 8 7 7 7 7
10 9 5 2 5 6 5 5 5 5 5 8 7 3 3 5 11 12 12 14 16 16 14 14 15 18 16 15 14 14 15 16 16 12 11 11 10 11 14 14 14 13 12 11 9 10 10 10 9 8 6 6 7 7
9 12 6 4 3 4 7 9 9 12 8 8 6 5 5 8 12 14 14 13 13 13 13 12 14 14 13 13 11 10 12 12 12 14 11 9 9 11 12 12 12 14 14 12 10 9 8 8 8 7 6 6 6 5
13 12 7 7 6 9 11 12 13 12 12 11 12 9 7 9 11 11 11 13 13 13 12 10 9 9 9 8 10 10 7 9 8 9 10 11 11 11 11 11 12 12 11 10 9 9 8 8 8 6 5 4 3 3
13 9 6 3 6 10 14 15 12 11 12 11 10 11 10 11 6 9 10 13 11 9 7 8 6 6 7 7 8 8 5 7 7 6 7 8 8 8 9 9 10 9 8 7 7 6 5 5 6 5 4 2 0 -2
12 12 11 9 8 9 11 12 9 9 11 9 8 9 8 7 3 7 10 10 9 7 6 7 7 6 4 4 5 6 4 4 1 2 2 2 1 5 8 8 8 8 5 7 7 5 2 -1 3 -1 -1 -2 -3 -3

GFSWCAN_sfc_dewp_102.txt.gz
Dewpoint
35 38 38 39 39 38 38 38 39 40 40 41 41 41 42 42 41 42 37 42 41 33 30 29 27 27 32 31 28 35 32 31 35 29 27 23 24 23 23 21 32 28 28 27 26 24 21 27 28 29 36 34 37 38
39 38 39 39 39 39 39 40 40 40 40 41 41 42 42 42 42 42 34 38 43 37 30 34 32 30 28 31 33 33 33 32 34 33 32 33 29 30 28 24 29 30 26 28 26 26 31 31 32 37 36 36 36 37
38 38 38 39 39 39 40 41 41 41 41 41 42 41 43 43 42 42 36 37 40 36 35 33 29 30 31 34 35 30 29 27 29 39 36 35 29 32 30 27 31 29 33 30 32 31 34 33 30 32 33 33 33 34
39 38 38 39 39 40 40 41 41 41 43 42 42 42 43 43 43 43 41 42 41 37 30 27 28 32 33 33 32 35 35 34 34 37 35 34 30 30 31 32 32 31 27 26 27 31 31 32 32 33 32 31 34 34
39 39 39 39 39 40 40 41 42 43 42 43 43 43 43 43 43 44 45 44 43 34 29 30 34 34 30 33 32 33 35 36 36 35 34 33 30 32 32 30 28 25 24 25 30 34 32 34 31 29 31 31 36 37
39 39 40 40 41 41 42 42 43 43 43 43 43 43 44 44 43 43 36 42 44 41 35 27 31 33 35 34 34 33 33 35 38 35 36 34 33 33 30 24 24 26 31 30 28 29 27 29 28 27 29 36 36 39
41 41 42 42 42 42 43 44 45 45 45 44 43 43 43 44 43 37 36 41 43 43 33 30 27 30 33 35 37 36 36 37 38 36 35 33 31 34 35 28 26 27 26 25 26 27 27 27 30 31 29 36 38 35
43 43 43 43 44 45 45 43 45 45 45 44 43 43 43 43 43 39 43 43 43 37 35 32 31 31 34 35 34 36 36 37 37 37 36 35 32 34 30 27 25 24 23 24 26 26 31 31 33 28 31 36 36 33
44 44 44 45 45 44 44 43 45 46 45 45 44 43 43 41 35 39 44 43 44 39 33 32 29 28 35 35 36 35 36 33 37 34 32 30 29 28 26 24 25 25 25 24 24 29 30 29 36 33 34 34 36 32
43 44 44 44 44 44 45 44 44 45 45 45 42 33 31 36 44 43 39 36 35 36 38 33 32 33 34 36 36 36 36 31 29 30 29 32 28 27 26 27 27 27 28 32 31 31 33 32 32 36 35 36 36 31
42 43 43 44 44 44 44 44 44 44 44 36 33 35 40 42 40 36 32 32 33 31 34 32 31 32 35 35 34 35 33 33 26 25 28 26 25 32 32 33 33 33 33 33 33 33 33 34 33 34 35 34 31 29
42 43 43 44 44 44 44 44 44 42 38 39 40 42 41 37 34 32 31 32 30 25 31 32 32 34 37 38 35 34 30 32 25 35 32 24 29 28 29 29 30 30 31 31 31 31 31 32 33 35 34 30 27 25
41 43 44 45 45 44 44 44 42 43 42 39 38 34 35 33 29 26 24 26 28 33 34 35 34 36 37 37 34 33 28 26 32 31 24 27 26 26 27 28 27 28 28 28 28 29 29 29 29 29 27 26 25 23
42 42 43 44 44 44 44 43 43 42 40 36 33 29 31 28 29 29 29 31 36 37 36 36 35 34 37 34 33 26 31 32 25 24 23 25 25 25 25 25 25 25 25 25 25 25 25 25 25 25 25 24 21 20
41 41 41 41 41 41 41 40 38 36 31 31 32 25 25 28 30 32 34 34 34 36 36 35 34 34 34 32 32 30 29 25 26 23 25 26 26 24 23 24 24 24 25 23 24 23 22 23 21 21 22 22 20 18
39 38 39 41 41 39 39 38 32 31 31 25 27 26 30 29 29 30 32 30 32 33 36 35 32 30 30 31 29 26 24 21 22 25 26 24 25 25 24 24 24 24 24 23 21 20 19 18 18 18 18 18 18 17
41 35 39 38 39 37 36 31 28 27 25 24 24 28 29 28 27 28 29 28 31 32 32 33 30 29 32 28 25 24 21 23 23 25 24 25 25 25 25 24 24 24 23 21 20 19 18 19 19 17 16 17 17 16
38 38 40 37 35 33 29 29 27 22 21 25 23 24 25 27 27 27 29 30 31 32 33 27 29 27 23 23 21 24 26 27 27 24 23 24 24 24 25 24 24 23 22 21 21 20 18 18 16 15 16 16 15 14
38 38 40 40 38 32 28 27 25 20 23 25 26 27 25 25 26 26 27 29 30 29 28 27 20 18 18 20 19 21 24 24 23 23 24 23 24 24 23 23 22 22 21 22 22 21 20 18 17 16 17 16 14 14
39 39 38 38 37 29 25 25 26 22 23 23 23 23 23 24 25 24 23 23 22 22 17 15 15 16 17 19 21 21 24 25 26 25 25 24 23 22 23 22 21 20 20 19 19 18 17 18 18 17 16 14 13 11
36 35 37 35 31 30 29 25 23 23 23 22 23 21 21 20 19 19 17 17 14 13 12 15 16 18 21 21 23 23 24 23 23 23 23 23 23 20 21 22 23 22 19 19 18 18 17 15 16 16 16 14 14 13
32 35 37 35 32 29 27 27 25 26 23 23 22 21 21 18 17 17 16 12 11 13 15 17 18 18 20 19 20 21 22 25 23 24 25 24 23 22 21 21 20 19 19 19 16 15 14 13 13 13 12 12 12 11
33 32 32 32 30 27 27 34 27 28 23 21 22 18 19 18 18 18 12 13 14 18 19 19 20 21 20 21 18 18 22 20 20 21 21 21 21 22 22 21 20 18 16 16 17 16 14 15 14 13 13 12 11 10
26 25 25 25 25 23 25 23 23 23 25 22 19 16 17 19 18 14 9 12 16 17 16 19 17 20 20 17 15 16 19 22 18 18 22 19 17 18 18 18 18 19 17 17 18 18 17 16 15 13 12 12 11 11
19 14 20 18 21 20 19 19 20 16 17 15 13 15 16 21 13 11 9 11 14 14 15 16 19 14 14 15 15 16 20 17 15 13 19 19 17 16 16 17 18 19 20 18 17 17 17 16 16 14 13 12 10 9
12 12 13 15 16 16 16 14 15 16 14 12 13 15 17 13 7 6 7 11 13 13 14 15 16 15 13 13 12 12 14 19 16 13 14 15 20 18 16 15 13 14 18 19 17 15 14 14 13 11 11 9 9 9
11 12 11 10 12 13 14 14 13 12 11 11 12 11 11 6 4 8 11 12 12 15 15 15 14 13 13 14 15 16 16 15 14 14 16 15 15 16 17 14 13 16 16 16 16 14 12 11 10 9 9 9 9 9
9 10 8 11 10 10 8 9 7 7 8 9 9 6 4 5 5 10 13 14 17 17 15 15 16 14 14 15 16 17 19 17 16 16 15 15 17 16 14 15 14 15 16 17 16 16 14 12 11 10 9 9 9 10
11 10 7 6 7 7 8 7 6 5 6 12 9 5 4 8 13 12 14 16 16 15 13 14 17 19 17 14 14 14 16 15 17 12 10 10 10 13 17 17 15 14 14 13 13 14 12 12 11 10 8 9 9 9
11 13 8 6 5 4 9 13 11 12 9 9 7 6 6 10 13 15 14 14 14 13 13 13 14 13 13 13 10 10 12 12 13 13 9 8 10 14 14 14 14 15 14 12 10 9 11 10 10 9 8 8 8 6
14 13 9 7 7 10 12 15 16 15 15 13 13 9 7 9 11 12 12 15 14 14 12 10 9 10 8 7 8 8 6 9 9 10 12 12 12 11 11 12 14 14 12 11 11 10 9 9 8 6 6 6 5 5
14 9 8 4 7 12 16 17 14 14 14 12 11 11 12 12 7 9 10 14 11 9 7 8 6 5 7 8 8 7 5 5 5 4 4 8 9 10 10 11 11 11 9 9 8 8 7 6 7 7 5 3 4 4
14 14 11 10 9 10 11 15 10 10 12 9 9 10 9 9 4 9 11 11 10 9 7 7 8 7 5 5 6 7 4 2 1 3 2 2 -0 2 9 9 9 8 8 8 7 6 5 4 5 4 3 3 1 1

GFSWCAN_sfc_dewp_105.txt.gz
Dewpoint
34 36 38 39 39 39 37 38 38 39 39 40 40 41 41 41 42 40 36 39 38 34 30 30 30 28 30 31 27 34 31 34 33 27 23 24 24 25 24 23 28 27 21 22 23 18 18 30 31 28 36 36 37 37
36 38 38 39 39 39 38 39 38 39 40 40 41 41 39 40 41 42 35 38 41 36 32 36 34 34 32 29 31 33 33 34 34 31 32 31 27 29 29 25 34 28 28 27 24 23 36 38 38 41 37 34 36 35
38 39 39 39 39 39 39 39 39 40 41 41 40 40 39 41 41 41 36 35 38 35 31 31 28 32 32 32 34 29 32 30 32 36 33 32 29 33 26 29 30 34 36 34 33 34 36 38 39 38 33 33 32 34
39 39 39 39 39 39 39 39 40 40 41 41 41 42 41 41 41 41 39 37 37 36 28 28 31 32 34 33 33 35 32 34 34 33 30 30 28 30 28 28 28 30 35 34 35 36 37 38 38 34 34 32 32 39
39 39 39 39 39 40 39 39 40 41 41 41 41 42 42 42 42 42 41 40 40 34 28 31 35 36 36 35 34 32 32 32 34 33 32 31 33 31 33 32 29 30 32 31 33 37 38 36 33 36 35 36 40 42
39 39 39 39 39 39 40 40 40 41 41 41 42 43 42 43 43 41 35 40 41 39 34 26 34 33 35 36 34 33 34 33 35 36 34 34 34 33 29 27 25 27 28 29 29 33 34 31 33 36 38 39 37 35
38 39 39 40 41 41 41 41 42 42 43 43 43 42 43 43 41 36 34 39 41 41 33 28 29 31 30 31 36 36 36 36 35 35 34 34 32 34 32 26 25 27 28 28 28 28 32 34 34 36 37 35 34 32
39 41 42 43 43 43 42 42 43 43 44 45 44 43 43 43 42 38 40 45 42 37 36 28 27 31 35 34 34 37 36 36 37 36 35 33 33 33 29 30 30 28 26 26 27 33 36 34 36 38 37 35 32 30
41 43 44 44 43 44 44 44 45 45 46 45 44 43 43 41 34 38 42 44 43 38 30 30 26 24 36 35 36 35 36 31 36 32 33 32 29 27 29 29 29 32 32 33 33 34 34 34 34 36 37 34 31 28
42 45 45 44 45 45 45 44 44 46 46 44 41 34 30 35 43 42 39 36 33 34 36 30 31 24 33 34 34 32 33 29 23 30 32 27 27 31 31 32 32 32 32 32 32 32 33 33 34 34 36 35 31 28
44 43 44 44 44 44 44 44 45 45 42 38 33 34 39 43 39 34 30 30 31 29 31 32 31 29 35 30 29 31 27 28 23 26 27 27 28 30 29 29 30 30 30 30 30 31 32 32 34 34 33 30 27 25
42 43 43 43 44 44 44 44 44 40 38 38 39 42 41 36 33 30 28 29 29 25 31 30 31 33 34 37 31 30 24 28 21 31 29 24 27 27 27 27 28 28 27 27 28 29 30 29 30 29 27 25 23 22
42 43 44 44 44 44 44 44 41 41 42 39 38 34 34 32 27 23 21 25 23 29 31 30 31 32 33 34 32 29 24 20 28 20 23 24 26 25 25 25 25 26 26 24 24 25 26 26 27 27 25 24 23 21
41 43 44 45 44 44 44 42 43 43 40 34 32 28 29 25 25 26 27 29 32 32 30 32 28 29 28 28 29 23 23 28 24 20 20 24 25 24 24 24 23 24 24 25 23 22 23 23 23 23 22 22 20 19
41 42 45 44 44 44 43 42 41 40 34 30 28 24 25 28 31 32 33 32 32 31 30 29 30 29 27 25 28 25 25 21 23 16 22 24 25 24 23 24 24 23 24 22 20 16 17 20 19 19 20 20 19 18
40 40 40 41 41 40 39 38 36 33 30 26 25 26 29 28 27 29 30 29 31 32 32 29 29 27 19 23 23 21 20 16 16 22 23 23 24 25 24 24 23 21 16 13 12 14 13 14 16 16 17 17 16 16
40 38 39 38 38 39 38 33 32 28 27 23 23 26 28 26 25 26 28 28 31 32 30 30 25 18 26 21 21 23 16 18 19 21 21 21 21 21 25 22 21 22 18 15 13 13 16 18 16 15 13 14 14 14
37 38 40 39 37 34 32 32 29 24 23 26 21 22 22 24 24 25 27 29 30 30 31 26 28 22 14 16 13 20 21 25 21 19 16 16 18 16 20 17 17 17 18 20 18 17 15 15 13 12 13 13 12 12
37 37 39 39 37 32 28 28 27 21 24 24 25 23 21 20 23 24 23 27 29 25 24 21 12 12 12 16 14 16 19 20 20 21 15 12 14 16 16 18 20 18 18 19 19 18 17 16 15 15 15 13 10 10
40 41 40 40 39 31 26 26 28 23 21 22 21 20 21 22 21 18 19 20 21 20 14 12 11 10 12 15 19 19 21 22 22 21 22 18 16 15 16 18 17 18 18 18 18 18 17 16 15 14 13 11 10 9
38 36 38 38 33 32 30 26 25 25 26 23 22 22 18 18 17 15 15 16 13 11 10 13 13 15 18 19 21 21 21 21 21 21 20 21 20 19 19 22 23 21 18 18 15 14 14 13 14 14 12 11 11 10
34 36 37 36 30 29 28 29 26 27 25 25 24 24 19 14 13 14 15 11 11 12 14 15 16 18 19 18 18 19 21 23 22 22 21 21 20 20 19 19 19 17 17 15 14 12 11 12 12 11 10 10 11 11
35 34 32 31 25 23 26 33 27 27 21 21 23 18 17 15 16 16 11 13 14 17 18 19 19 21 20 20 19 18 20 20 19 19 19 18 17 19 19 19 18 16 14 14 14 12 11 12 12 11 11 10 10 9
27 25 24 24 24 21 24 21 25 24 23 20 18 15 17 17 18 13 8 11 14 16 16 17 17 18 19 17 15 15 18 19 17 17 19 16 15 16 17 17 17 17 16 16 15 14 14 12 12 11 11 10 9 9
14 11 17 12 19 18 16 19 21 18 17 18 16 15 17 22 13 10 8 11 12 12 14 16 15 14 13 13 13 14 15 18 15 12 14 17 15 14 15 16 18 18 19 16 14 14 14 14 12 12 11 10 9 7
8 11 11 14 15 14 16 13 13 13 11 9 12 15 17 10 4 3 7 10 10 12 12 13 14 13 12 13 11 11 12 16 13 11 12 14 17 16 15 13 13 15 19 18 16 14 14 13 12 10 9 9 8 7
5 8 13 13 14 15 13 13 13 9 7 8 9 7 8 -0 -0 7 11 14 13 14 15 16 15 13 12 14 15 15 15 15 14 13 14 14 14 14 13 12 11 15 17 16 14 12 11 10 9 8 8 8 8 7
9 11 3 9 9 11 6 6 4 4 6 9 9 1 -3 -0 2 10 12 14 18 19 17 17 15 14 13 12 13 13 15 14 13 14 14 15 16 15 14 14 15 17 16 16 15 13 12 11 9 9 8 7 7 7
7 9 9 2 4 7 7 5 6 9 10 12 5 2 2 10 12 12 15 14 15 13 12 11 14 15 12 11 10 10 10 12 13 7 6 6 7 11 16 14 12 12 12 12 14 13 12 11 10 9 8 8 8 7
10 14 5 1 -0 2 10 8 3 3 7 7 7 6 6 5 11 14 13 13 10 6 6 8 9 7 6 7 5 5 7 7 7 8 5 5 8 11 12 13 13 11 9 7 7 7 11 7 8 4 5 5 2 2
16 11 4 4 4 6 8 12 13 12 8 5 3 0 0 2 4 7 8 9 7 8 3 -1 3 5 3 2 3 2 1 4 3 2 5 9 9 9 9 9 11 12 10 9 7 4 4 4 0 0 2 1 -2 -3
10 3 -0 -1 5 12 15 13 9 7 8 4 0 2 5 5 -2 -0 5 10 1 -1 -2 -4 -6 -1 0 -2 -2 -0 -1 -2 -0 -1 -2 -2 -2 -1 8 9 7 6 3 3 0 0 -0 1 1 -3 -6 -10 -9 -3
8 7 5 3 2 4 6 9 4 5 4 0 -2 -1 -4 -2 -6 1 3 2 2 -2 -2 -2 -2 -3 -5 -5 1 -4 -7 -11 -8 0 -3 -3 -7 -6 -7 -7 -3 1 2 -3 -6 -7 -5 -6 -9 -8 -7 -12 -15 -15

GFSWCAN_sfc_dewp_108.txt.gz
Dewpoint
36 36 35 36 37 38 37 38 38 38 38 40 40 41 42 42 41 39 35 38 37 33 30 29 29 27 27 29 26 31 27 32 30 22 23 23 23 25 26 24 27 27 24 21 22 16 16 33 35 29 34 36 36 36
36 35 36 38 39 39 37 37 38 39 39 39 39 40 40 40 41 41 36 37 39 35 33 36 36 34 32 30 29 31 29 33 33 27 28 27 27 28 29 24 33 27 31 25 22 22 32 38 38 40 39 34 34 33
35 36 38 39 39 38 39 39 39 39 39 38 39 39 39 40 40 40 37 35 36 34 32 31 29 30 33 33 33 28 31 33 34 35 31 28 25 30 24 26 29 33 35 33 30 34 36 39 39 39 37 32 31 33
36 37 38 39 40 39 39 39 39 39 40 40 40 41 40 40 39 40 39 36 35 33 29 26 32 32 33 33 32 32 30 31 32 33 29 28 25 31 27 27 28 33 35 33 33 35 37 37 40 39 36 35 35 40
36 38 38 39 39 39 39 39 40 40 40 39 39 40 40 41 41 41 40 39 37 31 26 28 32 29 29 34 33 33 33 33 32 31 31 28 31 30 30 32 30 34 32 29 30 36 36 35 37 38 35 37 41 38
38 38 39 39 39 39 39 39 40 40 40 40 40 40 40 41 42 41 35 40 39 39 33 25 31 32 33 35 34 33 33 31 33 32 32 34 33 32 29 28 29 27 26 27 28 31 33 33 35 39 37 36 35 34
38 37 38 39 39 40 40 40 40 40 41 41 40 40 40 43 42 36 32 35 41 39 32 26 26 32 34 30 35 34 35 35 34 33 32 32 31 34 29 26 26 27 28 30 31 33 35 35 37 36 34 32 32 30
37 37 38 39 39 40 40 41 41 42 42 42 42 42 42 43 41 37 40 43 41 37 36 27 25 30 34 32 32 37 36 37 35 34 35 33 33 32 29 31 32 32 33 34 34 36 36 35 38 36 35 32 30 27
38 38 39 40 40 42 42 43 43 43 43 44 44 43 42 40 36 37 43 43 42 37 28 27 25 22 34 34 36 37 37 31 36 32 33 34 30 29 31 30 30 30 30 31 33 33 33 34 34 37 35 32 29 27
39 40 40 41 42 42 44 44 44 44 44 45 42 33 29 35 42 41 37 35 33 33 35 28 29 25 33 31 34 32 34 29 28 30 33 30 29 34 32 30 28 28 28 29 30 30 31 31 33 35 32 31 29 25
40 40 41 41 43 45 44 44 44 45 42 37 33 33 38 42 39 35 29 29 27 28 31 30 29 26 32 27 27 33 25 27 22 25 27 27 28 29 29 29 27 26 26 27 27 29 29 29 29 32 28 27 25 24
41 42 44 44 44 44 44 44 43 40 38 38 39 41 40 36 33 29 26 28 28 25 27 28 29 30 29 34 28 29 23 24 18 30 29 26 25 26 25 25 27 25 25 24 25 24 25 26 28 27 26 25 24 22
43 43 44 44 44 44 44 42 41 42 42 39 38 34 33 31 25 23 22 21 23 25 27 27 28 30 32 32 31 29 19 18 26 16 22 22 24 24 23 24 23 24 24 22 21 22 23 24 24 26 24 23 23 21
42 43 43 44 44 44 43 42 43 43 39 34 31 27 26 23 26 23 24 26 28 26 30 29 30 30 28 25 25 15 21 28 23 14 18 22 23 23 23 24 22 21 23 19 19 19 20 20 21 22 21 21 20 19
44 44 44 44 44 43 42 43 41 40 35 30 27 19 19 28 30 31 32 31 31 28 28 28 28 28 29 24 27 24 23 20 20 13 17 21 23 23 23 23 22 21 17 15 13 10 11 13 16 18 19 19 18 17
42 44 43 44 44 43 41 38 37 33 30 25 22 22 29 27 27 29 29 29 30 30 32 29 27 22 19 18 23 21 21 16 12 15 18 20 21 20 22 21 20 17 13 8 5 7 8 9 11 14 15 15 15 15
39 38 41 40 40 39 38 35 34 30 26 21 21 24 26 24 24 25 27 27 30 31 28 29 24 17 23 23 19 21 10 14 18 16 18 16 18 17 18 18 17 17 13 11 9 12 11 11 11 11 9 11 12 12
38 39 39 38 38 35 35 33 29 26 22 24 19 20 21 21 20 22 23 27 28 30 29 24 25 16 8 10 6 12 18 22 21 19 14 13 14 12 16 12 11 12 13 11 12 12 10 8 10 10 11 12 11 10
39 39 39 39 37 32 31 29 27 22 23 23 23 23 20 17 19 18 20 23 25 23 23 15 6 5 5 10 9 11 14 16 17 19 17 11 10 13 14 14 13 11 12 14 15 15 11 10 13 13 12 11 9 9
40 40 38 38 37 28 25 26 29 23 20 21 22 18 18 18 15 14 16 17 18 16 10 7 4 5 7 10 15 16 18 18 20 18 16 13 11 11 12 15 12 13 17 17 15 16 14 13 12 12 11 10 9 8
38 38 39 38 32 30 26 24 24 24 24 18 21 19 13 17 13 11 11 14 11 10 8 9 10 11 13 16 18 19 19 20 20 21 19 20 16 18 16 18 19 15 13 13 12 12 12 11 12 11 10 9 9 9
34 38 36 34 29 28 27 27 23 24 22 21 22 20 10 8 8 10 15 9 8 10 12 13 14 15 16 15 17 18 19 21 20 19 18 18 17 17 16 16 16 14 14 13 12 10 10 11 11 10 9 9 10 10
33 33 30 28 24 22 23 32 25 25 17 18 21 16 12 11 14 17 9 12 12 16 17 18 18 19 17 17 17 16 18 18 17 17 15 16 16 16 15 15 15 13 11 12 13 12 11 11 11 10 11 10 9 9
25 23 22 21 21 16 23 22 25 23 22 17 14 12 13 13 15 11 7 9 13 15 15 16 16 17 15 14 13 13 14 16 14 15 16 15 14 14 15 15 15 15 14 14 13 12 11 10 10 10 9 8 8 8
13 11 14 10 16 13 13 15 17 17 14 17 13 12 17 19 10 7 6 9 10 10 12 15 13 12 11 11 12 12 14 15 13 11 13 16 15 15 14 16 16 16 17 13 12 11 11 11 11 10 10 8 8 6
6 7 7 7 8 10 14 10 10 9 8 6 9 13 12 4 -1 0 5 7 5 9 9 11 11 11 11 12 10 10 11 14 13 10 11 13 15 14 13 12 12 14 18 17 15 13 12 11 11 9 8 8 7 5
-1 -0 12 13 14 14 8 9 10 4 0 1 2 2 1 -7 -5 5 11 13 12 12 13 14 13 12 10 10 13 14 14 14 13 12 14 13 13 13 12 9 9 13 17 15 14 12 10 9 9 8 8 8 7 6
9 7 -2 3 6 9 2 2 -1 -2 1 9 4 -6 -9 -7 -1 9 10 13 16 16 15 14 13 11 9 9 9 9 11 13 12 13 13 13 14 12 12 12 14 16 15 13 11 11 10 9 9 8 8 7 6 7
-1 5 3 -5 0 4 3 -2 2 6 8 8 -7 -8 -1 8 8 11 9 6 8 9 7 5 8 7 9 8 7 6 6 10 9 5 4 5 6 9 12 11 11 10 10 13 16 12 11 10 9 8 8 7 6 7
2 7 -0 -4 -4 1 2 -3 -5 -8 3 3 6 5 4 3 6 8 8 5 3 -1 -7 -4 -2 1 2 1 -0 2 3 3 1 1 1 1 4 8 9 10 7 4 5 6 7 8 11 8 9 6 4 3 2 2
9 3 -0 1 2 2 -0 -1 1 1 -5 -6 -10 -8 -6 -3 2 5 6 0 -0 -7 -5 -7 -3 -6 -5 -5 -6 -5 -5 -0 -1 -1 0 1 1 2 6 6 6 6 5 3 3 2 0 -1 -0 -0 -1 -1 -4 -4
-5 -10 -7 -3 2 4 2 0 -6 -1 -6 -8 -6 -12 -5 -7 -10 -4 5 -5 -6 -10 -15 -16 -12 -8 -12 -13 -15 -14 -10 -11 -10 -9 -9 -9 -8 -6 -4 -2 -0 -1 2 1 -0 0 0 -1 -2 -5 -8 -9 -7 -9
-0 2 -7 -5 -3 -2 1 0 -4 -1 -6 -12 -5 -9 -10 -11 -11 -4 -2 -8 -7 -8 -10 -12 -15 -16 -12 -10 -14 -16 -16 -18 -14 -3 -6 -8 -13 -13 -18 -16 -12 -9 -7 -8 -11 -9 -8 -8 -12 -13 -15 -18 -21 -22

GFSWCAN_sfc_dewp_111.txt.gz
Dewpoint
40 39 37 38 36 36 37 37 37 37 39 40 39 41 41 40 38 39 34 38 35 32 29 29 29 27 27 27 24 26 23 27 26 26 20 22 23 26 27 24 27 26 24 23 23 15 13 31 33 29 35 38 38 38
38 38 37 38 38 38 36 37 38 38 39 39 39 40 40 38 39 40 36 38 39 35 30 35 35 35 33 31 29 29 26 31 31 26 27 26 24 27 26 22 33 25 30 27 23 21 31 37 38 41 42 36 34 33
38 38 37 37 38 38 37 38 39 39 39 40 39 40 39 40 40 40 35 38 38 34 29 29 27 29 34 35 32 29 30 32 33 35 30 27 23 27 22 26 28 32 35 32 30 33 35 37 39 41 41 38 33 37
39 38 37 37 38 38 38 39 40 40 39 38 39 39 39 39 40 40 38 38 38 32 28 26 30 31 33 32 33 32 29 31 33 34 29 27 25 29 28 27 28 32 35 32 34 35 36 37 36 36 35 39 38 37
38 37 37 37 38 39 39 40 40 40 38 38 38 38 38 40 40 40 41 40 38 31 24 26 31 28 28 30 32 32 31 30 29 31 31 28 30 31 30 31 31 35 28 29 29 33 35 36 37 38 38 37 38 36
37 37 37 38 38 39 39 39 39 39 39 40 38 38 38 40 40 40 34 40 40 38 33 24 29 31 31 33 33 32 32 32 31 29 29 33 34 31 29 27 29 30 32 31 29 36 37 39 38 37 35 33 32 31
37 36 37 38 38 39 39 40 39 39 40 40 40 40 39 40 40 35 31 33 39 38 32 26 24 29 33 33 34 34 33 33 33 33 32 30 30 32 29 24 31 31 32 33 35 36 35 38 36 34 33 31 30 28
37 37 38 38 38 39 39 39 40 40 40 41 41 40 40 40 40 38 38 42 40 36 34 25 24 29 33 30 32 36 34 35 35 34 35 33 33 34 28 32 30 29 30 31 32 33 34 35 36 36 34 31 28 26
37 38 38 38 38 39 39 39 40 41 41 41 41 41 41 39 34 37 43 42 41 35 27 26 24 21 33 34 35 37 37 30 36 31 32 33 31 28 30 28 27 27 28 28 30 30 30 31 31 34 33 31 28 25
38 38 38 38 38 39 39 40 41 42 43 43 41 33 30 35 42 40 38 33 33 34 34 27 28 23 32 32 34 32 33 29 27 31 34 31 29 31 30 29 27 27 26 26 27 27 28 28 29 31 29 27 27 24
36 37 38 39 39 40 41 41 42 43 44 34 32 33 37 41 37 35 28 27 29 27 30 29 28 25 31 27 28 33 27 29 22 25 28 28 26 27 28 27 26 24 24 24 25 25 25 27 28 28 27 26 25 24
36 38 38 39 40 40 41 42 43 41 37 37 38 40 40 36 32 27 24 26 27 23 27 28 29 29 27 32 27 31 27 23 18 30 29 24 23 25 24 23 24 24 23 22 21 22 22 23 25 27 26 25 24 22
39 40 40 40 40 41 43 44 42 41 41 40 37 33 32 30 25 20 18 23 24 25 25 29 30 28 33 33 28 29 25 19 25 23 24 21 23 23 23 24 22 23 22 19 18 19 20 21 21 22 22 23 23 21
40 41 43 44 44 44 44 42 42 42 39 34 31 26 26 22 24 23 24 25 26 27 27 27 30 27 27 25 26 22 23 27 22 18 18 20 22 22 23 23 21 20 19 16 15 16 16 17 18 18 17 19 19 18
43 43 44 44 44 44 42 42 43 39 35 30 28 23 23 21 26 31 32 31 31 30 27 28 29 28 28 23 27 22 22 20 19 11 12 20 23 23 23 22 21 19 15 13 11 8 8 10 12 11 16 16 16 15
43 42 42 44 44 43 42 42 37 35 31 24 20 24 28 28 27 28 29 29 30 31 32 31 24 18 24 19 23 20 20 14 7 12 17 19 19 20 19 20 17 13 8 5 3 5 7 7 8 9 11 13 13 13
43 42 44 43 43 41 38 35 33 30 27 19 17 24 24 24 23 24 26 25 30 31 28 26 23 14 22 22 16 17 4 10 17 15 16 15 17 19 12 14 12 12 9 6 4 7 5 5 7 8 7 8 10 10
40 43 41 41 38 37 35 33 30 26 22 22 18 20 19 18 20 20 21 24 27 29 27 23 21 17 8 9 4 7 13 17 18 17 15 13 12 10 14 11 9 9 8 6 6 7 7 6 7 8 8 9 9 8
40 40 40 39 37 34 30 28 27 20 22 22 22 22 20 17 18 18 18 21 23 22 19 13 5 1 1 8 6 9 11 13 13 13 12 8 6 14 10 10 10 7 9 8 9 8 6 9 8 11 10 9 7 8
39 40 40 38 34 29 28 26 28 22 18 19 20 16 17 16 14 12 15 17 17 14 9 7 2 3 5 10 14 14 14 17 17 11 10 12 9 9 10 12 10 10 11 11 11 11 10 10 11 11 10 9 7 7
38 38 39 35 31 28 26 24 24 23 21 16 19 17 13 15 11 11 10 13 10 7 6 6 7 9 12 13 15 17 18 19 18 18 16 14 15 17 11 12 15 13 11 8 9 9 10 10 10 10 8 7 8 9
38 39 35 33 28 26 24 25 22 23 20 19 19 17 6 4 4 6 14 7 7 8 8 9 11 12 13 11 14 16 17 19 17 16 14 15 12 13 11 10 13 10 10 9 11 10 10 11 10 10 8 8 10 9
34 32 30 28 25 22 21 31 21 21 12 15 19 12 9 8 9 15 6 9 8 12 13 12 15 15 14 13 15 14 11 15 14 14 14 13 15 13 10 9 9 9 9 11 13 11 10 11 10 10 10 10 9 8
24 22 21 21 21 18 25 20 25 22 21 15 13 10 10 9 14 8 3 5 9 14 13 13 16 13 12 12 11 11 12 15 13 12 13 12 12 12 11 10 13 13 13 13 12 11 10 10 10 9 9 8 8 7
15 11 13 9 15 11 10 11 13 13 10 13 10 10 13 16 5 5 4 7 9 10 11 12 11 11 9 9 10 11 13 13 10 9 10 13 14 14 14 15 15 15 15 11 10 9 9 10 9 9 8 7 7 6
8 10 8 8 10 11 12 9 9 10 11 10 11 12 10 4 -1 -1 4 3 3 8 4 5 4 5 8 10 7 8 10 13 12 9 10 12 12 12 11 11 11 13 17 14 12 10 10 10 9 8 7 6 5 4
2 2 11 10 13 11 6 7 8 5 1 1 5 2 -2 -9 -8 3 10 10 8 9 11 12 11 9 8 7 10 11 13 13 11 11 13 13 12 12 11 8 7 11 15 15 13 11 10 9 8 7 6 5 5 4
9 6 1 2 4 7 -1 -1 -5 -6 1 9 -0 -10 -13 -12 -4 5 5 10 10 12 10 10 9 8 7 7 7 8 9 10 11 10 11 11 12 12 11 11 11 15 12 11 11 9 8 7 7 6 6 5 5 5
-1 3 2 -6 -0 1 -1 -7 -5 4 6 2 -11 -12 -4 3 1 3 5 6 8 5 -0 -0 1 -4 -0 1 3 4 3 6 5 3 -0 -1 1 5 9 9 9 10 10 11 15 13 11 9 8 6 6 5 2 2
-0 4 -1 -6 -4 -4 -4 -4 -7 -9 1 1 5 3 2 1 4 3 -2 -1 -2 -7 -11 -10 -8 -9 -10 -7 -7 -2 -0 -0 -0 -1 -2 -2 -1 4 6 6 5 5 7 7 6 8 12 8 7 2 2 1 -1 -2
4 -0 -2 0 -0 -3 -5 -10 -4 -4 -10 -10 -14 -11 -6 -4 -1 2 -4 -11 -16 -17 -11 -12 -10 -16 -10 -11 -13 -11 -10 -6 -4 -2 -2 -2 -1 -0 1 2 3 2 2 1 -0 -1 -1 -2 -2 -2 -2 -3 -5 -5
-8 -13 -8 -6 -3 -2 -5 -11 -11 -11 -15 -13 -12 -19 -12 -14 -16 -9 -3 -10 -14 -15 -18 -21 -16 -12 -18 -21 -23 -21 -15 -17 -16 -16 -15 -15 -16 -15 -10 -8 -7 -5 -2 -4 -6 -5 -6 -7 -8 -7 -11 -13 -15 -16
-8 -8 -12 -8 -4 -6 -5 -1 -5 -6 -12 -13 -8 -13 -14 -15 -14 -9 -4 -13 -12 -13 -16 -17 -18 -21 -18 -18 -17 -19 -19 -22 -18 -7 -10 -11 -16 -14 -20 -21 -18 -14 -10 -14 -16 -14 -10 -12 -18 -19 -21 -23 -23 -23

GFSWCAN_sfc_dewp_114.txt.gz
Dewpoint
40 41 40 41 40 40 41 40 38 37 37 39 39 40 40 40 40 40 37 38 35 28 28 28 29 26 27 27 23 25 23 24 23 22 21 22 23 25 26 23 26 25 23 22 24 18 11 33 33 27 35 39 38 39
40 40 41 40 40 39 37 36 37 38 39 39 39 39 40 40 40 41 37 38 39 34 28 32 34 34 32 31 28 28 26 28 25 19 21 25 23 26 25 20 32 23 28 26 26 21 32 35 37 39 39 39 38 33
40 41 41 40 39 39 37 38 38 39 39 39 39 39 40 40 41 41 38 39 38 34 32 29 28 28 34 34 33 26 28 31 31 33 32 28 23 26 22 25 28 31 34 30 31 33 34 35 37 39 39 39 39 41
39 40 40 39 39 39 38 39 39 39 40 39 39 39 40 40 40 40 38 39 38 34 26 24 29 29 31 32 34 32 29 31 32 34 30 28 24 28 26 26 27 32 35 30 32 35 35 36 37 36 38 39 34 34
39 39 39 39 39 38 38 39 39 40 39 40 39 39 40 38 39 40 40 39 39 33 24 26 29 28 29 30 32 33 32 30 29 28 27 27 30 29 30 30 30 32 32 30 29 35 35 37 39 37 35 34 35 32
39 39 39 38 38 38 38 39 39 40 40 38 37 38 38 39 40 39 33 38 39 38 32 23 27 29 30 30 30 31 31 30 32 28 28 30 32 32 28 27 30 30 31 34 34 35 39 38 35 35 33 32 31 31
38 38 39 39 38 37 38 38 39 39 39 39 38 38 38 40 40 35 33 33 39 39 32 25 23 28 32 32 32 32 33 32 31 32 30 29 30 33 28 23 30 29 29 35 32 33 33 33 35 35 33 31 30 27
38 37 38 38 38 37 38 38 39 38 38 38 38 39 40 39 39 37 39 42 39 37 34 24 22 25 31 28 30 35 32 33 34 32 34 32 33 32 27 30 29 27 28 28 27 30 30 30 31 32 32 30 27 26
37 38 38 38 38 38 38 39 39 38 38 39 39 39 40 38 34 37 41 42 41 35 26 25 21 18 32 33 34 36 36 30 35 31 32 33 30 28 28 28 26 26 26 26 26 28 27 27 28 29 29 28 26 25
36 37 38 38 38 38 39 39 39 38 38 40 40 33 30 34 41 42 39 34 32 33 34 27 26 23 30 32 33 32 32 30 28 32 35 31 27 29 29 28 27 24 23 24 24 24 24 24 26 28 28 26 26 25
36 36 37 37 38 38 38 38 39 39 39 37 32 32 37 41 37 33 27 27 29 27 29 28 28 25 30 25 28 32 29 29 24 27 29 28 25 26 26 27 25 24 23 21 21 22 22 23 24 25 26 26 26 25
36 36 37 37 38 38 39 39 40 39 34 35 37 40 39 35 32 26 23 24 23 22 26 27 29 30 29 32 29 31 28 25 22 30 28 24 22 23 23 24 22 23 20 18 18 19 20 20 21 22 23 23 23 22
36 37 38 38 38 38 39 40 41 41 40 40 37 32 31 30 23 17 16 21 22 26 26 30 29 26 30 33 28 29 25 20 26 24 23 20 23 22 23 22 21 21 19 16 15 16 17 18 18 19 19 20 21 20
38 38 38 39 39 39 40 40 41 41 40 33 30 26 22 21 23 23 23 23 26 25 27 27 30 27 30 25 28 23 23 26 23 19 17 20 21 22 23 23 20 19 17 14 13 13 13 14 15 14 14 16 15 14
39 39 39 39 40 40 41 41 43 41 34 31 29 20 24 21 27 27 28 27 31 30 27 27 26 29 25 24 26 21 22 20 17 10 13 21 21 22 22 21 20 18 14 12 9 6 6 7 9 8 11 13 13 11
40 40 40 42 42 43 43 41 38 36 31 24 21 22 26 28 27 28 29 29 30 32 31 29 23 21 24 22 24 19 19 11 8 14 17 19 18 19 19 19 16 12 6 3 1 3 3 3 3 4 5 7 7 8
43 41 43 44 43 42 39 36 34 30 26 18 14 22 24 23 22 23 25 24 28 30 25 25 16 17 23 20 14 14 4 9 16 17 16 15 16 18 14 12 10 10 8 4 1 3 1 1 3 6 4 6 8 9
40 43 44 41 39 36 35 34 30 26 20 20 16 19 17 17 20 19 20 22 25 29 27 22 21 20 16 16 5 6 11 14 16 13 12 13 13 11 14 11 9 7 7 4 4 4 4 2 4 4 4 6 6 7
41 40 40 39 37 33 29 28 26 19 19 19 21 21 19 17 18 18 19 22 22 22 19 13 7 4 -1 6 3 7 10 13 12 11 12 7 5 17 10 9 9 5 7 5 7 6 5 5 4 5 7 7 5 6
40 39 38 36 34 29 26 24 26 21 17 19 20 16 16 15 16 11 15 17 17 15 10 8 3 0 1 6 14 15 14 16 17 12 7 8 14 9 7 10 8 7 9 11 11 10 10 7 8 9 9 8 5 5
38 38 37 32 29 29 24 22 23 22 20 15 19 16 11 15 11 11 11 13 9 6 4 4 5 6 8 11 14 17 17 19 14 16 12 8 10 15 14 13 13 13 11 9 8 6 6 7 8 8 5 5 7 8
38 38 32 32 26 25 24 24 21 22 19 19 17 15 5 3 1 4 12 6 5 5 5 8 8 8 10 11 12 13 14 17 14 12 10 12 10 12 11 10 11 8 9 6 10 7 7 9 10 9 8 8 9 8
33 33 31 29 23 19 19 29 19 19 11 15 15 9 4 2 6 12 0 6 5 9 10 11 11 11 12 12 14 13 12 14 10 9 11 11 12 11 11 9 7 5 7 7 8 9 7 10 10 9 9 9 8 8
26 23 22 21 20 15 23 19 23 20 19 11 8 4 4 3 11 3 -3 -1 5 11 12 13 15 11 12 12 10 11 11 12 10 10 11 11 11 10 11 10 11 11 10 10 10 8 9 7 8 8 7 6 6 6
18 12 15 6 13 9 6 6 9 11 8 8 8 6 8 11 1 0 -2 5 7 8 9 12 11 11 9 10 10 11 12 13 10 9 10 11 10 11 11 13 14 14 14 7 6 5 5 6 5 6 6 5 5 4
7 9 7 6 8 9 10 4 3 5 8 5 9 10 9 4 1 -0 4 6 6 8 5 3 3 5 7 9 8 8 9 13 11 8 9 11 11 9 7 6 6 9 15 10 8 5 7 6 4 5 5 6 5 3
3 4 11 9 11 10 6 7 8 7 6 5 5 -1 -3 -10 -10 2 9 10 8 9 10 10 9 6 4 5 8 10 11 12 11 10 12 12 11 11 10 6 6 10 13 13 10 8 7 5 3 3 3 2 2 3
7 7 0 1 3 5 -3 -2 -3 -4 1 7 -2 -11 -13 -12 -5 4 4 8 5 8 7 6 6 5 4 3 4 5 5 7 9 10 10 9 9 9 9 10 10 14 10 9 7 8 7 5 2 2 1 0 0 2
-1 2 3 -5 -1 -1 -1 -5 -4 3 5 -1 -10 -10 -5 0 -3 -0 2 4 7 4 -3 -4 -5 -9 -5 -3 0 1 0 -1 -4 -5 -7 -7 -4 2 6 7 7 7 7 9 14 10 10 8 6 4 2 2 0 1
-2 2 -4 -9 -9 -7 -8 -5 -8 -7 -1 -1 3 3 0 -2 1 0 -4 -2 -3 -9 -13 -14 -18 -16 -16 -15 -14 -9 -6 -9 -10 -11 -10 -10 -8 -2 2 3 4 4 4 5 6 6 10 6 7 2 1 0 -2 -4
1 -2 -4 -5 -8 -5 -7 -14 -12 -10 -13 -11 -13 -13 -8 -7 -2 -2 -11 -18 -21 -22 -16 -16 -15 -23 -17 -19 -19 -16 -13 -11 -14 -11 -10 -11 -10 -11 -9 -7 -3 -1 -2 0 -1 -1 -2 -4 -5 -3 -2 -2 -4 -5
-11 -14 -7 -8 -6 -8 -8 -15 -16 -15 -20 -15 -15 -22 -18 -17 -17 -12 -8 -16 -19 -17 -20 -24 -18 -15 -21 -24 -28 -27 -19 -21 -20 -21 -20 -21 -22 -23 -21 -18 -20 -16 -13 -13 -11 -9 -10 -10 -12 -13 -14 -14 -15 -16
-13 -11 -13 -10 -8 -10 -7 -8 -9 -12 -16 -15 -15 -19 -20 -17 -15 -11 -9 -17 -15 -14 -17 -20 -22 -24 -22 -21 -20 -22 -20 -24 -23 -10 -9 -11 -18 -17 -24 -25 -22 -20 -15 -19 -20 -15 -12 -16 -22 -23 -24 -24 -24 -23

GFSWCAN_sfc_dewp_117.txt.gz
Dewpoint
41 40 41 40 42 42 42 41 41 41 40 38 38 40 40 40 41 38 36 38 36 30 28 28 29 26 26 27 23 26 25 26 26 22 23 21 22 20 22 24 25 25 24 24 24 21 16 34 31 26 34 36 37 39
41 41 41 40 41 41 41 41 41 40 39 39 39 40 40 40 41 40 36 38 39 34 29 33 34 33 30 29 29 29 27 27 29 26 25 25 22 24 22 19 32 24 28 25 27 21 31 34 34 38 40 37 37 39
41 40 41 40 41 41 40 40 39 39 38 39 39 40 40 40 41 40 39 39 38 34 32 31 29 32 35 34 34 26 27 28 31 34 33 29 23 25 21 21 27 30 34 30 30 33 35 35 37 38 39 38 38 36
40 40 41 41 41 40 40 40 39 38 39 38 40 40 40 40 41 41 38 39 38 34 27 25 29 29 31 33 34 33 29 32 33 34 30 27 24 27 24 24 25 31 33 31 31 34 34 37 36 36 35 36 34 33
40 40 41 41 41 40 40 39 39 39 39 38 39 39 40 40 41 41 40 40 39 32 26 26 30 29 30 32 33 34 33 31 30 30 28 25 29 30 29 30 29 32 31 28 28 32 33 33 33 36 34 33 32 32
39 40 40 40 40 40 39 39 39 39 39 40 40 40 39 40 40 38 33 38 40 38 31 24 28 29 30 31 31 33 33 31 32 30 29 30 31 29 26 25 30 30 32 33 31 33 34 35 37 36 34 33 32 29
39 39 39 40 40 40 39 38 39 39 39 39 39 38 38 39 39 34 31 36 39 39 32 25 23 27 31 32 31 31 32 32 32 31 31 30 29 33 28 22 28 27 27 28 27 29 28 30 33 34 31 29 29 27
39 38 39 39 39 38 39 38 39 38 39 38 39 39 39 39 39 36 38 40 40 36 35 24 22 25 32 30 30 33 32 33 34 33 33 31 33 32 26 28 27 26 25 25 25 27 28 30 30 30 29 29 27 26
38 38 39 40 39 38 38 38 37 37 38 38 38 38 40 38 34 37 40 41 42 36 26 25 22 20 31 34 35 36 35 30 34 30 31 33 29 28 27 26 24 24 23 23 23 24 23 24 25 27 27 27 26 25
38 38 38 39 39 39 38 38 37 37 39 39 38 33 30 34 40 41 38 34 32 33 34 25 26 24 31 32 33 33 33 31 27 31 35 31 27 27 27 26 25 22 21 20 19 20 21 22 23 23 26 26 25 25
37 37 38 38 38 38 38 38 38 38 39 36 32 32 35 41 38 35 29 29 28 26 28 26 26 25 31 28 29 32 31 31 26 28 31 28 24 24 26 26 23 22 19 17 18 19 19 21 21 21 23 23 23 22
36 37 37 37 38 38 38 38 38 37 37 36 37 40 39 35 31 27 23 25 23 21 27 25 26 29 31 33 31 32 29 28 23 31 29 24 21 24 23 22 21 20 17 15 16 16 17 18 19 19 20 20 21 21
36 36 36 37 38 38 39 39 39 38 39 40 37 32 31 30 23 20 18 20 21 26 27 29 28 30 30 33 31 29 26 23 27 25 23 20 22 22 22 21 20 18 16 14 13 14 14 15 16 16 16 18 20 19
36 36 37 38 38 39 39 39 40 38 37 31 30 25 25 21 24 23 23 25 27 27 29 29 30 29 31 30 29 25 26 27 23 21 19 20 21 21 22 21 18 16 15 14 13 12 12 13 13 13 13 15 16 16
36 36 37 37 38 39 39 40 39 40 34 30 31 22 23 24 27 27 28 29 29 29 31 31 30 31 28 27 27 24 22 20 20 18 17 21 21 20 21 20 19 18 15 14 12 10 8 8 10 9 10 12 14 13
36 37 36 38 39 39 40 40 39 34 31 26 21 23 25 27 28 29 30 29 31 31 30 30 26 26 25 25 24 22 20 17 15 18 20 21 20 19 20 19 19 16 14 12 11 10 9 7 8 8 8 9 9 11
38 36 38 39 39 40 40 35 33 29 25 20 18 22 24 24 23 23 24 25 26 31 31 26 20 22 25 23 19 15 15 14 18 19 20 20 20 20 19 17 15 15 15 12 10 11 9 8 7 9 8 9 10 11
36 37 41 40 40 38 33 33 30 26 19 20 16 18 17 16 20 19 20 22 25 29 28 23 24 22 17 20 13 11 15 17 18 18 18 18 19 17 18 18 16 14 14 11 10 10 9 8 9 9 8 9 9 10
40 40 41 40 37 33 29 29 27 19 19 20 21 20 18 17 17 17 19 22 22 22 21 18 14 9 7 9 10 12 14 16 16 17 17 15 14 16 18 15 15 13 13 13 13 13 11 10 10 10 10 10 8 9
40 39 38 37 34 29 26 24 26 20 17 18 19 16 15 15 16 15 16 17 17 16 11 9 8 9 10 13 15 16 16 17 18 17 16 16 17 17 16 16 16 14 14 14 13 11 11 10 10 10 10 9 9 8
37 37 36 33 30 27 25 23 21 21 19 16 18 16 13 15 13 13 13 12 10 8 8 10 11 13 13 15 16 18 18 18 16 16 14 14 15 16 15 15 15 14 13 12 12 10 10 9 9 9 9 9 10 10
36 35 31 30 26 25 23 24 21 21 19 19 16 13 10 9 8 9 11 8 7 9 10 12 12 13 13 12 13 14 16 15 15 13 12 13 12 12 12 12 13 11 11 11 11 10 10 9 10 10 9 10 10 10
33 32 29 27 22 18 19 27 19 19 13 15 14 9 7 7 10 9 5 7 8 11 12 13 13 14 13 14 14 14 14 14 12 12 13 13 13 13 12 12 12 10 9 10 11 10 10 8 9 10 10 10 10 10
26 23 19 16 18 14 23 18 22 19 17 12 9 5 5 6 9 3 0 3 8 12 12 13 14 12 13 12 10 11 12 14 12 12 13 13 12 13 13 12 12 12 12 11 10 10 10 10 9 9 9 8 8 8
19 14 17 7 12 8 5 3 8 11 4 6 6 5 7 8 1 -1 -2 5 8 9 11 12 11 11 10 10 10 11 13 13 11 9 11 12 13 13 13 13 13 13 13 11 9 9 9 9 9 9 8 8 7 7
7 6 4 4 6 7 8 2 1 4 7 4 7 9 8 3 -0 -1 3 7 8 9 9 9 8 7 7 9 8 8 10 13 11 9 10 11 11 11 11 10 10 11 14 13 11 9 9 9 9 8 8 8 7 7
3 3 10 8 11 9 5 7 9 7 4 4 7 3 2 -3 -4 3 9 10 9 9 10 10 9 8 7 7 9 10 11 12 11 10 11 10 10 10 10 9 8 11 14 14 14 12 11 9 8 7 7 7 7 7
8 8 4 3 3 4 0 1 1 1 4 5 0 -7 -7 -7 -2 5 6 9 8 7 6 5 4 5 5 4 4 5 7 7 11 11 10 8 8 8 8 10 10 13 13 13 12 13 12 11 9 7 7 7 6 7
0 4 3 -4 -2 -1 -2 -3 -1 3 4 -0 -5 -5 -3 -0 -1 1 4 6 7 5 1 1 -1 -2 -1 0 -1 -1 -2 -1 4 -1 -1 0 1 4 4 6 8 9 10 12 14 13 11 10 10 9 8 8 7 8
-0 2 -4 -9 -9 -6 -5 -3 -2 -3 -0 0 3 2 -0 -1 1 2 3 4 3 -2 -7 -9 -11 -5 -4 -3 -5 -4 -6 -8 -6 -0 -0 -1 0 -0 -0 -0 2 4 6 9 10 9 11 9 9 8 6 6 6 4
-0 -4 -7 -7 -7 -3 -6 -12 -12 -10 -11 -10 -10 -10 -6 -3 1 -3 -6 -11 -12 -12 -8 -9 -9 -13 -8 -8 -6 -5 -5 -6 -11 -9 -6 -5 -5 -6 -7 -7 -5 -3 3 4 5 5 4 4 4 4 3 2 1 1
-11 -15 -9 -10 -6 -6 -7 -14 -16 -12 -16 -9 -13 -17 -14 -11 -12 -7 -7 -10 -8 -7 -14 -14 -9 -8 -12 -13 -17 -15 -17 -10 -9 -11 -11 -11 -9 -9 -10 -9 -9 -5 -2 -0 2 0 -1 -1 -1 -2 -2 -3 -4 -5
-13 -14 -12 -8 -9 -10 -9 -7 -9 -10 -13 -14 -14 -17 -18 -11 -11 -7 -8 -12 -8 -6 -8 -9 -10 -12 -13 -13 -10 -10 -14 -12 -16 -9 -6 -9 -15 -11 -10 -8 -7 -6 -5 -4 -4 -2 -2 -5 -6 -7 -8 -9 -9 -9

GFSWCAN_sfc_dewp_120.txt.gz
Dewpoint
43 43 43 43 43 43 43 43 42 42 42 40 40 40 40 40 42 38 35 39 34 32 27 29 28 25 24 25 23 25 25 27 26 24 23 18 20 19 23 23 26 26 26 26 25 23 18 29 26 28 33 37 37 37
42 43 42 42 42 43 43 42 43 43 42 41 40 40 40 40 42 39 34 38 40 35 30 34 33 32 29 26 26 26 25 25 29 29 28 28 24 25 22 20 30 25 29 26 29 27 35 35 36 36 37 38 38 38
41 42 42 41 42 42 42 41 42 42 41 40 40 40 40 40 41 40 37 38 39 35 32 29 28 31 33 34 33 26 25 24 26 33 32 28 23 23 21 22 27 29 33 31 30 32 32 35 35 37 37 36 34 35
40 41 42 41 41 42 41 41 41 40 40 40 41 40 41 40 41 40 40 39 39 35 30 24 29 29 29 32 34 34 30 31 32 32 29 27 23 23 22 23 24 32 34 30 31 32 33 34 35 33 35 36 35 32
39 41 41 41 41 41 41 41 40 39 39 40 39 40 40 40 42 42 41 41 40 33 28 27 28 27 29 30 30 32 32 31 28 29 30 27 24 26 26 26 29 31 30 28 27 31 32 33 33 36 35 35 34 32
38 40 40 40 41 41 41 40 40 40 39 39 39 40 40 40 41 40 34 39 41 39 33 25 26 28 29 30 30 31 31 31 30 30 28 28 28 29 27 23 29 29 34 32 29 30 35 33 32 32 32 32 32 30
37 39 40 40 41 41 40 40 39 40 40 40 40 40 40 41 41 36 33 38 39 40 33 27 24 25 30 32 31 31 32 31 31 30 30 26 26 33 29 22 28 28 31 28 27 27 27 28 30 30 30 30 29 28
37 38 39 40 40 40 40 39 39 39 39 39 39 40 40 40 39 35 37 41 40 37 34 25 25 27 31 31 32 31 31 31 32 31 33 30 32 33 27 28 27 25 27 28 24 26 26 26 27 27 27 27 27 26
36 39 39 39 39 39 39 39 39 39 38 39 39 40 39 37 35 35 39 41 41 37 29 26 26 26 31 33 35 36 36 31 33 31 30 33 28 28 27 26 24 23 21 20 21 22 22 23 23 24 25 26 25 25
37 39 39 39 39 40 39 39 38 39 39 38 39 35 32 35 39 41 38 34 33 35 35 27 25 27 28 34 34 33 35 33 30 30 33 31 29 27 26 26 24 21 19 19 19 19 20 21 21 22 23 23 24 23
37 39 39 39 39 40 39 39 39 39 39 37 33 32 37 40 38 35 29 28 30 28 30 26 25 26 29 28 28 33 33 33 28 30 30 30 27 25 25 24 22 19 17 16 17 17 17 20 19 20 21 22 22 22
36 38 39 39 40 40 39 39 39 39 38 36 37 39 39 36 34 28 27 29 26 20 27 26 26 27 30 34 31 33 30 32 26 32 31 25 23 23 22 21 21 19 15 14 15 15 16 17 17 18 19 19 20 21
38 38 38 39 39 39 38 39 39 38 39 38 36 33 32 32 26 23 19 22 24 26 30 30 29 30 33 34 33 32 29 25 29 28 23 22 22 21 20 19 17 15 16 13 13 13 14 15 15 16 16 18 19 21
38 38 38 38 38 38 38 38 40 40 38 33 31 27 27 26 26 24 22 24 28 31 31 31 31 31 33 31 33 28 30 28 24 22 20 22 21 20 20 19 16 15 16 17 15 13 14 14 15 15 15 16 18 18
38 38 38 38 38 39 39 39 40 38 34 30 32 26 28 31 31 32 33 32 33 34 33 32 32 32 33 31 30 28 25 22 23 24 23 23 21 20 19 19 19 19 18 17 17 15 14 13 13 14 14 15 16 16
37 37 35 38 39 38 39 39 38 37 34 31 28 28 31 31 31 32 33 31 33 34 35 35 32 30 30 30 27 25 22 21 23 23 23 22 21 21 21 21 21 20 19 18 17 16 16 12 13 14 13 13 14 14
36 31 38 38 38 38 38 36 36 32 31 27 26 26 26 30 31 29 31 31 31 34 32 32 28 28 30 27 24 25 26 23 22 22 24 24 23 23 22 21 20 20 20 19 17 16 15 15 13 13 13 14 14 15
33 38 39 38 38 38 35 35 32 28 21 24 24 23 22 23 26 26 27 28 30 32 33 29 29 28 27 24 24 21 22 22 23 23 23 23 23 22 23 22 21 20 20 18 16 16 15 14 14 13 13 14 13 13
37 38 39 39 37 36 32 31 30 21 22 22 22 22 22 21 22 23 25 26 26 26 27 27 25 25 22 20 21 20 21 21 21 22 23 21 21 21 21 21 21 20 18 18 18 16 15 14 14 13 13 13 12 13
38 39 39 39 36 32 26 26 27 22 22 22 22 20 21 21 22 23 22 23 22 23 19 19 18 17 18 18 20 20 21 22 21 21 21 22 22 20 20 20 19 20 18 18 17 14 13 13 12 12 12 12 13 13
39 39 39 37 33 31 27 25 22 22 21 19 21 21 20 21 20 20 19 18 19 16 16 17 17 18 19 19 21 21 20 20 20 18 18 19 20 19 18 19 18 17 16 15 15 15 13 12 12 12 14 14 14 14
36 37 34 32 29 25 23 24 21 22 21 21 19 18 19 19 19 17 15 16 13 14 17 18 17 18 17 17 17 19 19 18 18 17 15 15 17 16 16 16 15 16 15 16 14 14 14 12 13 13 14 14 13 13
35 33 31 30 23 22 22 29 22 20 18 19 18 15 16 17 15 11 12 12 13 16 18 18 17 18 17 17 16 17 17 15 15 16 16 15 15 15 15 15 15 15 14 13 13 13 13 10 12 14 13 13 13 13
26 25 24 23 23 22 26 22 21 19 19 17 15 12 10 14 11 12 8 11 14 16 16 16 16 16 15 14 13 14 16 16 14 15 16 14 13 14 14 14 14 14 13 13 14 14 13 14 11 13 13 12 12 12
25 17 19 17 20 19 18 18 17 16 14 14 12 12 13 13 10 6 3 9 12 14 15 15 15 15 14 14 13 14 15 15 14 12 14 15 15 14 13 13 13 14 15 16 15 15 14 14 14 13 12 12 10 10
12 13 14 13 17 16 16 14 13 14 14 12 11 13 15 11 4 4 5 11 13 13 15 15 14 12 11 12 12 12 13 15 14 12 12 13 13 14 14 13 13 14 16 17 17 15 13 13 13 8 11 9 8 9
10 10 12 9 12 12 14 14 13 14 11 10 11 10 10 5 3 5 9 11 11 13 13 14 12 12 11 11 12 13 14 14 13 12 12 12 12 12 13 13 11 13 15 16 17 16 15 13 12 11 11 13 12 12
11 10 8 8 7 8 7 7 7 6 9 8 9 4 3 3 3 9 10 12 13 12 11 10 10 11 11 11 12 14 14 14 13 13 12 12 11 12 12 13 13 13 15 16 16 17 17 15 14 12 10 11 11 12
8 8 6 1 3 3 3 4 5 6 6 6 5 3 2 4 7 10 11 12 13 12 11 10 10 11 10 9 8 8 10 12 11 4 0 9 11 10 11 11 13 13 15 15 15 15 14 14 14 14 10 13 12 13
6 8 2 -1 -2 -0 3 4 6 6 5 6 4 2 2 5 7 8 11 12 12 12 9 9 9 11 10 10 8 6 6 6 6 10 10 8 8 8 8 9 10 12 13 13 13 13 12 13 12 12 11 11 12 11
8 6 2 1 1 4 5 4 5 5 5 4 6 5 3 6 8 7 7 7 7 6 8 7 5 6 7 7 9 7 6 4 -0 1 2 5 6 7 7 6 8 10 12 12 11 11 11 11 11 8 6 5 4 6
6 2 1 -1 1 5 6 7 7 6 7 7 5 5 4 6 4 6 5 6 6 6 -1 2 2 1 -0 0 -0 1 -5 2 2 -0 -2 1 4 4 5 6 7 9 9 10 11 10 8 7 8 7 6 2 2 1
4 4 5 4 3 3 5 6 4 4 6 6 5 4 5 5 2 6 3 4 7 7 4 5 4 3 0 -0 1 1 -2 1 -5 -3 -4 -4 -6 -3 3 6 7 6 6 7 8 7 4 2 4 1 1 -0 -1 -1

GFSWCAN_sfc_dewp_123.txt.gz
Dewpoint
43 43 43 42 42 42 42 42 42 41 42 42 41 40 41 41 41 39 35 37 32 33 28 27 25 24 24 23 21 24 26 29 26 25 24 19 21 22 23 21 27 26 25 24 26 25 21 35 30 32 35 35 37 38
42 42 43 43 42 42 43 42 43 43 43 41 41 41 41 41 42 40 34 36 37 34 30 34 32 31 28 26 25 25 24 23 29 29 28 27 25 24 23 21 30 26 29 27 29 28 35 35 34 36 37 38 37 36
43 43 43 42 42 43 43 42 42 43 43 41 40 41 41 41 42 41 36 36 39 36 33 29 27 30 32 33 32 26 23 25 25 33 32 29 23 20 23 21 27 31 34 31 31 31 32 35 35 35 35 34 36 37
42 42 43 42 42 43 43 42 42 43 42 42 41 41 42 41 42 41 39 37 37 34 31 26 26 28 28 30 32 33 30 29 29 29 31 28 25 23 21 22 24 32 33 29 33 32 30 32 35 35 36 36 36 37
41 42 42 42 42 42 42 42 42 42 41 41 41 41 41 40 42 42 42 40 37 33 31 28 28 27 28 29 29 30 32 30 26 32 31 27 24 25 25 23 30 28 30 28 28 33 31 34 35 33 34 32 31 30
39 40 41 41 42 42 42 42 42 41 40 41 41 40 40 42 42 40 36 38 38 38 33 27 25 25 26 28 28 29 29 29 28 30 29 27 27 29 28 22 29 28 33 31 30 29 30 32 32 30 30 30 30 28
38 39 41 41 41 42 41 41 41 40 40 41 41 41 41 42 39 37 35 39 38 39 36 28 24 26 29 30 31 29 30 29 28 32 30 26 25 32 29 22 30 27 28 29 28 27 27 26 26 27 28 27 28 27
36 37 39 40 41 41 41 40 40 40 40 40 41 40 41 41 39 34 40 41 39 37 34 27 25 25 30 31 32 31 30 31 32 30 30 29 30 33 28 28 26 24 24 26 23 25 24 25 25 24 25 26 26 25
35 37 39 41 40 41 41 40 40 40 40 40 40 40 40 37 37 34 41 41 41 37 32 28 26 29 31 32 36 34 37 31 31 32 29 30 29 29 29 26 24 24 22 21 21 23 21 23 23 23 23 24 24 24
35 36 39 40 41 41 41 40 40 40 40 39 39 37 32 36 41 39 39 35 35 35 34 29 26 28 26 33 34 33 35 32 30 30 31 32 28 27 26 25 24 22 19 19 19 19 19 20 21 21 21 22 23 22
35 36 39 40 40 41 39 39 39 39 40 38 34 33 38 40 37 36 31 31 30 29 30 26 24 25 26 29 30 30 34 34 28 30 29 29 29 26 25 24 23 20 18 17 17 17 17 19 18 19 20 21 21 22
35 37 39 39 40 41 40 39 39 39 38 35 36 39 38 34 34 29 28 29 26 19 24 28 26 25 30 31 30 33 29 33 26 32 30 25 24 23 23 22 21 19 16 15 15 14 15 15 17 17 18 19 19 21
36 38 39 40 41 40 39 39 39 39 39 39 36 34 33 31 26 24 21 24 24 26 30 31 30 30 32 32 34 33 28 26 30 29 23 23 23 22 21 19 17 16 17 15 14 14 14 15 15 17 16 17 19 20
38 39 39 40 40 40 39 39 39 39 35 33 31 27 28 27 25 23 22 23 28 32 32 31 30 30 33 31 33 28 29 29 26 23 23 24 23 21 21 19 17 16 18 19 17 15 15 15 15 17 17 17 18 17
38 38 39 40 40 39 40 40 39 39 34 31 32 25 28 31 33 35 35 33 33 35 33 32 32 33 33 31 31 29 28 24 23 26 26 25 23 21 20 20 20 20 20 20 20 18 17 15 15 16 16 17 17 17
38 38 37 39 39 39 40 40 37 38 34 32 31 30 32 33 32 33 35 35 35 34 34 33 32 28 30 30 29 26 22 21 27 26 25 23 22 22 22 22 22 22 21 21 21 19 19 16 15 16 17 18 15 17
35 35 38 39 39 39 40 34 36 33 29 30 30 32 30 31 32 32 35 33 34 35 32 31 28 28 31 27 26 28 28 27 25 25 25 25 23 23 23 23 22 21 21 21 20 19 18 17 17 18 16 18 16 17
32 39 39 39 39 37 35 37 32 30 27 28 27 29 29 29 30 30 31 32 34 33 30 26 31 28 27 24 28 26 26 25 26 26 25 24 23 23 23 23 22 22 21 20 19 19 21 19 16 15 16 17 16 17
37 39 39 39 38 35 33 32 32 25 26 26 27 26 27 27 27 27 29 30 31 32 33 32 30 28 27 25 24 24 24 25 24 25 24 23 22 22 21 22 22 23 20 19 19 17 16 17 15 15 14 15 15 16
38 39 39 39 38 32 27 28 31 24 24 25 24 25 26 26 27 29 28 29 29 30 28 27 25 23 24 23 24 24 24 25 24 24 25 24 23 23 21 20 20 20 19 20 21 16 14 15 15 14 14 14 15 15
37 38 38 38 36 33 28 26 25 25 24 24 24 25 25 25 27 27 25 24 26 24 22 22 21 21 22 23 24 24 23 23 22 21 21 23 21 19 19 20 19 18 17 17 17 18 16 14 14 14 17 17 17 17
38 37 37 34 32 28 26 28 24 24 24 24 24 24 25 25 25 23 21 23 21 19 22 22 21 20 19 20 20 22 21 20 20 19 17 17 19 18 17 17 17 18 17 17 16 17 17 14 14 16 17 17 15 15
38 37 33 31 27 26 23 30 26 24 21 22 22 21 22 22 21 16 20 18 18 19 22 20 20 21 19 19 18 19 18 18 17 17 17 17 16 17 16 16 17 18 17 15 15 15 15 13 15 17 17 17 17 17
32 31 30 29 27 24 28 27 23 21 21 21 20 18 17 20 15 18 17 17 18 18 18 18 18 18 17 16 16 16 18 17 15 16 18 17 15 15 15 15 16 16 14 14 16 17 16 17 15 16 15 15 15 15
28 21 25 22 27 25 22 21 21 19 18 19 17 17 17 18 17 15 12 14 16 18 18 18 18 18 19 17 16 16 17 17 15 14 16 16 17 16 16 15 14 15 17 19 18 17 16 16 16 15 14 15 12 10
19 17 19 21 22 21 20 18 19 19 18 17 15 17 19 18 13 11 10 15 17 16 19 19 18 16 15 16 14 14 15 16 15 14 14 14 15 16 17 15 16 17 16 19 19 17 15 14 14 12 14 8 9 14
16 15 15 13 16 17 20 20 18 19 16 15 16 16 15 12 11 11 12 14 13 16 16 16 15 14 13 14 14 16 16 16 16 14 13 13 13 13 15 14 13 14 16 17 19 19 18 15 15 14 14 16 15 14
15 15 13 15 14 14 13 14 14 13 15 14 15 12 13 11 10 14 14 14 16 14 14 14 14 14 14 14 15 17 15 15 15 14 14 13 13 14 14 15 15 13 17 17 17 18 18 17 16 15 13 14 13 14
14 14 11 6 9 10 10 10 12 10 9 14 13 10 8 8 13 13 14 15 16 15 14 14 14 15 14 14 14 14 16 16 14 5 4 13 15 15 13 14 14 15 16 18 15 14 15 16 16 16 13 15 15 15
11 14 9 5 4 5 8 10 10 11 10 11 8 5 6 9 11 14 15 15 15 16 15 15 15 15 14 14 12 11 12 13 12 13 13 12 12 11 12 12 12 13 14 16 15 16 10 15 14 15 14 14 15 13
12 12 8 7 5 8 9 10 11 11 11 11 13 11 8 9 11 13 13 14 14 14 14 12 12 14 12 12 13 11 10 10 5 5 6 10 10 11 10 10 11 12 13 13 13 12 11 11 11 9 6 7 5 7
13 7 7 4 5 9 11 12 12 11 11 10 9 10 9 12 9 11 12 13 13 12 8 11 10 9 8 8 8 6 4 6 5 5 3 5 8 8 9 9 11 11 10 10 11 11 8 8 9 8 7 2 5 5
9 11 10 8 7 7 9 11 8 8 11 10 10 11 13 12 8 12 10 13 15 13 10 11 9 7 5 5 5 5 4 5 0 1 -0 -1 -2 1 7 10 10 9 8 9 9 8 5 1 5 5 3 3 2 3

GFSWCAN_sfc_dewp_126.txt.gz
Dewpoint
43 43 43 43 42 42 42 41 41 41 43 42 40 40 40 40 40 39 36 38 34 33 28 24 24 24 22 21 20 25 25 28 26 24 25 20 21 22 22 21 27 25 23 22 23 20 17 33 28 26 30 35 35 35
43 43 43 42 42 42 42 42 41 42 42 42 41 40 40 40 40 39 35 36 37 32 31 34 32 30 27 26 26 25 23 21 28 28 29 27 24 24 20 19 30 24 29 27 28 26 34 34 33 35 35 34 34 36
43 43 43 43 42 42 42 42 42 41 42 40 42 40 41 40 41 40 37 37 35 35 34 29 27 30 31 30 31 26 26 26 30 30 30 28 23 19 21 21 24 29 35 30 29 30 28 34 35 36 36 35 36 37
43 43 43 43 42 43 43 43 42 43 43 43 41 42 41 41 41 40 40 37 35 33 31 28 26 28 28 30 30 31 30 30 28 26 28 28 24 22 21 21 23 32 33 28 30 32 28 30 36 35 36 35 32 30
42 42 43 42 42 43 43 43 42 43 43 42 40 41 41 41 41 40 43 42 39 34 31 30 29 26 27 29 27 29 30 29 27 29 31 26 22 23 23 24 32 28 29 28 27 33 32 32 35 31 30 29 29 27
40 42 44 43 42 42 43 43 43 43 43 42 41 41 41 42 42 41 37 37 36 35 34 27 29 27 26 26 27 28 28 28 29 28 28 25 26 27 28 23 31 28 31 31 30 29 35 30 28 26 26 29 30 27
40 41 41 42 42 42 42 42 42 42 41 41 41 41 42 42 42 38 35 38 38 38 35 28 25 25 25 28 28 26 29 28 28 32 30 25 24 29 29 23 34 25 26 29 25 25 25 24 25 25 25 25 27 25
38 39 41 42 41 41 42 42 42 41 41 41 41 42 42 41 40 37 39 39 38 35 32 28 25 25 28 27 32 32 31 32 32 28 29 28 29 33 27 30 25 24 24 24 22 23 23 24 24 23 23 23 24 23
37 39 40 40 40 41 42 41 41 40 41 41 41 40 39 36 37 37 41 41 40 37 31 30 25 28 30 30 37 37 34 30 30 30 28 28 28 29 31 26 24 23 22 21 20 21 19 21 21 21 21 22 22 22
36 37 39 41 41 41 41 41 41 40 40 39 39 37 32 37 41 40 37 35 35 35 33 28 26 28 26 33 35 33 35 30 30 30 31 30 27 28 26 25 24 22 19 19 18 18 17 18 18 19 19 20 21 21
34 35 38 39 41 41 41 40 40 40 39 38 34 34 37 41 35 33 30 30 30 27 28 25 24 24 25 29 30 33 32 33 26 29 30 28 28 27 25 25 23 20 17 16 16 16 15 17 16 17 17 19 19 20
34 34 35 39 40 41 40 40 40 38 38 36 36 37 37 32 32 27 27 27 25 20 24 27 26 24 30 30 30 33 28 32 23 33 31 25 25 24 23 23 21 18 16 15 15 15 15 14 16 16 16 16 17 19
35 35 37 40 41 41 41 39 39 39 40 38 33 33 31 30 24 21 19 23 24 25 30 31 31 30 33 31 34 33 26 25 30 29 23 24 24 23 22 20 18 18 18 17 16 15 15 15 15 17 15 16 18 18
35 37 38 40 41 41 40 39 40 40 38 32 30 25 26 25 24 22 22 24 32 33 33 33 31 30 33 32 32 24 28 30 24 22 23 25 23 23 21 20 17 18 19 21 19 17 17 15 15 18 17 18 17 17
36 37 39 40 41 41 39 39 40 40 36 31 30 24 26 30 32 35 37 34 34 35 34 33 32 33 32 31 29 27 27 23 23 26 28 26 24 22 21 21 21 21 22 22 22 20 20 17 17 17 19 19 16 19
37 39 40 40 41 40 39 39 38 37 36 32 30 28 32 34 31 32 33 35 37 37 37 34 32 28 28 28 27 24 22 21 27 27 27 24 23 23 23 23 23 23 22 23 23 21 20 18 17 18 21 20 16 19
39 38 41 41 41 40 39 35 35 33 31 30 29 32 31 33 31 33 36 35 36 36 32 30 27 24 29 26 24 28 27 27 27 27 27 26 26 25 23 23 23 22 22 23 21 20 20 21 20 21 17 20 18 20
36 40 41 41 40 38 36 35 34 30 26 28 26 30 29 29 31 31 32 33 34 34 30 27 31 25 25 23 27 27 26 27 28 27 25 25 25 24 24 23 23 21 21 22 21 22 23 19 16 15 17 18 17 18
38 39 39 40 37 36 33 34 33 24 27 29 29 28 27 28 28 29 30 31 32 33 34 33 30 26 28 26 26 26 27 26 25 26 24 24 23 21 21 23 23 25 21 20 19 17 17 20 18 15 14 14 15 18
39 39 39 38 38 35 30 29 31 25 25 27 27 27 27 28 27 29 29 29 30 31 30 30 25 24 25 25 27 26 26 25 25 25 25 25 24 24 21 20 19 20 19 21 23 19 15 17 16 16 16 17 16 16
39 39 39 39 35 30 27 27 26 27 25 26 26 25 26 25 26 27 26 27 28 27 25 24 23 23 25 25 26 24 24 25 24 23 22 24 22 19 20 20 20 19 18 18 19 19 18 16 15 16 18 17 17 18
38 38 37 35 30 29 27 28 26 26 25 25 24 25 26 26 26 26 24 26 24 21 25 25 22 20 20 21 22 22 22 21 21 21 19 19 19 19 19 18 18 19 18 18 17 18 17 14 14 18 17 17 17 14
36 34 31 30 28 26 26 30 25 24 22 23 24 23 24 24 24 20 23 21 20 21 24 22 23 23 20 21 20 20 20 21 19 19 19 18 18 19 18 18 18 18 18 16 16 16 17 16 16 16 18 18 18 18
34 33 31 29 27 25 26 26 27 23 24 22 22 21 20 23 19 19 22 21 20 20 19 19 19 20 19 20 20 19 20 18 17 17 19 20 17 16 16 16 17 17 16 17 17 18 17 18 16 18 17 17 15 16
29 26 28 25 28 24 23 23 22 21 21 22 19 20 20 20 19 19 18 18 18 21 19 21 22 22 23 19 17 16 19 20 19 15 17 17 19 19 17 15 15 15 17 19 18 19 17 17 18 15 15 16 14 15
24 22 23 25 24 23 23 22 21 21 20 20 21 21 21 20 17 16 16 18 20 19 20 20 19 18 19 20 17 16 16 17 17 15 14 15 15 16 17 17 18 16 16 19 18 18 19 15 15 13 17 14 8 13
19 19 19 17 22 22 23 24 22 22 19 18 20 18 18 15 16 15 16 18 18 19 18 18 18 18 16 15 16 17 17 17 17 14 14 14 14 14 16 14 12 13 15 17 17 18 18 17 16 14 15 16 15 14
21 20 15 18 19 19 19 20 19 18 19 18 19 17 16 16 14 16 17 19 18 16 16 17 18 17 17 17 17 17 17 16 16 15 14 14 14 15 15 16 16 16 16 18 16 17 16 17 17 17 14 14 14 14
17 18 14 14 14 14 15 16 17 14 12 17 19 13 11 11 17 15 16 16 17 16 15 14 16 17 16 15 16 16 17 16 16 13 8 15 14 13 14 14 15 15 16 17 18 14 13 14 13 14 14 15 15 15
15 17 12 9 8 11 12 13 13 14 14 14 11 9 9 11 14 18 17 17 17 19 19 17 17 17 14 14 13 12 14 14 13 12 13 12 11 12 12 12 12 13 14 15 15 15 14 14 17 17 13 14 14 13
16 16 13 11 9 11 12 14 15 16 16 16 16 13 9 10 12 15 19 18 17 15 15 14 14 15 14 14 14 12 10 10 7 6 8 11 10 11 10 10 11 12 13 12 13 12 11 12 12 11 10 9 8 8
17 12 11 7 7 11 14 15 16 12 12 11 10 10 11 12 9 11 14 15 14 14 12 15 13 12 12 12 10 9 8 9 7 6 5 7 9 8 9 10 11 11 10 11 11 11 10 9 9 8 9 8 6 5
15 14 12 9 7 9 11 14 10 11 13 12 11 11 15 13 10 13 14 17 17 16 13 15 11 10 8 8 8 7 6 5 2 5 2 1 -2 1 6 9 10 9 8 9 9 9 8 7 7 5 6 4 4 4